[[{"header":{"parameterUnit":"m.s-1","parameterCategory":1,"la1":31.0,"la2":29.5877,"lo1":-88.7671,"lo2":-86.6584,"dy":0.0162,"dx":0.0185,"nx":115,"ny":88,"refTime":"2023-03-04T06:00:00:Z","depth":0,"parameterNumber":2,"parameterNumberName":"U-component_of_WINDS"},"data":[0.0,0.0,0.0,0.0,0.0,0.0,0.0,0.0,0.0,0.0,0.0,0.0,0.0,0.0,0.0,0.0,0.0,0.0,0.0,0.0,0.0,0.0,0.0,0.0,0.0,0.0,0.0,0.0,0.0,0.0,0.0,0.0,0.0,0.0,0.0,0.0,0.0,0.0,0.0,0.0,0.0,0.0,0.0,0.0,0.0,0.0,0.0,0.0,0.0,0.0,0.0,0.0,0.0,0.0,0.0,0.0,0.0,0.0,0.0,0.0,0.0,0.0,0.0,0.0,0.0,0.0,0.0,0.0,0.0,0.0,0.0,0.0,0.0,0.0,0.0,0.0,0.0,0.0,0.0,0.0,0.0,0.0,0.0,0.0,0.0,0.0,0.0,0.0,0.0,0.0,0.0,0.0,0.0,0.0,0.0,0.0,0.0,0.0,0.0,0.0,0.0,0.0,0.0,0.0,0.0,0.0,0.0,0.0,0.0,0.0,0.0,0.0,0.0,0.0,0.0,0.0,0.0,0.0,0.0,0.0,0.0,0.0,0.0,0.0,0.0,0.0,0.0,0.0,0.0,0.0,0.0,0.0,0.0,0.0,0.0,0.0,0.0,0.0,0.0,0.0,0.0,0.0,0.0,0.0,0.0,0.0,0.0,0.0,0.0,0.0,0.0,0.0,0.0,0.0,0.0,0.0,0.0,0.0,0.0,0.0,0.0,0.0,0.0,0.0,0.0,0.0,0.0,0.0,0.0,0.0,0.0,0.0,0.0,0.0,0.0,0.0,0.0,0.0,0.0,0.0,0.0,0.0,0.0,0.0,0.0,0.0,0.0,0.0,0.0,0.0,0.0,0.0,0.0,0.0,0.0,0.0,0.0,0.0,0.0,0.0,0.0,0.0,0.0,0.0,0.0,0.0,0.0,0.0,0.0,0.0,0.0,0.0,0.0,0.0,0.0,0.0,0.0,0.0,0.0,0.0,0.0,0.0,0.0,0.0,0.0,0.0,0.0,0.0,0.0,0.0,0.0,0.0,0.0,0.0,0.0,0.0,0.0,0.0,0.0,0.0,0.0,0.0,0.0,0.0,0.0,0.0,0.0,0.0,0.0,0.0,0.0,0.0,0.0,0.0,0.0,0.0,0.0,0.0,0.0,0.0,0.0,0.0,0.0,0.0,0.0,0.0,0.0,0.0,0.0,0.0,0.0,0.0,0.0,0.0,0.0,0.0,0.0,0.0,0.0,0.0,0.0,0.0,0.0,0.0,0.0,0.0,0.0,0.0,0.0,0.0,0.0,0.0,0.0,0.0,0.0,0.0,0.0,0.0,0.0,0.0,0.0,0.0,0.0,0.0,0.0,0.0,0.0,0.0,0.0,0.0,0.0,0.0,0.0,0.0,0.0,0.0,0.0,0.0,0.0,0.0,0.0,0.0,0.0,0.0,0.0,0.0,0.0,0.0,0.0,0.0,0.0,0.0,0.0,0.0,0.0,0.0,0.0,0.0,0.0,0.0,0.0,0.0,0.0,0.0,0.0,0.0,0.0,0.0,0.0,0.0,0.0,0.0,0.0,0.0,0.0,0.0,0.0,0.0,0.0,0.0,0.0,0.0,0.0,0.0,0.0,0.0,0.0,0.0,0.0,0.0,0.0,0.0,0.0,0.0,0.0,0.0,0.0,0.0,0.0,0.0,0.0,0.0,0.0,0.0,0.0,0.0,0.0,0.0,0.0,0.0,0.0,0.0,0.0,0.0,0.0,0.0,0.0,0.0,0.0,0.0,0.0,0.0,0.0,0.0,0.0,0.0,0.0,0.0,0.0,0.0,0.0,0.0,0.0,0.0,0.0,0.0,0.0,0.0,0.0,0.0,0.0,0.0,0.0,0.0,0.0,0.0,0.0,0.0,0.0,0.0,0.0,0.0,0.0,0.0,0.0,0.0,0.0,0.0,0.0,0.0,0.0,0.0,0.0,0.0,0.0,0.0,0.0,0.0,0.0,0.0,0.0,0.0,0.0,0.0,0.0,0.0,0.0,0.0,0.0,0.0,0.0,0.0,0.0,0.0,0.0,0.0,0.0,0.0,0.0,0.0,0.0,0.0,0.0,0.0,0.0,0.0,0.0,0.0,0.0,0.0,0.0,0.0,0.0,0.0,0.0,0.0,0.0,0.0,0.0,0.0,0.0,0.0,0.0,0.0,0.0,0.0,0.0,0.0,0.0,0.0,0.0,0.0,0.0,0.0,0.0,0.0,0.0,0.0,0.0,0.0,0.0,0.0,0.0,0.0,0.0,0.0,0.0,0.0,0.0,0.0,0.0,0.0,0.0,0.0,0.0,0.0,0.0,0.0,0.0,0.0,0.0,0.0,0.0,0.0,0.0,0.0,0.0,0.0,0.0,0.0,0.0,0.0,0.0,0.0,0.0,0.0,0.0,0.0,0.0,0.0,0.0,0.0,0.0,0.0,0.0,0.0,0.0,0.0,0.0,0.0,0.0,0.0,0.0,0.0,0.0,0.0,0.0,0.0,0.0,0.0,0.0,0.0,0.0,0.0,0.0,0.0,0.0,0.0,0.0,0.0,0.0,0.0,0.0,0.0,0.0,0.0,0.0,0.0,0.0,0.0,0.0,0.0,0.0,0.0,0.0,0.0,0.0,0.0,0.0,0.0,0.0,0.0,0.0,0.0,0.0,0.0,0.0,0.0,0.0,0.0,0.0,0.0,0.0,0.0,0.0,0.0,0.0,0.0,0.0,0.0,0.0,0.0,0.0,0.0,0.0,0.0,0.0,0.0,0.0,0.0,0.0,0.0,0.0,0.0,0.0,0.0,0.0,0.0,0.0,0.0,0.0,0.0,0.0,0.0,0.0,0.0,0.0,0.0,0.0,0.0,0.0,0.0,0.0,0.0,0.0,0.0,0.0,0.0,0.0,0.0,0.0,0.0,0.0,0.0,0.0,0.0,0.0,0.0,0.0,0.0,0.0,0.0,0.0,0.0,0.0,0.0,0.0,0.0,0.0,0.0,0.0,0.0,0.0,0.0,0.0,0.0,0.0,0.0,0.0,0.0,0.0,0.0,0.0,0.0,0.0,0.0,0.0,0.0,0.0,0.0,0.0,0.0,0.0,0.0,0.0,0.0,0.0,0.0,0.0,0.0,0.0,0.0,0.0,0.0,0.0,0.0,0.0,0.0,0.0,0.0,0.0,0.0,0.0,0.0,0.0,0.0,0.0,0.0,0.0,0.0,0.0,0.0,0.0,0.0,0.0,0.0,0.0,0.0,0.0,0.0,0.0,0.0,0.0,0.0,0.0,0.0,0.0,0.0,0.0,0.0,0.0,0.0,0.0,0.0,0.0,0.0,0.0,0.0,0.0,0.0,0.0,0.0,0.0,0.0,0.0,0.0,0.0,0.0,0.0,0.0,0.0,0.0,0.0,0.0,0.0,0.0,0.0,0.0,0.0,0.0,0.0,0.0,0.0,0.0,0.0,0.0,0.0,0.0,0.0,0.0,0.0,0.0,0.0,0.0,0.0,0.0,0.0,0.0,0.0,0.0,0.0,0.0,0.0,0.0,0.0,0.0,0.0,0.0,0.0,0.0,0.0,0.0,0.0,0.0,0.0,0.0,0.0,0.0,0.0,0.0,0.0,0.0,0.0,0.0,0.0,0.0,0.0,0.0,0.0,0.0,0.0,0.0,0.0,0.0,0.0,0.0,0.0,0.0,0.0,0.0,0.0,0.0,0.0,0.0,0.0,0.0,0.0,0.0,0.0,0.0,0.0,0.0,0.0,0.0,0.0,0.0,0.0,0.0,0.0,0.0,0.0,0.0,0.0,0.0,0.0,0.0,0.0,0.0,0.0,0.0,0.0,0.0,0.0,0.0,0.0,0.0,0.0,0.0,0.0,0.0,0.0,0.0,0.0,0.0,0.0,0.0,0.0,0.0,0.0,0.0,0.0,0.0,0.0,0.0,0.0,0.0,0.0,0.0,0.0,0.0,0.0,0.0,0.0,0.0,0.0,0.0,0.0,0.0,0.0,0.0,0.0,0.0,0.0,0.0,0.0,0.0,0.0,0.0,0.0,0.0,0.0,0.0,0.0,0.0,0.0,0.0,0.0,0.0,0.0,0.0,0.0,0.0,0.0,0.0,0.0,0.0,0.0,0.0,0.0,0.0,0.0,0.0,0.0,0.0,0.0,0.0,0.0,0.0,0.0,0.0,0.0,0.0,0.0,0.0,0.0,0.0,0.0,0.0,0.0,0.0,0.0,0.0,0.0,0.0,0.0,0.0,0.5928,0.0,0.0,0.0,0.0,0.0,0.0,0.0,0.0,0.0,0.0,0.0,0.0,0.0,0.0,0.0,0.0,0.0,0.0,0.0,0.0,0.0,0.0,0.0,0.0,0.0,0.0,0.0,0.0,0.0,0.0,0.0,0.0,0.0,0.0,0.0,0.0,0.0,0.0,0.0,0.0,0.0,0.0,0.0,0.0,0.0,0.0,0.0,0.0,0.0,0.0,0.0,0.0,0.0,0.0,0.0,0.0,0.0,0.0,0.0,0.0,0.0,0.0,0.0,0.0,0.0,0.0,0.0,0.0,0.0,0.0,0.0,0.0,0.0,0.0,0.0,0.0,0.0,0.0,0.0,0.0,0.0,0.0,0.0,0.0,0.0,0.0,0.0,0.0,0.0,0.0,0.0,0.0,0.0,0.0,0.0,0.0,0.0,0.0,0.0,0.0,0.0,0.0,0.0,0.0,0.0,0.0,0.0,0.0,0.0,0.0,0.6874,0.6804,0.598,0.5561,0.5591,0.0,0.0,0.0,0.0,0.0,0.0,0.0,0.0,0.0,0.0,0.0,0.0,0.0,0.0,0.0,0.0,0.0,0.0,0.0,0.0,0.0,0.0,0.0,0.0,0.0,0.0,0.0,0.0,0.0,0.0,0.0,0.0,0.0,0.0,0.0,0.0,0.0,0.0,0.0,0.0,0.0,0.0,0.0,0.0,0.0,0.0,0.0,0.0,0.0,0.0,0.0,0.0,0.0,0.0,0.0,0.0,0.0,0.0,0.0,0.0,0.0,0.0,0.0,0.0,0.0,0.0,0.0,0.0,0.0,0.0,0.0,0.0,0.0,0.0,0.0,0.0,0.0,0.0,0.0,0.0,0.0,0.0,0.0,0.0,0.0,0.0,0.0,0.0,0.0,0.0,0.0,0.0,0.0,0.0,0.0,0.0,0.0,0.0,0.0,0.0,0.0,0.0,0.0,0.0,0.0,0.0,0.0,0.0,0.0,0.0,0.0,0.0,0.5909,0.5268,0.5056,0.0,0.0,0.0,0.0,0.0,0.0,0.0,0.0,0.0,0.0,0.0,0.0,0.0,0.0,0.0,0.0,0.0,0.0,0.0,0.0,0.0,0.0,0.0,0.0,0.0,0.0,0.0,0.0,0.0,0.0,0.0,0.0,0.0,0.0,0.0,0.0,0.0,0.0,0.0,0.0,0.0,0.0,0.0,0.0,0.0,0.0,0.0,0.0,0.0,0.0,0.0,0.0,0.0,0.0,0.0,0.0,0.0,0.0,0.0,0.0,0.0,0.0,0.0,0.0,0.0,0.0,0.0,0.0,0.0,0.0,0.0,0.0,0.0,0.0,0.0,0.0,0.0,0.0,0.0,0.0,0.0,0.0,0.0,0.0,0.0,0.0,0.0,0.0,0.0,0.0,0.0,0.0,0.0,0.0,0.0,0.0,0.0,0.0,0.0,0.0,0.0,0.0,0.0,0.0,0.0,0.0,0.0,0.0,0.0,0.0,0.6556,0.6799,0.6005,0.0,0.436,0.0,0.0,0.0,0.0,0.0,0.0,0.0,0.0,0.0,0.0,0.0,0.0,0.0,0.0,0.0,0.0,0.0,0.0,0.0,0.0,0.0,0.0,0.0,0.0,0.0,0.0,0.0,0.0,0.0,0.0,0.0,0.0,0.0,0.0,0.0,0.0,0.0,0.0,0.0,0.0,0.0,0.0,0.0,0.0,0.0,0.0,0.0,0.0,0.0,0.0,0.0,0.0,0.0,0.0,0.0,0.0,0.0,0.0,0.0,0.0,0.0,0.0,0.0,0.0,0.0,0.0,0.0,0.0,0.0,0.0,0.0,0.0,0.0,0.0,0.0,0.0,0.0,0.0,0.0,0.0,0.0,0.0,0.0,0.0,0.0,0.0,0.0,0.0,0.0,0.0,0.0,0.0,0.0,0.0,0.0,0.0,0.0,0.0,0.0,0.0,0.0,0.0,0.0,0.0,0.0,0.0,0.0,0.0,0.0,0.0,0.6334,0.6447,0.5547,0.485,0.0,0.0,0.0,0.0,0.0,0.0,0.0,0.0,0.0,0.0,0.0,0.0,0.0,0.0,0.0,0.0,0.0,0.0,0.0,0.0,0.0,0.0,0.0,0.0,0.0,0.0,0.0,0.0,0.0,0.0,0.0,0.0,0.0,0.0,0.0,0.0,0.0,0.0,0.0,0.0,0.0,0.0,0.0,0.0,0.0,0.0,0.0,0.0,0.0,0.0,0.0,0.0,0.0,0.0,0.0,0.0,0.0,0.0,0.0,0.0,0.0,0.0,0.0,0.0,0.0,0.0,0.0,0.0,0.0,0.0,0.0,0.0,0.0,0.0,0.0,0.0,0.0,0.0,0.0,0.0,0.0,0.0,0.0,0.0,0.0,0.0,0.0,0.0,0.0,0.0,0.0,0.0,0.0,0.0,0.0,0.0,0.0,0.0,0.0,0.0,0.0,0.0,0.0,0.0,0.0,0.0,0.0,0.0,0.0,0.0,0.6332,0.6219,0.5944,0.5217,0.4678,0.4367,0.0,0.0,0.0,0.0,0.0,0.0,0.0,0.0,0.0,0.0,0.0,0.0,0.0,0.0,0.0,0.0,0.0,0.0,0.0,0.0,0.0,0.0,0.0,0.0,0.0,0.0,0.0,0.0,0.0,0.0,0.0,0.0,0.0,0.0,0.0,0.0,0.0,0.0,0.0,0.0,0.0,0.0,0.0,0.0,0.0,0.0,0.0,0.0,0.0,0.0,0.0,0.0,0.0,0.0,0.0,0.0,0.0,0.0,0.0,0.0,0.0,0.0,0.0,0.0,0.0,0.0,0.0,0.0,0.0,0.0,0.0,0.0,0.0,0.0,0.0,0.0,0.0,0.0,0.0,0.0,0.0,0.0,0.0,0.0,0.0,0.0,0.0,0.0,0.0,0.0,0.0,0.0,0.0,0.0,0.0,0.0,0.0,0.0,0.0,0.0,0.0,0.0,0.0,0.0,0.0,0.0,0.0,0.0,0.6554,0.6639,0.6248,0.5396,0.516,0.4755,0.0,0.0,0.0,0.0,0.0,0.0,0.0,0.0,0.0,0.0,0.0,0.0,0.0,0.0,0.0,0.0,0.0,0.0,0.0,0.0,0.0,0.0,0.0,0.0,0.0,0.0,0.0,0.0,0.0,0.0,0.0,0.0,0.0,0.0,0.0,0.0,0.0,0.0,0.0,0.0,0.0,0.0,0.0,0.0,0.0,0.0,0.0,0.0,0.0,0.0,0.0,0.0,0.0,0.0,0.0,0.0,0.0,0.0,0.0,0.0,0.0,0.0,0.0,0.0,0.0,0.0,0.0,0.0,0.0,0.0,0.0,0.0,0.0,0.0,0.0,0.0,0.0,0.0,0.0,0.0,0.0,0.0,0.0,0.0,0.0,0.0,0.0,0.0,0.0,0.0,0.0,0.0,0.0,0.0,0.0,0.0,0.0,0.0,0.0,0.0,0.0,0.0,0.0,0.0,0.0,0.0,0.0,0.0,0.0,0.638,0.627,0.5967,0.5509,0.509,0.4574,0.0,0.0,0.0,0.0,0.0,0.0,0.0,0.0,0.0,0.0,0.0,0.0,0.0,0.0,0.0,0.0,0.0,0.0,0.0,0.0,0.0,0.0,0.0,0.0,0.0,0.0,0.0,0.0,0.0,0.0,0.0,0.0,0.0,0.0,0.0,0.0,0.0,0.0,0.0,0.0,0.0,0.0,0.0,0.0,0.0,0.0,0.0,0.0,0.0,0.0,0.0,0.0,0.0,0.0,0.0,0.0,0.0,0.0,0.0,0.0,0.0,0.0,0.0,0.0,0.0,0.0,0.0,0.0,0.0,0.0,0.0,0.0,0.0,0.0,0.0,0.0,0.0,0.0,0.0,0.0,0.0,0.0,0.0,0.0,0.0,0.0,0.0,0.0,0.0,0.0,0.0,0.0,0.0,0.0,0.0,0.0,0.0,0.0,0.0,0.0,0.0,0.0,0.0,0.0,0.0,0.0,0.0,0.0,0.0,0.6402,0.0,0.6036,0.5768,0.5244,0.4684,0.0,0.0,0.0,0.0,0.0,0.0,0.0,0.0,0.0,0.0,0.0,0.0,0.0,0.0,0.0,0.0,0.0,0.0,0.0,0.0,0.0,0.0,0.0,0.0,0.0,0.0,0.0,0.0,0.0,0.0,0.0,0.0,0.0,0.0,0.0,0.0,0.0,0.0,0.0,0.0,0.0,0.0,0.0,0.0,0.0,0.0,0.0,0.0,0.0,0.0,0.0,0.0,0.0,0.0,0.0,0.0,0.0,0.0,0.0,0.0,0.0,0.0,0.0,0.0,0.0,0.0,0.0,0.0,0.0,0.0,0.0,0.0,0.0,0.0,0.0,0.0,0.0,0.0,0.0,0.0,0.0,0.0,0.0,0.0,0.0,0.0,0.0,0.0,0.0,0.0,0.0,0.0,0.0,0.0,0.0,0.0,0.0,0.0,0.0,0.0,0.0,0.0,0.0,0.0,0.0,0.0,0.0,0.0,0.6431,0.669,0.6659,0.6434,0.6093,0.5671,0.5078,0.0,0.0,0.0,0.0,0.0,0.0,0.0,0.0,0.0,0.0,0.0,0.0,0.0,0.0,0.0,0.0,0.0,0.0,0.0,0.0,0.0,0.0,0.0,0.0,0.0,0.0,0.0,0.0,0.0,0.0,0.0,0.0,0.0,0.0,0.0,0.0,0.0,0.0,0.0,0.0,0.0,0.0,0.0,0.0,0.0,0.0,0.0,0.0,0.0,0.0,0.0,0.0,0.0,0.0,0.0,0.0,0.0,0.0,0.0,0.0,0.0,0.0,0.0,0.0,0.0,0.0,0.0,0.0,0.0,0.0,0.0,0.0,0.0,0.0,0.0,0.0,0.0,0.0,0.0,0.0,0.0,0.0,0.0,0.0,0.0,0.0,0.0,0.0,0.0,0.0,0.0,0.0,0.0,0.0,0.0,0.0,0.0,0.0,0.0,0.0,0.0,0.0,0.0,0.0,0.0,0.0,0.0,0.0,0.0,0.6677,0.6117,0.5809,0.5806,0.5343,0.4722,0.0,0.0,0.0,0.0,0.0,0.0,0.0,0.0,0.0,0.0,0.0,0.0,0.0,0.0,0.0,0.0,0.0,0.0,0.0,0.0,0.0,0.0,0.0,0.0,0.0,0.0,0.0,0.0,0.0,0.0,0.0,0.0,0.0,0.0,0.0,0.0,0.0,0.0,0.0,0.0,0.0,0.0,0.0,0.0,0.0,0.0,0.0,0.0,0.0,0.0,0.0,0.0,0.0,0.0,0.0,0.0,0.0,0.0,0.0,0.0,0.0,0.0,0.0,0.0,0.0,0.0,0.0,0.0,0.0,0.0,0.0,0.0,0.0,0.0,0.0,0.0,0.0,0.0,0.0,0.0,0.0,0.0,0.0,0.0,0.0,0.0,0.0,0.0,0.0,0.0,0.0,0.0,0.0,0.0,0.0,0.0,0.0,0.0,0.0,0.0,0.0,0.0,0.0,0.0,0.0,0.0,0.0,0.0,0.0,0.6166,0.5679,0.5379,0.5221,0.4713,0.4299,0.4004,0.0,0.0,0.0,0.0,0.0,0.0,0.0,0.0,0.0,0.0,0.0,0.0,0.0,0.0,0.0,0.0,0.0,0.0,0.0,0.0,0.0,0.0,0.0,0.0,0.0,0.0,0.0,0.0,0.0,0.0,0.0,0.0,0.0,0.0,0.0,0.0,0.0,0.0,0.0,0.0,0.0,0.0,0.0,0.0,0.0,0.0,0.0,0.0,0.0,0.0,0.0,0.0,0.0,0.0,0.0,0.0,0.0,0.0,0.0,0.0,0.0,0.0,0.0,0.0,0.0,0.0,0.0,0.0,0.0,0.0,0.0,0.0,0.0,0.0,0.0,0.0,0.0,0.0,0.0,0.0,0.0,0.0,0.0,0.0,0.0,0.0,0.0,0.0,0.0,0.0,0.0,0.0,0.0,0.0,0.0,0.0,0.0,0.0,0.0,0.0,0.0,0.0,0.0,0.0,0.0,0.0,0.0,0.0,0.5258,0.5342,0.5042,0.4376,0.3863,0.381,0.0,0.0,0.0,0.0,0.0,0.0,0.0,0.0,0.0,0.0,0.0,0.0,0.0,0.0,0.0,0.0,0.0,0.0,0.0,0.0,0.0,0.0,0.0,0.0,0.0,0.0,0.0,0.0,0.0,0.0,0.0,0.0,0.0,0.0,0.0,0.0,0.0,0.0,0.0,0.0,0.0,0.0,0.0,0.0,0.0,0.0,0.0,0.0,0.0,0.0,0.0,0.0,0.0,0.0,0.0,0.0,0.0,0.0,0.0,0.0,0.0,0.0,0.0,0.0,0.0,0.0,0.0,0.0,0.0,0.0,0.0,0.0,0.0,0.0,0.0,0.0,0.0,0.0,0.0,0.0,0.0,0.0,0.0,0.0,0.0,0.0,0.0,0.0,0.0,0.0,0.0,0.0,0.0,0.0,0.0,0.0,0.0,0.0,0.0,0.0,0.0,0.0,0.0,0.0,0.0,0.0,0.0,0.0,0.0,0.4703,0.4292,0.3996,0.3803,0.2978,0.2859,0.0,0.0,0.0,0.0,0.0,0.0,0.0,0.0,0.0,0.0,0.0,0.0,0.0,0.0,0.0,0.0,0.0,0.0,0.0,0.0,0.0,0.0,0.0,0.0,0.0,0.0,0.0,0.0,0.0,0.0,0.0,0.0,0.0,0.0,0.0,0.0,0.0,0.0,0.0,0.0,0.0,0.0,0.0,0.0,0.0,0.0,0.0,0.0,0.0,0.0,0.0,0.0,0.0,0.0,0.0,0.0,0.0,0.0,0.0,0.0,0.0,0.0,0.0,0.0,0.0,0.0,0.0,0.0,0.0,0.0,0.0,0.0,0.0,0.0,0.0,0.0,0.0,0.0,0.0,0.0,0.0,0.0,0.0,0.0,0.0,0.0,0.0,0.0,0.0,0.0,0.0,0.0,0.0,0.0,0.0,0.0,0.0,0.0,0.0,0.0,0.0,0.0,0.0,0.0,0.0,0.0,0.0,0.0,0.6732,0.522,0.3737,0.2872,0.2683,0.2004,0.1936,0.0,0.0,0.0,0.0,0.0,0.0,0.0,0.0,0.0,0.0,0.0,0.0,0.0,0.0,0.0,0.0,0.0,0.0,0.0,0.0,0.0,0.0,0.0,0.0,0.0,0.0,0.0,0.0,0.0,0.0,0.0,0.0,0.0,0.0,0.0,0.0,0.0,0.0,0.0,0.0,0.0,0.0,0.0,0.0,0.0,0.0,0.0,0.0,0.0,0.0,0.0,0.0,0.0,0.0,0.0,0.0,0.0,0.0,0.0,0.0,0.0,0.0,0.0,0.0,0.0,0.0,0.0,0.0,0.0,0.0,0.0,0.0,0.0,0.0,0.0,0.0,0.0,0.0,0.0,0.0,0.0,0.0,0.0,0.0,0.0,0.0,0.0,0.0,0.0,0.0,0.0,0.0,0.0,0.0,0.0,0.0,0.0,0.0,0.0,0.0,0.0,0.0,0.0,0.0,0.0,0.0,0.0,0.0,0.7313,0.6378,0.3766,0.2068,0.1384,0.1007,0.1049,0.0,0.0,0.0,0.0,0.0,0.0,0.0,0.0,0.0,0.0,0.0,0.0,0.0,0.0,0.0,0.0,0.0,0.0,0.0,0.0,0.0,0.0,0.0,0.0,0.0,0.0,0.0,0.0,0.0,0.0,0.0,0.0,0.0,0.0,0.0,0.0,0.0,0.0,0.0,0.0,0.0,0.0,0.0,0.0,0.0,0.0,0.0,0.0,0.0,0.0,0.0,0.0,0.0,0.0,0.0,0.0,0.0,0.0,0.0,0.0,0.0,0.0,0.0,0.0,0.0,0.0,0.0,0.0,0.0,0.0,0.0,0.0,0.0,0.0,0.0,0.0,0.0,0.0,0.0,0.0,0.0,0.0,0.0,0.0,0.0,0.0,0.0,0.0,0.0,0.0,0.0,0.0,0.0,0.0,0.0,0.0,0.0,0.0,0.0,0.0,0.0,0.0,0.0,0.0,0.0,0.0,0.0,0.0,0.7247,0.6928,0.5261,0.3364,0.1227,0.0144,0.0216,0.0,0.0,0.0,0.0,0.0,0.0,0.0,0.0,0.0,0.0,0.0,0.0,0.0,0.0,0.0,0.0,0.0,0.0,0.0,0.0,0.0,0.0,0.0,0.0,0.0,0.0,0.0,0.0,0.0,0.0,0.0,0.0,0.0,0.0,0.0,0.0,0.0,0.0,0.0,0.0,0.0,0.0,0.0,0.0,0.0,0.0,0.0,0.0,0.5594,0.0,0.0,0.0,0.0,0.0,0.0,0.0,0.0,0.0,0.0,0.0,0.0,0.0,0.0,0.0,0.0,0.0,0.0,0.0,0.0,0.0,0.0,0.0,0.0,0.0,0.0,0.0,0.0,0.0,0.0,0.0,0.0,0.0,0.0,0.0,0.0,0.0,0.0,0.0,0.0,0.0,0.0,0.0,0.0,0.0,0.0,0.0,0.0,0.0,0.0,0.0,0.0,0.0,0.0,0.0,0.0,0.0,0.0,0.0,0.7555,0.7876,0.5474,0.3542,0.2291,0.0642,0.0157,0.0,0.0,0.0,0.0,0.0,0.0,0.0,0.0,0.0,0.0,0.0,0.0,0.0,0.0,0.0,0.0,0.0,0.0,0.0,0.0,0.0,0.0,0.0,0.0,0.0,0.0,0.0,0.0,0.0,0.0,0.0,0.0,0.0,0.0,0.0,0.0,0.0,0.0,0.0,0.0,0.0,0.0,0.0,0.0,0.0,0.0,0.0,0.0,0.0,0.0,0.0,0.0,0.0,0.0,0.0,0.0,0.0,0.0,0.0,0.0,0.0,0.0,0.0,0.0,0.0,0.0,0.0,0.0,0.0,0.0,0.0,0.0,0.0,0.0,0.0,0.0,0.0,0.0,0.0,0.0,0.0,0.0,0.0,0.0,0.0,0.0,0.0,0.0,0.0,0.0,0.0,0.0,0.0,0.0,0.0,0.0,0.0,0.0,0.0,0.0,0.0,0.0,0.0,0.0,0.0,0.0,0.0,0.8139,0.8133,0.8726,0.562,0.3874,0.3744,0.1993,0.0914,0.0665,0.0,0.0,0.0,0.0,0.0,0.0,0.0,0.0,0.0,0.0,0.0,0.0,0.0,0.0,0.0,0.0,0.0,0.0,0.0,0.0,0.0,0.0,0.0,0.0,0.0,0.0,0.0,0.0,0.0,0.0,0.0,0.0,0.0,0.0,0.0,0.0,0.0,0.0,0.3708,0.3555,0.0,0.0,0.0,0.0,0.0,0.0,0.0,0.0,0.6002,0.0,0.0,0.0,0.0,0.0,0.0,0.0,0.0,0.0,0.0,0.0,0.0,0.0,0.0,0.0,0.0,0.0,0.0,0.0,0.0,0.0,0.0,0.0,0.0,0.0,0.0,0.0,0.0,0.0,0.0,0.0,0.0,0.0,0.0,0.0,0.0,0.0,0.0,0.0,0.0,0.0,0.0,0.0,0.0,0.0,0.0,0.0,0.0,0.0,0.0,0.0,0.0,0.0,0.0,0.0,0.0,0.8717,0.8855,0.8936,0.8886,0.7705,0.6217,0.4517,0.4107,0.3218,0.1864,0.0,0.0,0.0,0.0,0.0,0.0,0.0,0.0,0.0,0.0,0.0,0.0,0.0,0.0,0.0,0.0,0.0,0.0,0.0,0.0,0.0,0.0,0.0,0.0,0.0,0.0,0.0,0.0,0.0,0.0,0.0,0.0,0.0,0.0,0.0,0.0,0.0,0.0,0.0,0.3713,0.3713,0.0,0.0,0.0,0.0,0.0,0.0,0.0,0.0,0.5957,0.0,0.0,0.0,0.0,0.0,0.0,0.0,0.0,0.0,0.0,0.0,0.0,0.0,0.0,0.0,0.0,0.0,0.0,0.0,0.0,0.0,0.0,0.0,0.0,0.0,0.0,0.0,0.0,0.0,0.0,0.0,0.0,0.0,0.0,0.0,0.0,0.0,0.0,0.0,0.0,0.0,0.0,0.0,0.0,0.0,0.0,0.0,0.0,0.0,0.0,0.0,0.0,0.0,0.0,0.0,0.8801,0.8823,0.8914,0.9039,0.7309,0.5797,0.463,0.369,0.2852,0.0,0.0,0.0,0.0,0.0,0.0,0.0,0.0,0.0,0.0,0.0,0.0,0.0,0.0,0.0,0.0,0.0,0.0,0.0,0.0,0.0,0.0,0.0,0.0,0.0,0.0,0.0,0.0,0.0,0.0,0.0,0.0,0.0,0.0,0.0,0.0,0.0,0.0,0.0,0.0,0.3308,0.3203,0.2853,0.0,0.0,0.0,0.0,0.0,0.0,0.5463,0.5514,0.0,0.0,0.0,0.0,0.0,0.0,0.0,0.0,0.0,0.0,0.0,0.0,0.0,0.0,0.0,0.0,0.0,0.0,0.0,0.0,0.0,0.0,0.0,0.0,0.0,0.0,0.0,0.0,0.0,0.0,0.0,0.0,0.0,0.0,0.0,0.0,0.0,0.0,0.0,0.0,0.0,0.0,0.0,0.0,0.0,0.0,0.0,0.0,0.0,0.0,0.0,0.0,0.0,0.0,0.0,0.8906,0.8826,0.8949,0.917,0.6729,0.5107,0.4608,0.3202,0.237,0.0,0.0,0.0,0.0,0.0,0.0,0.0,0.0,0.0,0.0,0.0,0.0,0.0,0.0,0.0,0.0,0.0,0.0,0.0,0.0,0.0,0.0,0.0,0.0,0.0,0.0,0.0,0.0,0.0,0.0,0.0,0.0,0.0,0.0,0.0,0.0,0.0,0.0,0.0,0.0,0.0,0.3177,0.2609,0.3156,0.0,0.0,0.0,0.0,0.4708,0.4795,0.0,0.0,0.0,0.0,0.0,0.0,0.0,0.0,0.0,0.0,0.0,0.0,0.0,0.0,0.0,0.0,0.0,0.0,0.0,0.0,0.0,0.0,0.0,0.0,0.0,0.0,0.0,0.0,0.0,0.0,0.0,0.0,0.0,0.0,0.0,0.0,0.0,0.0,0.0,0.0,0.0,0.0,0.0,0.0,0.0,0.0,0.0,0.0,0.0,0.0,0.0,0.0,0.0,0.0,0.0,0.0,0.9029,0.9485,0.9599,0.9231,0.7529,0.5949,0.4654,0.4387,0.3636,0.0,0.0,0.0,0.0,0.0,0.0,0.0,0.0,0.0,0.0,0.0,0.0,0.0,0.0,0.0,0.0,0.0,0.0,0.0,0.0,0.0,0.0,0.0,0.0,0.0,0.0,0.0,0.0,0.0,0.0,0.0,0.0,0.0,0.0,0.0,0.0,0.0,0.0,0.0,0.0,0.0,0.4943,0.2875,0.4057,0.474,0.0,0.0,0.4683,0.425,0.4055,0.0,0.0,0.0,0.0,0.0,0.0,0.0,0.0,0.0,0.0,0.0,0.0,0.0,0.0,0.0,0.0,0.0,0.0,0.0,0.0,0.0,0.0,0.0,0.0,0.0,0.0,0.0,0.0,0.0,0.0,0.0,0.0,0.0,0.0,0.0,0.0,0.0,0.0,0.0,0.0,0.0,0.0,0.0,0.0,0.0,0.0,0.0,0.0,0.0,0.0,0.0,0.0,0.0,0.0,0.0,0.95,0.9031,0.9374,0.9345,0.8881,0.7265,0.5708,0.4259,0.4101,0.3404,0.0,0.0,0.0,0.0,0.0,0.0,0.0,0.0,0.0,0.0,0.0,0.0,0.0,0.0,0.0,0.0,0.0,0.0,0.0,0.0,0.0,0.0,0.0,0.0,0.0,0.0,0.0,0.0,0.0,0.0,0.0,0.0,0.0,0.0,0.0,0.0,0.0,0.0,0.0,0.0,0.0,0.0,0.3636,0.4145,0.0,0.0,0.0,0.3992,0.3437,0.0,0.0,0.0,0.0,0.0,0.0,0.0,0.0,0.0,0.0,0.0,0.0,0.0,0.0,0.0,0.0,0.0,0.0,0.0,0.0,0.0,0.0,0.0,0.0,0.0,0.0,0.0,0.0,0.0,0.0,0.0,0.0,0.0,0.0,0.0,0.0,0.0,0.0,0.0,0.0,0.0,0.0,0.0,0.0,0.0,0.0,0.0,0.0,0.0,0.0,0.0,0.0,0.0,0.0,0.0,0.0,0.0,0.9008,0.9199,0.9038,0.846,0.6931,0.5487,0.4233,0.3694,0.0,0.0,0.0,0.0,0.0,0.0,0.0,0.0,0.0,0.0,0.0,0.0,0.0,0.0,0.0,0.0,0.0,0.0,0.0,0.0,0.0,0.0,0.0,0.0,0.0,0.0,0.0,0.5277,0.0,0.0,0.0,0.0,0.0,0.0,0.0,0.0,0.0,0.0,0.0,0.0,0.0,0.0,0.5225,0.422,0.4176,0.3871,0.0,0.0,0.3307,0.2545,0.2583,0.2747,0.0,0.0,0.0,0.0,0.0,0.0,0.0,0.0,0.0,0.0,0.0,0.0,0.0,0.0,0.0,0.0,0.0,0.0,0.0,0.0,0.0,0.0,0.0,0.0,0.0,0.0,0.0,0.0,0.0,0.0,0.0,0.0,0.0,0.0,0.0,0.0,0.0,0.0,0.0,0.0,0.0,0.0,0.0,0.0,0.0,0.0,0.0,0.0,0.0,0.0,0.0,0.0,0.0,0.0,0.0,0.9023,0.9199,0.8951,0.8219,0.6845,0.5736,0.4927,0.3647,0.3121,0.0,0.0,0.0,0.0,0.0,0.0,0.0,0.0,0.0,0.0,0.0,0.0,0.0,0.0,0.0,0.0,0.0,0.0,0.0,0.0,0.0,0.0,0.0,0.0,0.0,0.0,0.0,0.0,0.0,0.0,0.0,0.0,0.0,0.0,0.0,0.0,0.0,0.0,0.0,0.0,0.0,0.646,0.4306,0.4383,0.4135,0.0,0.0,0.2825,0.1615,0.2004,0.2477,0.2608,0.0,0.0,0.0,0.0,0.0,0.0,0.0,0.0,0.0,0.0,0.0,0.0,0.0,0.0,0.0,0.0,0.0,0.0,0.0,0.0,0.0,0.0,0.0,0.0,0.0,0.0,0.0,0.0,0.0,0.0,0.0,0.0,0.0,0.0,0.0,0.0,0.0,0.0,0.0,0.0,0.0,0.0,0.0,0.0,0.0,0.0,0.0,0.0,0.0,0.0,0.0,0.0,0.0,0.943,0.8877,0.9155,0.8885,0.8006,0.6599,0.5573,0.5021,0.3997,0.3456,0.0,0.0,0.0,0.0,0.0,0.0,0.0,0.0,0.0,0.0,0.0,0.0,0.0,0.0,0.0,0.0,0.0,0.0,0.0,0.0,0.0,0.0,0.0,0.0,0.0,0.0,0.0,0.0,0.586,0.6004,0.5955,0.0,0.0,0.0,0.0,0.0,0.0,0.0,0.0,0.0,0.0,0.6866,0.5917,0.5593,0.0,0.0,0.3768,0.3668,0.3223,0.3004,0.3059,0.3632,0.4008,0.0,0.0,0.0,0.0,0.0,0.0,0.0,0.0,0.0,0.0,0.0,0.0,0.0,0.0,0.0,0.0,0.0,0.0,0.0,0.0,0.0,0.0,0.0,0.0,0.0,0.0,0.0,0.0,0.0,0.0,0.0,0.0,0.0,0.0,0.0,0.0,0.0,0.0,0.0,0.0,0.0,0.0,0.0,0.0,0.0,0.0,0.0,0.0,0.0,0.0,0.0,0.0,0.9541,0.899,0.9182,0.8841,0.79,0.6533,0.5551,0.5011,0.4104,0.3598,0.0,0.0,0.0,0.0,0.0,0.0,0.0,0.0,0.0,0.0,0.0,0.0,0.0,0.0,0.0,0.0,0.0,0.0,0.0,0.0,0.0,0.0,0.0,0.0,0.0,0.0,0.0,0.0,0.6197,0.6407,0.6381,0.0,0.0,0.0,0.0,0.0,0.0,0.0,0.0,0.0,0.0,0.7472,0.6834,0.6181,0.5438,0.4578,0.4416,0.4377,0.4226,0.3901,0.3913,0.4538,0.0,0.0,0.0,0.0,0.0,0.0,0.0,0.0,0.0,0.0,0.0,0.0,0.0,0.0,0.0,0.0,0.0,0.0,0.0,0.0,0.0,0.0,0.0,0.0,0.0,0.0,0.0,0.0,0.0,0.0,0.5823,0.0,0.0,0.0,0.0,0.0,0.0,0.0,0.0,0.0,0.0,0.0,0.0,0.0,0.0,0.0,0.0,0.0,0.0,0.0,0.0,0.0,0.0,0.985,0.9375,0.9313,0.8841,0.7922,0.6713,0.5755,0.5041,0.3857,0.3431,0.391,0.0,0.0,0.0,0.0,0.0,0.0,0.0,0.0,0.0,0.0,0.0,0.0,0.0,0.0,0.0,0.0,0.0,0.0,0.0,0.0,0.0,0.0,0.0,0.0,0.0,0.0,0.614,0.6276,0.6465,0.0,0.0,0.0,0.0,0.0,0.0,0.0,0.0,0.0,0.0,0.8247,0.8408,0.6697,0.5902,0.5292,0.4491,0.4665,0.4712,0.4164,0.447,0.4866,0.0,0.0,0.0,0.0,0.0,0.0,0.0,0.0,0.0,0.0,0.0,0.0,0.0,0.0,0.0,0.0,0.0,0.0,0.0,0.0,0.0,0.0,0.0,0.0,0.0,0.0,0.0,0.6502,0.646,0.0,0.0,0.0,0.0,0.0,0.0,0.0,0.0,0.0,0.0,0.0,0.6811,0.6609,0.0,0.0,0.0,0.0,0.0,0.0,0.0,0.0,0.0,0.0,0.0,0.0,0.988,0.9424,0.9339,0.8907,0.8116,0.6795,0.6195,0.6378,0.4956,0.4448,0.5017,0.0,0.0,0.0,0.0,0.0,0.0,0.0,0.0,0.0,0.0,0.0,0.0,0.0,0.0,0.0,0.0,0.0,0.0,0.0,0.0,0.0,0.0,0.0,0.0,0.0,0.6798,0.0,0.0,0.0,0.0,0.0,0.0,0.0,0.0,0.0,0.0,0.0,0.866,0.9108,0.8736,0.8272,0.7796,0.7073,0.6519,0.0,0.0,0.0,0.0,0.0,0.0,0.0,0.0,0.0,0.0,0.0,0.0,0.0,0.0,0.7525,0.6595,0.6749,0.6935,0.6678,0.0,0.0,0.0,0.0,0.0,0.0,0.0,0.0,0.0,0.0,0.0,0.0,0.0,0.0,0.6816,0.0,0.6367,0.0,0.0,0.0,0.0,0.0,0.0,0.0,0.0,0.6755,0.6953,0.7341,0.702,0.703,0.0,0.7253,0.7264,0.0,0.0,0.0,0.0,0.0,0.0,0.0,0.0,1.0056,0.9686,0.9429,0.8793,0.7731,0.6413,0.5838,0.609,0.527,0.4952,0.5231,0.5416,0.5526,0.0,0.0,0.0,0.0,0.0,0.0,0.0,0.0,0.0,0.0,0.0,0.0,0.0,0.0,0.0,0.0,0.0,0.0,0.0,0.0,0.0,0.0,0.0,0.7161,0.0,0.0,0.0,0.0,0.0,0.0,0.0,0.0,0.0,0.835,0.8534,0.8824,0.9233,0.8962,0.8639,0.8318,0.0,0.0,0.0,0.0,0.0,0.0,0.0,0.7175,0.7395,0.7528,0.7614,0.7543,0.7873,0.812,0.8041,0.0,0.0,0.725,0.7418,0.7615,0.7346,0.7719,0.8116,0.8305,0.9577,1.0763,0.0,0.0,0.0,0.0,0.0,0.0,0.0,0.0,0.6722,0.6784,0.0,0.6455,0.0,0.0,0.0,0.0,0.0,0.7442,0.0,0.0,0.7672,0.7658,0.7237,0.7608,0.7712,0.7579,0.7977,0.8123,0.7982,0.7458,0.0,0.0,0.0,0.0,0.0,0.0,1.0413,1.0165,0.9563,0.8476,0.6877,0.5716,0.487,0.4487,0.4843,0.4973,0.472,0.5609,0.5985,0.5736,0.5977,0.0,0.0,0.0,0.0,0.0,0.0,0.0,0.0,0.0,0.0,0.0,0.0,0.0,0.0,0.0,0.0,0.0,0.0,0.0,0.0,0.7099,0.0,0.0,0.0,0.0,0.0,0.0,0.0,0.0,0.0,0.0,0.7462,0.8725,0.9238,0.8006,0.0,0.0,0.0,0.0,0.8037,0.787,0.7976,0.8081,0.8029,0.8227,0.8356,0.838,0.0,0.0,0.8418,0.8422,0.8437,0.8442,0.848,0.8449,0.8469,0.8329,0.825,0.8343,0.8337,0.8314,0.8544,1.0076,1.1559,0.7192,0.0,0.0,0.0,0.0,0.7018,0.695,0.6716,0.6917,0.6936,0.6847,0.7021,0.0,0.0,0.0,0.0,0.0,0.0,0.806,0.8029,0.8282,0.8356,0.8295,0.8358,0.8355,0.8284,0.8328,0.8402,0.8505,0.8536,0.8841,0.9424,0.0,0.0,0.0,0.0,1.0703,0.9914,0.8988,0.8105,0.7224,0.6656,0.634,0.6293,0.6273,0.6153,0.5902,0.6251,0.6355,0.6138,0.6287,0.0,0.0,0.0,0.0,0.0,0.0,0.0,0.0,0.0,0.0,0.0,0.0,0.0,0.0,0.0,0.0,0.0,0.0,0.0,0.7667,0.7616,0.7647,0.0,0.0,0.0,0.0,0.0,0.0,0.0,0.0,0.0,0.896,0.9603,1.037,0.0,0.0,0.9999,0.9458,0.8801,0.8459,0.8624,0.0,0.0,0.0,0.8419,0.8391,0.8391,0.8488,0.8615,0.8802,0.8906,0.8997,0.9088,0.936,0.9591,0.9744,0.9281,0.8854,0.8742,0.9067,0.9355,0.9336,1.0902,1.2415,0.8314,0.799,0.7765,0.7675,0.7728,0.7731,0.7684,0.7634,0.767,0.767,0.7663,0.7766,0.7878,0.802,0.8198,0.0,0.0,0.0,0.8738,0.88,0.8923,0.8984,0.897,0.9099,0.9066,0.8923,0.9033,0.9106,0.9177,0.934,0.9505,0.9661,0.0,0.0,1.1065,1.1126,1.0845,1.0219,0.8885,0.7825,0.7073,0.6657,0.6391,0.6318,0.6931,0.6937,0.6201,0.6565,0.6711,0.6519,0.6554,0.6684,0.0,0.0,0.0,0.0,0.0,0.0,0.0,0.0,0.0,0.0,0.0,0.7327,0.0,0.0,0.0,0.0,0.7618,0.7842,0.7892,0.7836,0.0,0.0,0.0,0.0,0.0,0.0,0.0,0.9367,0.964,0.9909,1.0099,1.0357,1.0731,1.1244,1.0447,0.9773,0.9617,0.0,0.883,0.9128,0.8953,0.883,0.8977,0.8939,0.8893,0.8873,0.8934,0.9073,0.9344,0.9461,0.9583,0.9774,0.9992,1.0216,1.0364,1.0042,0.9696,0.9486,0.9776,1.0042,0.9875,1.132,1.2605,0.9489,0.9451,0.8912,0.8706,0.8751,0.8751,0.8715,0.8663,0.8741,0.8751,0.8739,0.8585,0.8656,0.8928,0.8951,0.0,0.8967,0.9345,0.9517,0.9501,0.962,0.9566,0.9335,0.9801,0.9832,0.9473,0.992,1.0048,0.9918,0.9956,1.0044,1.0268,1.0456,1.101,1.1815,1.1257,1.0927,1.0843,0.917,0.7762,0.667,0.6102,0.5698,0.5452,0.7114,0.7392,0.6059,0.6714,0.7039,0.6817,0.6737,0.6819,0.7002,0.0,0.0,0.0,0.0,0.0,0.0,0.0,0.0,0.0,0.0,0.0,0.0,0.0,0.0,0.0,0.8036,0.0,0.7871,0.8047,0.0,0.0,0.0,0.9221,0.961,0.9828,0.9948,0.9958,0.0,0.0,1.0825,0.0,1.0557,0.9718,0.9393,0.924,0.9253,0.9257,0.9248,0.9484,0.9473,0.9534,0.9629,0.9653,0.9641,0.9641,0.9653,0.9739,0.9957,1.0015,1.0142,1.035,1.0433,1.0471,1.048,1.0701,1.0784,1.0551,1.0495,1.0449,1.0529,1.1487,1.2389,1.0312,1.0387,1.025,0.9814,0.9234,0.9234,0.923,0.9209,0.9223,0.9234,0.923,0.9422,0.9635,0.9941,1.0163,1.0233,1.0242,1.0328,1.0396,1.04,1.0418,1.0312,1.0117,1.024,1.0239,1.0176,1.0289,1.0316,1.0277,1.0495,1.0612,1.066,1.0899,1.1005,1.0959,1.1267,1.114,1.0603,0.9525,0.8579,0.7822,0.7209,0.7225,0.7834,0.8149,0.8005,0.7375,0.7531,0.7411,0.6907,0.6848,0.6956,0.7229,0.742,0.0,0.0,0.0,0.0,0.0,0.0,0.0,0.0,0.0,0.8124,0.8003,0.0,0.8342,0.0,0.8459,0.8905,0.9271,0.9375,0.0,0.0,0.9647,0.9787,1.0035,1.0248,1.0377,1.0431,1.058,1.0726,1.0891,1.0721,1.0567,1.0488,1.0466,1.0538,1.0669,1.0195,0.9927,1.0099,1.0138,1.0164,1.0207,1.0216,1.0229,1.0216,1.0196,1.0236,1.029,1.031,1.0388,1.0659,1.0708,1.0841,1.1161,1.1289,1.1375,1.1432,1.122,1.0998,1.1047,1.1873,1.2592,1.1109,1.1103,1.1103,1.0822,1.0373,1.0213,1.0159,1.0155,1.0212,1.0233,1.0229,1.0301,1.0444,1.0634,1.0762,1.0839,1.0835,1.0809,1.0835,1.0835,1.0835,1.0773,1.0668,1.0794,1.0799,1.0719,1.0814,1.0848,1.0761,1.0904,1.0973,1.0973,1.112,1.108,1.0887,1.123,1.1221,1.0816,0.9624,0.879,0.829,0.7842,0.8006,0.878,0.8709,0.8464,0.8045,0.7976,0.7772,0.747,0.7367,0.7415,0.7545,0.7758,0.7965,0.0,0.0,0.0,0.0,0.0,0.0,0.0,0.0,0.0,0.0,0.0,0.8979,0.8878,0.9194,0.9534,0.9823,0.9875,0.993,1.0023,1.0104,1.0247,1.0482,1.0691,1.0837,1.0863,1.0957,1.1052,1.1028,1.0912,1.089,1.1084,1.1137,1.1096,1.0845,1.0492,1.0265,1.0366,1.0413,1.0423,1.0502,1.0615,1.0668,1.0668,1.0668,1.0718,1.0819,1.0844,1.0919,1.1171,1.1242,1.1304,1.1603,1.1626,1.1669,1.1746,1.1841,1.1768,1.1523,1.1919,1.2308,1.1838,1.1635,1.1635,1.1622,1.1568,1.1322,1.1208,1.1173,1.1285,1.1327,1.1345,1.119,1.1102,1.108,1.1132,1.1132,1.1158,1.1158,1.1132,1.1158,1.1132,1.1145,1.1118,1.1351,1.135,1.1166,1.1394,1.1377,1.1198,1.1227,1.1236,1.1236,1.126,1.126,1.1236,1.1236,1.1197,1.1149,0.9727,0.8859,0.8612,0.8347,0.8484,0.9039,0.9059,0.8822,0.8387,0.8211,0.8128,0.8098,0.7986,0.7941,0.796,0.8156,0.8263,0.0,0.8541,0.0,0.0,0.0,0.0,0.0,0.0,0.0,0.0,0.951,0.9703,0.9925,0.997,0.9979,1.0029,1.0052,1.0146,1.031,1.0465,1.067,1.0915,1.1109,1.1236,1.1236,1.1255,1.1274,1.1283,1.1274,1.1354,1.1494,1.1513,1.1333,1.0776,1.062,1.0654,1.0582,1.0587,1.0734,1.0877,1.1002,1.1096,1.1105,1.1117,1.1196,1.138,1.1514,1.1648,1.1855,1.199,1.2045,1.2053,1.2114,1.2098,1.2229,1.2588,1.2677,1.2118,1.1986,1.1895,1.2188,1.1842,1.1838,1.1773,1.1596,1.1759,1.1705,1.1509,1.1533,1.1543,1.1566,1.172,1.1719,1.1579,1.1786,1.1892,1.1892,1.1892,1.1892,1.1892,1.1897,1.1799,1.1641,1.1714,1.1611,1.1423,1.1469,1.1406,1.1198,1.1373,1.1433,1.1438,1.1598,1.1619,1.1438,0.0,0.0,0.0,1.0355,0.9961,0.969,0.9447,0.9361,0.9477,0.9357,0.0,0.8644,0.8509,0.8333,0.8102,0.8072,0.0,0.0,0.0,0.0,0.0,0.0,0.0,0.0,0.0,0.0,0.0,0.9905,0.9902,0.978,0.9803,0.9906,1.0063,1.0256,1.0452,1.0625,1.0838,1.0959,1.1007,1.104,1.1088,1.1146,1.1326,1.1433,1.1458,1.1595,1.1694,1.168,1.1699,1.1709,1.1725,1.1761,1.1695,1.1555,1.1485,1.1515,1.1546,1.1466,1.1529,1.1602,1.1596,1.1652,1.1662,1.1662,1.1671,1.1763,1.2151,1.2452,1.2565,1.2895,1.3225,1.3425,1.3493,1.3467,1.3677,1.3811,1.363,1.2755,1.255,1.2519,1.2768,0.0,1.2489,1.2375,0.0,1.2326,1.2238,1.2001,1.2005,1.2001,1.2005,1.2141,1.2136,1.2048,1.2182,1.2263,1.2236,1.2258,1.2231,1.2258,1.2258,1.2175,1.2093,1.2098,1.1989,1.1801,1.1796,1.1683,1.1515,1.1609,1.1641,1.1666,1.1744,1.1765,1.1645,1.1641,1.1435,1.1002,1.0605,1.0335,1.0191,0.9801,0.9563,0.9494,0.0,0.0,0.0,0.0,0.0,0.0,0.0,0.0,0.0,0.0,0.0,0.9294,0.9558,0.9718,0.98,1.0025,1.0239,1.0353,1.0544,1.0626,1.0415,1.0493,1.057,1.0642,1.0869,1.1024,1.1146,1.1339,1.1501,1.1501,1.1501,1.1501,1.151,1.16,1.1641,1.1645,1.1751,1.1817,1.1817,1.1817,1.1839,1.1933,1.1952,1.2011,1.2055,1.1919,1.1817,1.1822,1.189,1.1921,1.1961,1.2046,1.2093,1.2098,1.2098,1.223,1.25,1.2791,1.3087,1.3367,1.3677,1.391,1.4007,1.405,1.4056,1.4191,1.4412,1.4432,1.3915,1.363,1.3446,1.3349,1.3155,1.315,1.3032,1.2847,1.2847,1.2715,1.2517,0.0,0.0,0.0,1.2382,1.2382,1.2382,1.2382,1.2382,1.2382,1.2382,1.2382,1.2382,1.2382,1.2382,1.2382,1.2382,1.231,1.209,1.2085,1.2004,1.1827,1.1824,1.1843,1.1853,1.1881,1.1907,1.1848,1.181,1.1622,1.1301,1.0836,1.0563,1.0489,1.007,0.9785,0.9647,0.961,0.9487,0.929,0.9253,0.9265,0.935,0.9331,0.9482,0.9754,0.9783,0.9849,1.0091,1.0103,1.0193,1.0327,1.0536,1.075,1.0971,1.1179,1.1217,1.1023,1.1156,1.1269,1.1298,1.1443,1.1572,1.1572,1.1713,1.1817,1.1817,1.1895,1.1968,1.1972,1.2114,1.2232,1.2185,1.2255,1.2187,1.2154,1.2232,1.2223,1.2307,1.2484,1.2537,1.2594,1.2286,1.1938,1.1952,1.2079,1.2164,1.2187,1.2277,1.2432,1.2566,1.258,1.2767,1.3283,1.3559,1.3797,1.4212,1.4412,1.453,1.4541,1.4583,1.4487,1.4519,1.4848,1.5143,1.5116,1.4809,1.4471,1.3523,1.3343,1.3343,1.325,1.3079,1.3055,1.3036,1.2975,1.2569,1.2387,1.2382,1.2382,1.2382,1.2382,1.2382,1.2382,1.2382,1.2382,1.2382,0.0,1.2382,1.2382,1.2382,1.2382,1.2305,1.21,1.209,1.1999,1.1834,1.198,1.207,1.2088,1.2239,1.2235,1.2065,1.1886,1.1763,1.1707,1.1419,1.1141,1.0909,1.0832,1.0719,1.0536,1.0387,1.0208,0.9988,0.984,0.9948,1.0292,1.0309,1.0434,1.0748,1.0761,1.0805,1.0847,1.0903,1.0995,1.1202,1.1297,1.1444,1.1653,1.1702,1.1647,1.1453,1.1453,1.1523,1.1704,1.1751,1.1749,1.1749,1.1838,1.1923,1.1909,1.2292,1.2576,1.2601,1.3138,1.3535,1.3509,1.3742,1.3596,1.3179,1.3484,1.3532,1.3298,1.3417,1.3831,1.3652,1.2984,1.2383,1.2324,1.2348,1.2367,1.2466,1.2385,1.2686,1.3093,1.3179,1.3364,1.3954,1.4363,1.4686,1.488,1.525,1.5538,1.5592,1.5678,1.5577,1.5556,1.5681,1.5761,1.5758,1.5678,1.5472,1.3666,1.3556,1.3551,1.3433,1.323,1.3145,1.3093,1.3079,1.2866,1.2715,1.2621,1.2621,1.2527,1.2387,1.2382,1.2382,1.2382,1.2382,1.2382,1.2382,1.2382,1.2382,1.2382,1.2382,1.2367,1.2277,1.2272,1.2198,1.2145,1.2225,1.2272,1.2282,1.2371,1.234,1.2277,1.2178,1.2126,1.2121,1.167,1.1351,1.1222,1.1092,1.0949,1.0865,1.0794,1.071,1.0593,1.0534,1.0594,1.0771,1.078,1.091,1.1182,1.1222,1.1274,1.1425,1.145,1.1513,1.1606,1.1963,1.2184,1.2277,1.256,1.2601,1.2342,1.1896,1.1718,1.1813,1.2172,1.2449,1.2459,1.2852,1.3102,1.3102,1.3372,1.3504,1.3567,1.38,1.4061,1.4072,1.4126,1.4089,1.3824,1.404,1.4142,1.3851,1.4067,1.4202,1.4229,1.3792,1.3386,1.3386,1.3386,1.3386,1.3364,1.3386,1.3494,1.377,1.3797,1.4035,1.4519,1.488,1.5122,1.5437,1.5731,1.5859,1.5897,1.5885,1.594,1.6112,1.613,1.6172,1.6299,1.6332,1.6059,1.3688,1.3688,1.3688,1.3628,1.3443,1.3277,1.3235,1.3235,1.324,1.3122,1.2942,1.2842,1.27,1.2489,1.2437,1.2382,1.2382,1.2382,1.2382,1.2382,1.2382,1.2382,1.2382,1.2382,1.2382,1.2382,1.2382,1.2382,1.2382,1.2382,1.2382,1.2382,1.2382,1.2382,1.2382,1.2382,1.2433,1.2461,1.1977,1.1691,1.1619,1.1435,1.1286,1.1241,1.1241,1.1219,1.1174,1.1196,1.1192,1.1237,1.1241,1.1364,1.1614,1.1619,1.1719,1.1902,1.1886,1.1862,1.1893,1.2488,1.2851,1.2851,1.333,1.3534,1.3266,1.2707,1.2273,1.224,1.2824,1.3286,1.3328,1.3773,1.4196,1.4196,1.4304,1.4358,1.4379,1.4487,1.4573,1.4573,1.4618,1.4667,1.4527,1.4652,1.4783,1.4765,1.4683,1.4683,1.4656,1.4722,1.4767,1.4701,1.4505,1.4304,1.4364,1.4352,1.4412,1.4516,1.4587,1.4865,1.5274,1.5387,1.5544,1.5979,1.6076,1.6121,1.6112,1.6091,1.6181,1.6338,1.6374,1.6435,1.661,1.6652,1.651,1.3688,1.3688,1.3688,1.3679,1.3655,1.3627,1.3643,1.3618,1.3627,1.3548,1.3325,1.2965,1.2795,1.2738,1.2508,1.2433,1.2405,1.2387,1.2396,1.2418,1.2382,1.2382,1.2387,1.2382,1.2382,1.2382,1.2382,1.2391,1.2433,1.2433,1.2391,1.2382,1.2382,1.2428,1.2396,1.2396,1.254,1.2762,1.2701,1.256,1.2312,1.2276,1.2192,1.2009,1.1982,1.1911,1.1744,1.1714,1.1812,1.1981,1.1987,1.2093,1.2275,1.2303,1.233,1.2352,1.2165,1.2084,1.2156,1.2795,1.3271,1.3281,1.3853,1.4148,1.4105,1.404,1.3756,1.3443,1.375,1.4035,1.4078,1.4207,1.4331,1.4385,1.4697,1.4928,1.5005,1.5405,1.5752,1.5725,1.5841,1.591,1.545,1.5843,1.6234,1.5944,1.5893,1.5898,1.5916,1.6091,1.6227,1.6132,1.5449,1.4822,1.492,1.4928,1.5149,1.5529,1.563,1.582,1.6164,1.6383,1.6554,1.6382,1.6555,1.6543,1.6561,1.6622,1.6598,1.6634,1.667,1.6688,1.6706,1.6748,1.6674,1.3688,1.3688,1.3688,1.3688,1.3688,1.3688,1.3688,1.3688,1.3688,1.3641,1.3567,1.3287,1.3093,1.297,1.2847,1.281,1.281,1.281,1.2771,1.2639,1.263,1.2564,1.2391,1.2382,1.2382,1.2382,1.2382,1.2475,1.263,1.2748,1.281,1.281,1.281,1.281,1.2805,1.2814,1.2857,1.297,1.2975,1.2928,1.2824,1.281,1.2776,1.2701,1.2687,1.2654,1.2596,1.2582,1.2597,1.2682,1.2691,1.2724,1.2833,1.3141,1.3169,1.2861,1.2734,1.2848,1.3208,1.3703,1.4171,1.4489,1.51,1.5318,1.4991,1.5389,1.5426,1.4889,1.4718,1.4659,1.4719,1.4976,1.5185,1.524,1.5545,1.5759,1.5786,1.6114,1.6368,1.638,1.6465,1.6454,1.6259,1.6454,1.6646,1.6577,1.6559,1.6531,1.6549,1.664,1.6761,1.6853,1.6425,1.6111,1.5998,1.5992,1.6116,1.6251,1.6324,1.6498,1.6606,1.67,1.6694,1.6712,1.6736,1.6736,1.667,1.6712,1.673,1.6857,1.7092,1.7194,1.7165,1.7165,1.7188,1.3688,1.3688,1.3688,1.3688,1.3688,1.3688,1.3688,1.3688,1.3688,1.3778,1.3938,1.3794,1.3737,1.3726,1.3327,1.3093,1.3127,1.3265,1.3268,1.3156,1.3238,1.3093,1.2777,1.2683,1.261,1.2526,1.2508,1.2644,1.2871,1.3018,1.3093,1.3093,1.3093,1.3093,1.3093,1.3093,1.3126,1.3179,1.3183,1.3212,1.3259,1.3268,1.3212,1.3112,1.3093,1.3093,1.3093,1.3093,1.3093,1.3093,1.3265,1.3345,1.3379,1.3768,1.3791,1.3403,1.3345,1.3607,1.4218,1.4635,1.5044,1.5482,1.608,1.6218,1.5965,1.6335,1.6486,1.6086,1.57,1.5482,1.5518,1.5871,1.6109,1.6127,1.6308,1.6416,1.6429,1.6598,1.6682,1.67,1.6742,1.6839,1.6887,1.6869,1.6821,1.6815,1.6809,1.6809,1.6833,1.6881,1.7002,1.72,1.7195,1.7094,1.6954,1.6868,1.694,1.6911,1.6925,1.6903,1.6911,1.6917,1.6917,1.7062,1.6948,1.693,1.7014,1.699,1.6936,1.7153,1.7363,1.7484,1.7412,1.7461,1.7467,1.3688,1.3718,1.3688,1.3688,1.3688,1.3688,1.3688,1.3688,1.3718,1.4013,1.448,1.4555,1.4906,1.5274,1.39,1.3131,1.3222,1.3779,1.3987,1.3988,1.4298,1.4188,1.3636,1.3394,1.3098,1.2937,1.2966,1.3025,1.316,1.316,1.3093,1.3169,1.3188,1.3141,1.3184,1.3169,1.3207,1.3387,1.3406,1.3486,1.3647,1.3641,1.3452,1.3169,1.3107,1.3126,1.3117,1.3103,1.3136,1.3131,1.3684,1.3982,1.3982,1.4011,1.3997,1.4016,1.3982,1.4272,1.4946,1.5423,1.5733,1.5873,1.6368,1.666,1.6604,1.6686,1.6716,1.6662,1.6594,1.6552,1.654,1.6536,1.6592,1.6604,1.6658,1.6682,1.6682,1.6736,1.6706,1.6767,1.6948,1.7135,1.7399,1.7254,1.7105,1.7074,1.7074,1.7074,1.7105,1.7296,1.7417,1.7442,1.7436,1.7449,1.7436,1.7322,1.7387,1.7369,1.728,1.7411,1.746,1.7449,1.7418,1.74,1.734,1.734,1.7412,1.7424,1.7376,1.743,1.7418,1.7479,1.7485,1.7485,1.7485,1.4669,1.4247,1.3868,1.3688,1.3688,1.3688,1.3688,1.3744,1.4102,1.4391,1.4659,1.5056,1.5383,1.5556,1.4983,1.47,1.4729,1.4958,1.4961,1.4832,1.4802,1.4614,1.4293,1.4181,1.4071,1.4009,1.4127,1.4313,1.4502,1.4617,1.47,1.4607,1.428,1.4069,1.3986,1.3668,1.3538,1.357,1.3614,1.3821,1.4147,1.3469,1.3182,1.3466,1.3486,1.3373,1.3153,1.3746,1.425,1.4671,1.4929,1.4836,1.4445,1.4387,1.4767,1.5478,1.5245,1.5274,1.5874,1.5977,1.62,1.66,1.6834,1.6954,1.6978,1.7098,1.7201,1.7218,1.7224,1.7201,1.7157,1.6911,1.67,1.6718,1.6851,1.6954,1.699,1.7121,1.7195,1.7213,1.7327,1.7411,1.7424,1.7429,1.7375,1.7346,1.7346,1.7334,1.7352,1.743,1.7485,1.7485,1.7485,1.7485,1.7479,1.7473,1.7473,1.7473,1.7461,1.7449,1.7473,1.7479,1.7443,1.7436,1.7479,1.7479,1.7461,1.7467,1.7485,1.7485,1.7485,1.7485,1.7485,1.7485,1.7485,1.4907,1.4336,1.4068,1.4013,1.4018,1.4222,1.4316,1.4376,1.4724,1.5016,1.5289,1.5709,1.6005,1.6188,1.6218,1.6218,1.6188,1.6005,1.5761,1.5572,1.5477,1.5305,1.5005,1.4884,1.4855,1.4851,1.5084,1.5261,1.5407,1.5515,1.5596,1.5537,1.5116,1.4927,1.4843,1.449,1.4311,1.4316,1.4316,1.452,1.4753,1.4093,1.367,1.3874,1.4127,1.4008,1.3426,1.4386,1.4992,1.5264,1.5483,1.5388,1.4992,1.4932,1.5378,1.6301,1.6124,1.6159,1.6697,1.664,1.675,1.719,1.7219,1.7219,1.726,1.7382,1.7467,1.7485,1.7485,1.7485,1.7418,1.7194,1.696,1.6972,1.7111,1.7213,1.7231,1.7364,1.7455,1.7455,1.7455,1.7479,1.7485,1.7479,1.7473,1.7485,1.7485,1.7485,1.7485,1.7485,1.7485,1.7485,1.7485,1.7485,1.7485,1.7485,1.7485,1.7485,1.7485,1.7485,1.7485,1.7485,1.7485,1.7485,1.7485,1.7485,1.7485,1.7485,1.7485,1.7485,1.7485,1.7485,1.7485,1.7485,1.7485,1.4336,1.4018,1.4366,1.4629,1.4694,1.5175,1.5512,1.5383,1.5537,1.5828,1.6118,1.6449,1.6803,1.7309,1.7279,1.7397,1.7214,1.6744,1.6394,1.6195,1.646,1.6325,1.5828,1.5611,1.5496,1.5487,1.5574,1.5658,1.5747,1.5793,1.5774,1.569,1.5655,1.5596,1.5601,1.5477,1.5477,1.5423,1.5418,1.5512,1.5572,1.5388,1.4897,1.4371,1.5016,1.4932,1.3844,1.4962,1.5413,1.4986,1.5413,1.5626,1.568,1.5626,1.5887,1.6449,1.6508,1.6832,1.7332,1.7408,1.7355,1.7436,1.749,1.7436,1.7466,1.7461,1.7485,1.7485,1.7485,1.7485,1.7485,1.746,1.7429,1.749,1.743,1.743,1.7455,1.7473,1.7485,1.7485,1.7485,1.7485,1.7485,1.7485,1.7485,1.7485,1.7485,1.7485,1.7485,1.7485,1.7485,1.7485,1.7485,1.7485,1.7485,1.7485,1.7485,1.7485,1.7485,1.7485,1.7485,1.7485,1.7485,1.7485,1.7485,1.7485,1.7485,1.7485,1.7485,1.7485,1.7485,1.7485,1.7485,1.7485,1.7485,1.5413,1.5591,1.5383,1.5299,1.5299,1.5507,1.5359,1.5051,1.5828,1.6094,1.607,1.6803,1.7309,1.7455,1.7485,1.7485,1.7479,1.7273,1.7144,1.7031,1.6994,1.6874,1.6685,1.662,1.6648,1.6792,1.6879,1.6897,1.6867,1.6867,1.6897,1.6838,1.6419,1.6242,1.6188,1.5833,1.5601,1.5601,1.5601,1.5774,1.6065,1.5348,1.4981,1.5154,1.5456,1.5397,1.507,1.5793,1.6331,1.6502,1.6797,1.692,1.6832,1.6478,1.6537,1.7067,1.7191,1.7244,1.7426,1.7485,1.7485,1.7485,1.7485,1.7485,1.7485,1.7485,1.7485,1.7485,1.7485,1.7485,1.7485,1.7485,1.7485,1.7485,1.7485,1.7485,1.7485,1.7485,1.7485,1.7485,1.7485,1.7485,1.7485,1.7485,1.7485,1.7485,1.7485,1.7485,1.7485,1.7485,1.7485,1.7485,1.7485,1.7485,1.7485,1.7485,1.7485,1.7485,1.7485,1.7485,1.7485,1.7485,1.7485,1.7485,1.7485,1.7485,1.7485,1.7485,1.7485,1.7485,1.7485,1.7485,1.7485,1.7485,1.7485,1.6041,1.6153,1.6011,1.5917,1.5981,1.6188,1.6065,1.5817,1.6502,1.6655,1.6572,1.7132,1.7485,1.7485,1.7485,1.7485,1.7485,1.7485,1.7485,1.7443,1.7213,1.7098,1.7111,1.723,1.731,1.7484,1.7485,1.7485,1.7485,1.7485,1.7485,1.7391,1.7067,1.6867,1.6861,1.6513,1.6301,1.6307,1.6331,1.6478,1.6655,1.6083,1.5871,1.6231,1.6319,1.6284,1.6319,1.6679,1.692,1.7038,1.6926,1.6891,1.7038,1.6714,1.6803,1.7338,1.7485,1.7485,1.7485,1.7485,1.7485,1.7485,1.7485,1.7485,1.7485,1.7485,1.7485,1.7485,1.7485,1.7485,1.7485,1.7485,1.7485,1.7485,1.7485,1.7485,1.7485,1.7485,1.7485,1.7485,1.7485,1.7485,1.7485,1.7485,1.7485,1.7485,1.7485,1.7485,1.7485,1.7485,1.7485,1.7485,1.7485,1.7485,1.7485,1.7485,1.7485,1.7485,1.7485,1.7485,1.7485,1.7485,1.7485,1.7485,1.7485,1.7485,1.7485,1.7485,1.7485,1.7485,1.7485,1.7485,1.7485,1.7485,1.7485,1.6212,1.5809,1.6301,1.6567,1.6626,1.7132,1.7279,1.7303,1.7449,1.7361,1.7332,1.742,1.7485,1.7485,1.7485,1.7485,1.7485,1.7485,1.7485,1.7424,1.7255,1.7153,1.7212,1.7352,1.7449,1.7479,1.7485,1.7485,1.7485,1.7485,1.7485,1.7485,1.742,1.7479,1.7367,1.7449,1.7338,1.7309,1.7361,1.7391,1.7426,1.7391,1.7361,1.7391,1.7367,1.7332,1.7303,1.7332,1.7156,1.662,1.6272,1.6301,1.6508,1.6567,1.692,1.7449,1.7485,1.7485,1.7485,1.7485,1.7485,1.7485,1.7485,1.7485,1.7485,1.7485,1.7485,1.7485,1.7485,1.7485,1.7485,1.7485,1.7485,1.7485,1.7485,1.7485,1.7485,1.7485,1.7485,1.7485,1.7485,1.7485,1.7485,1.7485,1.7485,1.7485,1.7485,1.7485,1.7485,1.7485,1.7485,1.7485,1.7485,1.7485,1.7485,1.7485,1.7485,1.7485,1.7485,1.7485,1.7485,1.7485,1.7485,1.7485,1.7485,1.7485,1.7485,1.7485,1.7485,1.7485,1.7485,1.7485,1.7485,1.7485,1.7485,1.7126,1.7038,1.7185,1.725,1.7244,1.7455,1.7214,1.6861,1.7303,1.7244,1.6979,1.7309,1.7485,1.7485,1.7485,1.7485,1.7485,1.7485,1.7485,1.7473,1.7424,1.7382,1.7411,1.7443,1.7485,1.7485,1.7485,1.7485,1.7485,1.7485,1.7485,1.7485,1.7485,1.7455,1.7485,1.742,1.7485,1.7485,1.7479,1.7479,1.7485,1.7485,1.7485,1.7485,1.7485,1.7485,1.7485,1.7485,1.7455,1.7273,1.7097,1.7044,1.7191,1.7185,1.7273,1.742,1.7485,1.7485,1.7485,1.7485,1.7485,1.7485,1.7485,1.7485,1.7485,1.7485,1.7485,1.7485,1.7485,1.7485,1.7485,1.7485,1.7485,1.7485,1.7485,1.7485,1.7485,1.7485,1.7485,1.7485,1.7485,1.7485,1.7485,1.7485,1.7485,1.7485,1.7485,1.7485,1.7485,1.7485,1.7485,1.7485,1.7485,1.7485,1.7485,1.7485,1.7485,1.7485,1.7485,1.7485,1.7485,1.7485,1.7485,1.7485,1.7485,1.7485,1.7485,1.7485,1.7485,1.7485,1.7485,1.7485,1.7485,1.7485,1.7485,1.7587,1.7485,1.7485,1.7485,1.7485,1.7485,1.7273,1.7038,1.7309,1.7303,1.7067,1.7309,1.7485,1.7485,1.7485,1.7485,1.7485,1.7485,1.7485,1.7485,1.7473,1.7473,1.7479,1.7485,1.7485,1.7485,1.7485,1.7485,1.7485,1.7485,1.7485,1.7485,1.7485,1.7238,1.6649,1.6708,1.6703,1.6673,1.6708,1.6915,1.7426,1.7485,1.7485,1.7485,1.7485,1.7485,1.7485,1.7485,1.7485,1.7485,1.7485,1.7485,1.7485,1.7485,1.7485,1.7485,1.7485,1.7485,1.7485,1.7485,1.7485,1.7485,1.7485,1.7485,1.7485,1.7485,1.7485,1.7485,1.7485,1.7485,1.7485,1.7485,1.7485,1.7485,1.7485,1.7485,1.7485,1.7485,1.7485,1.7485,1.7485,1.7485,1.7485,1.7485,1.7485,1.7485,1.7485,1.7485,1.7485,1.7485,1.7485,1.7485,1.7485,1.7485,1.7485,1.7485,1.7485,1.7485,1.7485,1.7485,1.7485,1.7485,1.7485,1.7485,1.7485,1.7485,1.7485,1.7485,1.7485,1.7485,1.7485,1.7485,1.7485,1.7485,1.7485,1.775,1.7485,1.7485,1.7485,1.7485,1.7485,1.7455,1.7479,1.7485,1.7479,1.7449,1.7485,1.7485,1.7485,1.7485,1.7485,1.7485,1.7485,1.7485,1.742,1.7303,1.7214,1.7485,1.7485,1.7485,1.7485,1.7485,1.7485,1.7485,1.7485,1.7485,1.7485,1.7485,1.6944,1.6437,1.6083,1.5841,1.6077,1.6231,1.6679,1.7332,1.7485,1.7485,1.7485,1.7485,1.7485,1.7485,1.7485,1.7485,1.7485,1.7485,1.7485,1.7485,1.7485,1.7485,1.7485,1.7485,1.7485,1.7485,1.7485,1.7485,1.7485,1.7485,1.7485,1.7485,1.7485,1.7485,1.7485,1.7485,1.7485,1.7485,1.7485,1.7485,1.7485,1.7485,1.7485,1.7485,1.7485,1.7485,1.7485,1.7485,1.7485,1.7485,1.7485,1.7485,1.7485,1.7485,1.7485,1.7485,1.7485,1.7485,1.7485,1.7485,1.7485,1.7485,1.7485,1.7485,1.7485,1.7485,1.7485,1.7485,1.7485,1.7485,1.7485,1.7485,1.7485,1.7485,1.7485,1.7485,1.7485,1.7485,1.7485,1.7485,1.7485,1.7485,1.775,1.7485,1.7485,1.7485,1.7485,1.7485,1.7449,1.742,1.742,1.7303,1.7449,1.7449,1.742,1.742,1.7303,1.7485,1.7391,1.742,1.7485,1.7361,1.6378,1.6703,1.7244,1.7391,1.7479,1.7485,1.7485,1.7455,1.7426,1.7332,1.7455,1.7361,1.7361,1.7326,1.6944,1.6673,1.7062,1.7062,1.7003,1.7038,1.7332,1.7485,1.7485,1.7485,1.7485,1.7485,1.7485,1.7485,1.7485,1.7485,1.7485,1.7485,1.7485,1.7485,1.7485,1.7485,1.7485,1.7485,1.7485,1.7485,1.7485,1.7485,1.7485,1.7485,1.7485,1.7485,1.7485,1.7485,1.7485,1.7485,1.7485,1.7485,1.7485,1.7485,1.7485,1.7485,1.7485,1.7485,1.7485,1.7485,1.7485,1.7485,1.7485,1.7485,1.7485,1.7485,1.7485,1.7485,1.7485,1.7485,1.7485,1.7485,1.7485,1.7485,1.7485,1.7485,1.7485,1.7485,1.7485,1.7485,1.7485,1.7485,1.7485,1.7485,1.7485,1.7485,1.7485,1.7485,1.7485,1.7485,1.7485,1.7485,1.7485,1.7485,1.7485,1.7576,1.6781,1.6666,1.626,1.5747,1.5723,1.5723,1.5717,1.5723,1.6077,1.6378,1.6048,1.6048,1.6496,1.6053,1.5959,1.6703,1.7273,1.7485,1.7361,1.6767,1.6555,1.6437,1.6708,1.6826,1.725,1.6826,1.6649,1.662,1.6555,1.6225,1.5965,1.685,1.6591,1.6048,1.6349,1.6496,1.6496,1.6614,1.6856,1.7391,1.7485,1.7485,1.7485,1.7485,1.7485,1.7485,1.7485,1.7485,1.7485,1.7485,1.7485,1.7485,1.7485,1.7485,1.7485,1.7485,1.7485,1.7485,1.7485,1.7485,1.7485,1.7485,1.7485,1.7485,1.7485,1.7485,1.7485,1.7485,1.7485,1.7485,1.7485,1.7485,1.7485,1.7485,1.7485,1.7485,1.7485,1.7485,1.7485,1.7485,1.7485,1.7485,1.7485,1.7485,1.7485,1.7485,1.7485,1.7485,1.7485,1.7485,1.7485,1.7485,1.7485,1.7485,1.7485,1.7485,1.7485,1.7485,1.7485,1.7485,1.7485,1.7485,1.7485,1.7485,1.7485,1.7485,1.7485,1.7485,1.7485,1.7485,1.7485,1.7485,1.7485,1.7485,1.6886,1.5661,1.5435,1.4679,1.3789,1.3789,1.3874,1.3784,1.3699,1.453,1.4976,1.4113,1.4589,1.4917,1.4321,1.4441,1.5243,1.5811,1.5989,1.6437,1.5959,1.5599,1.5332,1.5391,1.5723,1.6708,1.5811,1.5337,1.5302,1.5302,1.5124,1.4589,1.6018,1.6166,1.4798,1.4976,1.5569,1.5391,1.5332,1.59,1.6826,1.7062,1.7126,1.7485,1.7485,1.7485,1.7485,1.7485,1.7485,1.7485,1.7485,1.7485,1.7485,1.7485,1.7485,1.7485,1.7485,1.7485,1.7485,1.7485,1.7485,1.7485,1.7485,1.7485,1.7485,1.7485,1.7485,1.7485,1.7485,1.7485,1.7485,1.7485,1.7485,1.7485,1.7485,1.7485,1.7485,1.7485,1.7485,1.7485,1.7485,1.7485,1.7485,1.7485,1.7485,1.7485,1.7485,1.7485,1.7485,1.7485,1.7485,1.7485,1.7485,1.7485,1.7485,1.7485,1.7485,1.7485,1.7485,1.7485,1.7485,1.7485,1.7485,1.7485,1.7485,1.7485,1.7485,1.7485,1.7485,1.7485,1.7485,1.7485,1.7485,1.7485,1.7485,1.4687,1.4232,1.4199,1.3997,1.3714,1.367,1.3559,1.3699,1.3504,1.3784,1.3993,1.3789,1.3725,1.3934,1.3874,1.3844,1.3874,1.3858,1.3829,1.4301,1.3903,1.3442,1.4027,1.4032,1.4202,1.4197,1.3978,1.3868,1.3993,1.3993,1.4127,1.5011,1.5604,1.5362,1.5145,1.5451,1.4946,1.4441,1.4381,1.5065,1.5811,1.629,1.6703,1.7361,1.7485,1.7485,1.7485,1.7485,1.7485,1.7485,1.7485,1.7485,1.7485,1.7485,1.7485,1.7485,1.7485,1.7485,1.7485,1.7485,1.7485,1.7485,1.7485,1.7485,1.7485,1.7485,1.7485,1.7485,1.7485,1.7485,1.7485,1.7485,1.7485,1.7485,1.7485,1.7485,1.7485,1.7485,1.7485,1.7485,1.7485,1.7485,1.7485,1.7485,1.7485,1.7485,1.7485,1.7485,1.7485,1.7485,1.7485,1.7485,1.7485,1.7485,1.7485,1.7485,1.7485,1.7485,1.7485,1.7485,1.7485,1.7485,1.7485,1.7485,1.7485,1.7485,1.7485,1.7485,1.7485,1.7485,1.7485,1.7485,1.7485,1.7485,1.7485,1.3818,1.3115,1.2865,1.2365,1.1855,1.1794,1.1764,1.1764,1.1821,1.2526,1.3179,1.3041,1.3096,1.3366,1.2891,1.2681,1.2548,1.2998,1.3152,1.3481,1.3225,1.2721,1.2899,1.2825,1.238,1.2063,1.1851,1.2227,1.2629,1.2681,1.2828,1.2872,1.3846,1.4341,1.404,1.4226,1.4222,1.3794,1.4267,1.4887,1.5634,1.6137,1.6973,1.7273,1.7485,1.7485,1.7485,1.7485,1.7485,1.7485,1.7485,1.7485,1.7485,1.7485,1.7485,1.7485,1.7485,1.7485,1.7485,1.7485,1.7485,1.7485,1.7485,1.7485,1.7485,1.7485,1.7485,1.7485,1.7485,1.7485,1.7485,1.7485,1.7485,1.7485,1.7485,1.7485,1.7485,1.7485,1.7485,1.7485,1.7485,1.7485,1.7485,1.7485,1.7485,1.7485,1.7485,1.7485,1.7485,1.7485,1.7485,1.7485,1.7485,1.7485,1.7485,1.7485,1.7485,1.7485,1.7485,1.7485,1.7485,1.7485,1.7485,1.7485,1.7485,1.7485,1.7485,1.7485,1.7485,1.7485,1.7485,1.7485,1.7485,1.7485,1.7485,1.2884,1.1881,1.1524,1.0824,1.0067,0.9981,1.0046,1.0015,1.0105,1.1114,1.2578,1.1909,1.1909,1.2414,1.1903,1.1349,1.1479,1.2559,1.276,1.2786,1.2858,1.2518,1.1946,1.1557,1.1292,1.0786,1.0493,1.0528,1.1291,1.1482,1.1041,1.1607,1.283,1.3038,1.2592,1.3127,1.3344,1.3671,1.4266,1.4938,1.5793,1.6767,1.7485,1.7485,1.7485,1.7485,1.7485,1.7485,1.7485,1.7485,1.7485,1.7485,1.7485,1.7485,1.7485,1.7485,1.7485,1.7485,1.7485,1.7485,1.7485,1.7485,1.7485,1.7485,1.7485,1.7485,1.7485,1.7485,1.7485,1.7485,1.7485,1.7485,1.7485,1.7485,1.7485,1.7485,1.7485,1.7485,1.7485,1.7485,1.7485,1.7485,1.7485,1.7485,1.7485,1.7485,1.7485,1.7485,1.7485,1.7485,1.7485,1.7485,1.7485,1.7485,1.7485,1.7485,1.7485,1.7485,1.7485,1.7485,1.7485,1.7485,1.7485,1.7485,1.7485,1.7485,1.7485,1.7485,1.7485,1.7485,1.7485,1.7485,1.7485,1.7485,1.7485,1.0573,1.0291,1.0225,1.0125,1.0008,0.9903,0.9913,1.0028,1.0038,1.0023,1.0785,1.0398,1.0445,1.0553,1.0365,1.0168,1.0366,1.0667,1.104,1.1169,1.115,1.1092,1.063,1.0506,1.0658,1.0324,1.0283,1.0313,1.0619,1.0647,1.1029,1.1666,1.1866,1.2262,1.2011,1.242,1.2289,1.2281,1.2554,1.3728,1.5574,1.695,1.7421,1.7509,1.7491,1.7485,1.7485,1.7485,1.7485,1.7485,1.7485,1.7485,1.7485,1.7485,1.7485,1.7485,1.7485,1.7485,1.7485,1.7485,1.7485,1.7485,1.7485,1.7485,1.7485,1.7485,1.7485,1.7485,1.7485,1.7485,1.7485,1.7485,1.7485,1.7485,1.7485,1.7485,1.7485,1.7485,1.7485,1.7485,1.7485,1.7485,1.7485,1.7485,1.7485,1.7485,1.7485,1.7485,1.7485,1.7485,1.7485,1.7485,1.7485,1.7485,1.7485,1.7485,1.7485,1.7485,1.7485,1.7485,1.7485,1.7485,1.7485,1.7485,1.7485,1.7485,1.7485,1.7485,1.7485,1.7485,1.7485,1.7485,1.7485,1.7485,1.7485,1.0361,1.0262,1.0184,1.0197,1.0287,1.0194,1.0207,1.0238,1.0212,1.0523,1.0965,1.0981,1.0989,1.0771,1.0259,0.9988,1.0134,1.0178,1.0209,1.0366,1.0426,1.0473,1.048,1.0441,1.0429,1.048,1.046,1.0466,1.0453,1.0432,1.0718,1.1112,1.1213,1.1135,1.1488,1.2012,1.2208,1.27,1.373,1.5396,1.6761,1.7488,1.7732,1.769,1.7587,1.7497,1.7485,1.7485,1.7485,1.7485,1.7485,1.7485,1.7485,1.7485,1.7485,1.7485,1.7485,1.7485,1.7485,1.7485,1.7485,1.7485,1.7485,1.7485,1.7485,1.7485,1.7485,1.7485,1.7485,1.7485,1.7485,1.7485,1.7485,1.7485,1.7485,1.7485,1.7485,1.7485,1.7485,1.7485,1.7485,1.7485,1.7485,1.7485,1.7485,1.7485,1.7485,1.7485,1.7485,1.7485,1.7485,1.7485,1.7485,1.7485,1.7485,1.7485,1.7485,1.7485,1.7485,1.7485,1.7485,1.7485,1.7485,1.7485,1.7485,1.7485,1.7485,1.7485,1.7485,1.7485,1.7485,1.7485,1.7485,1.7485,1.7485,1.0548,1.0531,1.0386,1.0365,1.0477,1.0415,1.0419,1.0466,1.0283,1.0677,1.1275,1.1252,1.1298,1.1279,1.0424,1.0103,1.0324,1.0363,1.0393,1.0463,1.0575,1.0629,1.0578,1.0561,1.0605,1.0717,1.0599,1.0599,1.0599,1.0541,1.0506,1.0541,1.0671,1.0596,1.0912,1.1872,1.2772,1.3978,1.5722,1.7153,1.7983,1.7925,1.7919,1.7816,1.7642,1.7485,1.7485,1.7485,1.7485,1.7485,1.7485,1.7485,1.7485,1.7485,1.7485,1.7485,1.7485,1.7485,1.7485,1.7485,1.7485,1.7485,1.7485,1.7485,1.7485,1.7485,1.7485,1.7485,1.7485,1.7485,1.7485,1.7485,1.7485,1.7485,1.7485,1.7485,1.7485,1.7485,1.7485,1.7485,1.7485,1.7485,1.7485,1.7485,1.7485,1.7485,1.7485,1.7485,1.7485,1.7485,1.7485,1.7485,1.7485,1.7485,1.7485,1.7485,1.7485,1.7485,1.7485,1.7485,1.7485,1.7485,1.7485,1.7485,1.7485,1.7485,1.7485,1.7485,1.7485,1.7485,1.7485,1.7485,1.7485,1.7485,1.7485,1.0704,1.068,1.0402,1.0403,1.0483,1.016,1.0221,1.046,1.0167,1.0111,1.0325,1.0187,1.0277,1.0239,1.037,1.0297,1.048,1.0512,1.0534,1.059,1.0677,1.0704,1.0673,1.0677,1.0694,1.0714,1.0673,1.0687,1.0677,1.0673,1.066,1.0661,1.0626,1.0673,1.1201,1.2249,1.4231,1.5717,1.7448,1.7977,1.8269,1.8155,1.7986,1.7907,1.7695,1.7514,1.7491,1.7527,1.7533,1.7533,1.7497,1.7485,1.7485,1.7485,1.7485,1.7485,1.7485,1.7485,1.7485,1.7485,1.7485,1.7485,1.7485,1.7485,1.7485,1.7485,1.7485,1.7485,1.7485,1.7485,1.7485,1.7485,1.7485,1.7485,1.7485,1.7485,1.7485,1.7485,1.7485,1.7485,1.7485,1.7485,1.7485,1.7485,1.7485,1.7485,1.7485,1.7485,1.7485,1.7485,1.7485,1.7485,1.7485,1.7485,1.7485,1.7485,1.7485,1.7485,1.7485,1.7485,1.7485,1.7485,1.7485,1.7485,1.7485,1.7485,1.7485,1.7485,1.7485,1.7485,1.7485,1.7485,1.7485,1.7485,1.7485,1.0721,1.0707,1.0562,1.0582,1.0626,1.0478,1.0473,1.0453,1.028,1.0099,1.0021,1.0025,1.0123,1.0245,1.0276,1.0415,1.0592,1.0524,1.0605,1.064,1.0717,1.0721,1.0721,1.0721,1.0717,1.0721,1.0721,1.0721,1.0717,1.0721,1.0721,1.0717,1.0721,1.0717,1.1306,1.2914,1.5397,1.7417,1.8465,1.877,1.8722,1.8554,1.8403,1.8379,1.8118,1.8028,1.7998,1.7835,1.778,1.7708,1.7599,1.7515,1.7485,1.7485,1.7485,1.7485,1.7485,1.7485,1.7485,1.7485,1.7485,1.7485,1.7485,1.7485,1.7485,1.7485,1.7485,1.7485,1.7485,1.7485,1.7485,1.7485,1.7485,1.7485,1.7485,1.7485,1.7485,1.7485,1.7485,1.7485,1.7485,1.7485,1.7485,1.7485,1.7485,1.7485,1.7485,1.7485,1.7485,1.7485,1.7485,1.7485,1.7485,1.7485,1.7485,1.7485,1.7485,1.7485,1.7485,1.7485,1.7485,1.7485,1.7485,1.7485,1.7485,1.7485,1.7485,1.7485,1.7485,1.7485,1.7485,1.7485,1.7485,1.7485,1.7485,1.0721,1.0721,1.0721,1.0721,1.0714,1.0637,1.0619,1.0527,1.03,1.0158,1.0028,1.0103,1.0251,1.0426,1.0466,1.0504,1.0649,1.0629,1.0646,1.0687,1.0721,1.0721,1.0721,1.0721,1.0721,1.0721,1.0721,1.0721,1.0721,1.0721,1.0721,1.0721,1.0721,1.0721,1.1343,1.3468,1.6278,1.8425,1.9104,1.9104,1.9056,1.8838,1.8687,1.8601,1.8378,1.8251,1.8227,1.807,1.7974,1.7841,1.7714,1.7611,1.7521,1.7485,1.7485,1.7485,1.7485,1.7491,1.7485,1.7485,1.7485,1.7485,1.7485,1.7485,1.7485,1.7485,1.7485,1.7485,1.7485,1.7485,1.7485,1.7485,1.7485,1.7485,1.7485,1.7485,1.7485,1.7485,1.7485,1.7485,1.7485,1.7485,1.7485,1.7485,1.7485,1.7485,1.7485,1.7485,1.7485,1.7485,1.7485,1.7485,1.7485,1.7485,1.7485,1.7485,1.7485,1.7485,1.7485,1.7485,1.7485,1.7485,1.7485,1.7485,1.7485,1.7485,1.7485,1.7485,1.7485,1.7485,1.7485,1.7485,1.7485,1.7485,1.7485,1.0721,1.0721,1.0721,1.0721,1.0671,1.0565,1.0575,1.0576,1.0238,1.0062,1.0096,1.0299,1.046,1.0531,1.0605,1.067,1.0694,1.07,1.0707,1.0714,1.0721,1.0721,1.0721,1.0721,1.0721,1.0721,1.0721,1.0721,1.0721,1.0721,1.0721,1.0721,1.0721,1.0982,1.1049,1.3506,1.6278,1.865,1.904,1.9104,1.9056,1.8886,1.8802,1.8723,1.8559,1.845,1.8426,1.8342,1.8203,1.8046,1.7913,1.775,1.7569,1.7575,1.755,1.7514,1.7562,1.7533,1.7503,1.7491,1.7485,1.7485,1.7485,1.7485,1.7485,1.7485,1.7485,1.7485,1.7485,1.7485,1.7485,1.7485,1.7485,1.7485,1.7485,1.7485,1.7485,1.7485,1.7485,1.7485,1.7485,1.7485,1.7485,1.7485,1.7485,1.7485,1.7485,1.7485,1.7485,1.7485,1.7485,1.7485,1.7485,1.7485,1.7485,1.7485,1.7485,1.7485,1.7485,1.7485,1.7485,1.7485,1.7485,1.7485,1.7485,1.7485,1.7485,1.7485,1.7485,1.7485,1.7485,1.7485,1.7485,1.7485,1.7485,1.0721,1.0721,1.0721,1.0721,1.0677,1.0666,1.0622,1.0534,1.0327,1.0253,1.0341,1.0466,1.0558,1.0636,1.0647,1.0688,1.0721,1.0721,1.0721,1.0721,1.0721,1.0721,1.0721,1.0721,1.0721,1.0721,1.0721,1.0721,1.0721,1.0721,1.0721,1.0721,1.085,1.1802,1.3144,1.4875,1.6273,1.8585,1.9104,1.9104,1.9092,1.9013,1.8965,1.8953,1.8844,1.8764,1.874,1.8625,1.8475,1.8342,1.8179,1.7901,1.7786,1.7762,1.7677,1.7677,1.7708,1.7919,1.7786,1.7653,1.7485,1.7491,1.7503,1.7509,1.752,1.7485,1.7485,1.7485,1.7491,1.7491,1.7485,1.7485,1.7485,1.7485,1.7485,1.7485,1.7485,1.7485,1.7485,1.7485,1.7485,1.7485,1.7485,1.7485,1.7485,1.7485,1.7485,1.7485,1.7485,1.7485,1.7485,1.7485,1.7485,1.7485,1.7485,1.7485,1.7485,1.7485,1.7485,1.7485,1.7485,1.7485,1.7485,1.7485,1.7485,1.7485,1.7485,1.7485,1.7485,1.7485,1.7485,1.7485,1.7485,1.7485,1.7485,1.0721,1.0721,1.0721,1.0721,1.0721,1.0721,1.0633,1.0504,1.0446,1.0398,1.0334,1.0378,1.0422,1.0498,1.0522,1.0658,1.0688,1.0721,1.0721,1.0721,1.0721,1.0721,1.0721,1.0721,1.0721,1.0721,1.0721,1.0721,1.0721,1.0721,1.0721,1.0721,1.0754,1.1909,1.3491,1.4711,1.5949,1.7867,1.8547,1.9104,1.9104,1.9086,1.9092,1.9086,1.9074,1.908,1.905,1.8953,1.8802,1.8639,1.8409,1.8094,1.8076,1.7937,1.7811,1.7805,1.7762,1.7901,1.7726,1.7762,1.7671,1.7677,1.7647,1.7647,1.7653,1.7677,1.7642,1.7624,1.7545,1.7497,1.7485,1.7485,1.7503,1.7509,1.7509,1.7509,1.7503,1.7503,1.7485,1.7485,1.7485,1.7485,1.7485,1.7485,1.7485,1.7485,1.7485,1.7485,1.7485,1.7485,1.7485,1.7485,1.7485,1.7485,1.7485,1.7485,1.7485,1.7485,1.7485,1.7485,1.7485,1.7485,1.7485,1.7485,1.7485,1.7485,1.7485,1.7485,1.7485,1.7485,1.7485,1.7485,1.7485,1.7485,1.7485,1.0684,1.0721,1.0684,1.0651,1.0684,1.0721,1.0636,1.0485,1.0613,1.0399,1.0,1.0128,1.018,1.0187,1.019,1.0389,1.0621,1.0688,1.0721,1.0721,1.0721,1.0721,1.0721,1.0721,1.0721,1.0721,1.0724,1.0738,1.0727,1.0765,1.0761,1.0721,1.0721,1.1821,1.3071,1.4499,1.5776,1.7293,1.8501,1.8988,1.9104,1.9104,1.9104,1.9104,1.9104,1.9104,1.9086,1.905,1.8935,1.8814,1.865,1.8499,1.8312,1.8082,1.798,1.7859,1.7768,1.7684,1.7714,1.7853,1.7895,1.7907,1.7925,1.7919,1.7919,1.7919,1.7889,1.7768,1.7672,1.7593,1.752,1.755,1.7551,1.7551,1.7551,1.7545,1.7539,1.7521,1.7491,1.7485,1.7485,1.7485,1.7485,1.7485,1.7485,1.7485,1.7485,1.7485,1.7485,1.7485,1.7485,1.7485,1.7485,1.7485,1.7485,1.7485,1.7485,1.7485,1.7485,1.7485,1.7485,1.7485,1.7485,1.7485,1.7485,1.7485,1.7485,1.7485,1.7485,1.7485,1.7485,1.7485,1.7485,1.7485,1.7485,1.0492,1.0654,1.019,1.0259,1.0688,1.0721,1.0558,1.0303,1.0346,1.0128,0.9771,0.9842,0.9861,0.9861,1.009,1.0223,1.0389,1.0552,1.0688,1.0688,1.0588,1.0688,1.0688,1.0654,1.0688,1.0684,1.0698,1.0765,1.0819,1.0836,1.0762,1.0704,1.0886,1.1714,1.2946,1.4417,1.584,1.7141,1.8454,1.8966,1.9122,1.9122,1.911,1.9104,1.9104,1.9104,1.9104,1.9104,1.9026,1.8995,1.877,1.8619,1.8583,1.8518,1.8481,1.8451,1.8245,1.8076,1.804,1.7968,1.798,1.8143,1.8179,1.8173,1.8173,1.8185,1.8119,1.7943,1.7792,1.7659,1.7635,1.7659,1.7732,1.7792,1.7768,1.772,1.7689,1.7551,1.7521,1.7485,1.7485,1.7485,1.7485,1.7485,1.7485,1.7485,1.7485,1.7485,1.7485,1.7485,1.7485,1.7485,1.7485,1.7485,1.7485,1.7485,1.7485,1.7485,1.7485,1.7485,1.7485,1.7485,1.7485,1.7485,1.7485,1.7485,1.7485,1.7485,1.7485,1.7485,1.7485,1.7485,1.7485,1.7455,1.7397,1.0127,1.0256,0.9861,0.9927,1.0259,1.0289,1.009,0.9854,1.019,1.0157,0.9731,0.9731,0.9594,0.9492,0.9655,0.9821,1.0027,1.0127,1.0226,1.0259,1.0356,1.0289,1.0323,1.0455,1.0489,1.0522,1.0661,1.0755,1.0819,1.0823,1.0755,1.0767,1.1082,1.1976,1.3207,1.4899,1.6308,1.7407,1.8371,1.9053,1.9219,1.9152,1.911,1.9104,1.9104,1.9104,1.9104,1.9104,1.9104,1.9104,1.8911,1.8874,1.8764,1.8705,1.8445,1.833,1.807,1.7895,1.7865,1.8064,1.8131,1.8294,1.8469,1.8601,1.8499,1.8451,1.8257,1.8076,1.7889,1.7726,1.7756,1.7804,1.7931,1.8052,1.798,1.7901,1.7774,1.7635,1.7575,1.7497,1.7485,1.7485,1.7485,1.7485,1.7485,1.7485,1.7485,1.7485,1.7485,1.7485,1.7485,1.7485,1.7485,1.7485,1.7485,1.7485,1.7485,1.7485,1.7485,1.7485,1.7485,1.7485,1.7485,1.7485,1.7485,1.7485,1.7485,1.7485,1.7485,1.7449,1.7332,1.725,1.7279,1.7367,1.725,0.9697,0.9728,0.9697,0.9697,0.9661,0.9694,0.9558,0.9253,1.0157,1.0226,0.9661,0.9594,0.9359,0.912,0.9217,0.9422,0.9625,0.9794,0.9864,0.9731,0.9864,0.9861,0.9927,1.0027,1.0193,1.0323,1.0459,1.0638,1.0701,1.0738,1.0802,1.0827,1.2,1.286,1.3671,1.5702,1.708,1.7927,1.8725,1.9406,1.9334,1.9231,1.9104,1.9104,1.9104,1.9104,1.9104,1.9104,1.9104,1.9104,1.9098,1.908,1.8935,1.8747,1.8397,1.8203,1.8082,1.8004,1.8052,1.8197,1.8336,1.8529,1.8778,1.8886,1.8778,1.8699,1.8511,1.833,1.8161,1.8016,1.801,1.8107,1.8227,1.8288,1.8258,1.8143,1.8004,1.7792,1.7515,1.7485,1.7485,1.7485,1.7485,1.7485,1.7485,1.7485,1.7485,1.7485,1.7485,1.7485,1.7491,1.7491,1.7485,1.7485,1.7485,1.7485,1.7485,1.7485,1.7485,1.7485,1.7485,1.7485,1.7485,1.7485,1.7485,1.7485,1.7485,1.7479,1.7391,1.7214,1.7097,1.6979,1.6985,1.695,1.6838,0.9422,0.9697,0.9697,0.9525,0.9289,0.9594,0.9628,0.9561,0.9794,0.9558,0.8956,0.8889,0.8856,0.8787,0.8984,0.9153,0.9253,0.9458,0.9664,0.9628,0.9628,0.9528,0.9664,0.9728,0.9927,1.0157,1.0323,1.0425,1.0572,1.0695,1.0819,1.093,1.2194,1.3322,1.4547,1.6582,1.7768,1.8582,1.9013,1.9364,1.9225,1.9183,1.9104,1.9104,1.9104,1.9104,1.9104,1.9104,1.9104,1.9104,1.9104,1.9098,1.908,1.8959,1.8784,1.859,1.8506,1.8397,1.8361,1.8445,1.8608,1.8625,1.879,1.8856,1.8893,1.8879,1.8794,1.8601,1.8432,1.8294,1.8288,1.8403,1.8506,1.853,1.8487,1.8342,1.8185,1.7847,1.7521,1.7503,1.7503,1.7491,1.7491,1.7485,1.7485,1.7485,1.7485,1.7485,1.7497,1.7497,1.7538,1.7532,1.7485,1.7485,1.7485,1.7485,1.7485,1.7485,1.7485,1.7485,1.7485,1.7485,1.7485,1.7485,1.7485,1.7367,1.7332,1.7449,1.7332,1.695,1.6685,1.6478,1.6124,1.6035,1.5952,0.902,0.9192,0.9225,0.9089,0.8953,0.9123,0.9225,0.9225,0.9225,0.8989,0.8687,0.872,0.8753,0.862,0.8817,0.8884,0.895,0.9086,0.9125,0.9159,0.9259,0.9192,0.9259,0.9392,0.9489,0.9685,0.9924,1.0096,1.0309,1.0372,1.0475,1.1347,1.2746,1.4217,1.5736,1.7293,1.8451,1.9219,1.9334,1.9249,1.9104,1.9104,1.9104,1.9104,1.9104,1.9104,1.9104,1.9104,1.9104,1.9104,1.9104,1.9104,1.9062,1.8941,1.8838,1.8723,1.8638,1.8662,1.8639,1.8693,1.8802,1.879,1.8753,1.8802,1.8959,1.8959,1.8782,1.8595,1.842,1.8306,1.8469,1.8596,1.8735,1.8776,1.8619,1.8475,1.8149,1.7738,1.7665,1.7732,1.7689,1.7605,1.7593,1.7556,1.7527,1.7533,1.7521,1.7551,1.7545,1.7581,1.7581,1.7544,1.7491,1.7485,1.7485,1.7485,1.7485,1.7485,1.7485,1.7455,1.7455,1.7485,1.7485,1.7214,1.7067,1.7044,1.7044,1.7009,1.6714,1.6248,1.607,1.5922,1.5531,1.5145,1.5056,0.8604,0.8617,0.862,0.862,0.862,0.862,0.862,0.862,0.862,0.862,0.862,0.8887,0.882,0.8687,0.862,0.862,0.8653,0.8787,0.869,0.869,0.8687,0.879,0.8887,0.8984,0.922,0.9422,0.9658,0.9728,0.9834,1.0019,1.0708,1.2161,1.3685,1.5214,1.6748,1.8162,1.914,1.9159,1.9159,1.9134,1.9104,1.9104,1.9104,1.9104,1.9104,1.9104,1.9104,1.9104,1.9104,1.9104,1.9104,1.9104,1.9074,1.8971,1.8893,1.8802,1.8686,1.8607,1.8541,1.8735,1.879,1.879,1.8747,1.8802,1.8959,1.888,1.8704,1.8699,1.8524,1.8524,1.8681,1.879,1.8903,1.8945,1.8772,1.859,1.8185,1.781,1.7865,1.7943,1.7847,1.7744,1.7695,1.7653,1.7629,1.7605,1.7636,1.7636,1.7683,1.7695,1.7702,1.7605,1.7491,1.7485,1.7485,1.7485,1.7485,1.7485,1.7485,1.7455,1.7367,1.7185,1.695,1.6596,1.6478,1.6484,1.6366,1.6277,1.5922,1.5596,1.5442,1.5264,1.4818,1.4461,1.4252,0.8503,0.862,0.862,0.862,0.8617,0.862,0.862,0.862,0.862,0.862,0.862,0.8653,0.8653,0.862,0.862,0.862,0.862,0.862,0.862,0.862,0.862,0.862,0.872,0.895,0.9289,0.9458,0.9561,0.9661,0.9694,0.9927,1.0289,1.0979,1.3759,1.5061,1.5619,1.7313,1.9104,1.9104,1.9104,1.9104,1.9104,1.9104,1.9104,1.9104,1.9104,1.9104,1.9104,1.9104,1.9104,1.9104,1.9104,1.9104,1.908,1.9038,1.8995,1.8959,1.8831,1.8862,1.888,1.8917,1.8959,1.8953,1.8905,1.8808,1.8838,1.8656,1.8662,1.8935,1.8844,1.8874,1.8983,1.8983,1.9068,1.9001,1.885,1.8729,1.8475,1.8227,1.8143,1.8131,1.804,1.7974,1.7931,1.7883,1.7828,1.7877,1.8028,1.801,1.7822,1.7816,1.7828,1.7636,1.7497,1.7485,1.7485,1.7485,1.7485,1.7485,1.7391,1.7185,1.6979,1.6714,1.6419,1.597,1.5828,1.5833,1.5715,1.5477,1.5294,1.4997,1.4873,1.4629,1.4192,1.3958,1.3898]},{"header":{"parameterUnit":"m.s-1","parameterCategory":1,"la1":31.0,"la2":29.5877,"lo1":-88.7671,"lo2":-86.6584,"dy":0.0162,"dx":0.0185,"nx":115,"ny":88,"refTime":"2023-03-04T06:00:00:Z","depth":0,"parameterNumber":3,"parameterNumberName":"V-component_of_WINDS"},"data":[0.0,0.0,0.0,0.0,0.0,0.0,0.0,0.0,0.0,0.0,0.0,0.0,0.0,0.0,0.0,0.0,0.0,0.0,0.0,0.0,0.0,0.0,0.0,0.0,0.0,0.0,0.0,0.0,0.0,0.0,0.0,0.0,0.0,0.0,0.0,0.0,0.0,0.0,0.0,0.0,0.0,0.0,0.0,0.0,0.0,0.0,0.0,0.0,0.0,0.0,0.0,0.0,0.0,0.0,0.0,0.0,0.0,0.0,0.0,0.0,0.0,0.0,0.0,0.0,0.0,0.0,0.0,0.0,0.0,0.0,0.0,0.0,0.0,0.0,0.0,0.0,0.0,0.0,0.0,0.0,0.0,0.0,0.0,0.0,0.0,0.0,0.0,0.0,0.0,0.0,0.0,0.0,0.0,0.0,0.0,0.0,0.0,0.0,0.0,0.0,0.0,0.0,0.0,0.0,0.0,0.0,0.0,0.0,0.0,0.0,0.0,0.0,0.0,0.0,0.0,0.0,0.0,0.0,0.0,0.0,0.0,0.0,0.0,0.0,0.0,0.0,0.0,0.0,0.0,0.0,0.0,0.0,0.0,0.0,0.0,0.0,0.0,0.0,0.0,0.0,0.0,0.0,0.0,0.0,0.0,0.0,0.0,0.0,0.0,0.0,0.0,0.0,0.0,0.0,0.0,0.0,0.0,0.0,0.0,0.0,0.0,0.0,0.0,0.0,0.0,0.0,0.0,0.0,0.0,0.0,0.0,0.0,0.0,0.0,0.0,0.0,0.0,0.0,0.0,0.0,0.0,0.0,0.0,0.0,0.0,0.0,0.0,0.0,0.0,0.0,0.0,0.0,0.0,0.0,0.0,0.0,0.0,0.0,0.0,0.0,0.0,0.0,0.0,0.0,0.0,0.0,0.0,0.0,0.0,0.0,0.0,0.0,0.0,0.0,0.0,0.0,0.0,0.0,0.0,0.0,0.0,0.0,0.0,0.0,0.0,0.0,0.0,0.0,0.0,0.0,0.0,0.0,0.0,0.0,0.0,0.0,0.0,0.0,0.0,0.0,0.0,0.0,0.0,0.0,0.0,0.0,0.0,0.0,0.0,0.0,0.0,0.0,0.0,0.0,0.0,0.0,0.0,0.0,0.0,0.0,0.0,0.0,0.0,0.0,0.0,0.0,0.0,0.0,0.0,0.0,0.0,0.0,0.0,0.0,0.0,0.0,0.0,0.0,0.0,0.0,0.0,0.0,0.0,0.0,0.0,0.0,0.0,0.0,0.0,0.0,0.0,0.0,0.0,0.0,0.0,0.0,0.0,0.0,0.0,0.0,0.0,0.0,0.0,0.0,0.0,0.0,0.0,0.0,0.0,0.0,0.0,0.0,0.0,0.0,0.0,0.0,0.0,0.0,0.0,0.0,0.0,0.0,0.0,0.0,0.0,0.0,0.0,0.0,0.0,0.0,0.0,0.0,0.0,0.0,0.0,0.0,0.0,0.0,0.0,0.0,0.0,0.0,0.0,0.0,0.0,0.0,0.0,0.0,0.0,0.0,0.0,0.0,0.0,0.0,0.0,0.0,0.0,0.0,0.0,0.0,0.0,0.0,0.0,0.0,0.0,0.0,0.0,0.0,0.0,0.0,0.0,0.0,0.0,0.0,0.0,0.0,0.0,0.0,0.0,0.0,0.0,0.0,0.0,0.0,0.0,0.0,0.0,0.0,0.0,0.0,0.0,0.0,0.0,0.0,0.0,0.0,0.0,0.0,0.0,0.0,0.0,0.0,0.0,0.0,0.0,0.0,0.0,0.0,0.0,0.0,0.0,0.0,0.0,0.0,0.0,0.0,0.0,0.0,0.0,0.0,0.0,0.0,0.0,0.0,0.0,0.0,0.0,0.0,0.0,0.0,0.0,0.0,0.0,0.0,0.0,0.0,0.0,0.0,0.0,0.0,0.0,0.0,0.0,0.0,0.0,0.0,0.0,0.0,0.0,0.0,0.0,0.0,0.0,0.0,0.0,0.0,0.0,0.0,0.0,0.0,0.0,0.0,0.0,0.0,0.0,0.0,0.0,0.0,0.0,0.0,0.0,0.0,0.0,0.0,0.0,0.0,0.0,0.0,0.0,0.0,0.0,0.0,0.0,0.0,0.0,0.0,0.0,0.0,0.0,0.0,0.0,0.0,0.0,0.0,0.0,0.0,0.0,0.0,0.0,0.0,0.0,0.0,0.0,0.0,0.0,0.0,0.0,0.0,0.0,0.0,0.0,0.0,0.0,0.0,0.0,0.0,0.0,0.0,0.0,0.0,0.0,0.0,0.0,0.0,0.0,0.0,0.0,0.0,0.0,0.0,0.0,0.0,0.0,0.0,0.0,0.0,0.0,0.0,0.0,0.0,0.0,0.0,0.0,0.0,0.0,0.0,0.0,0.0,0.0,0.0,0.0,0.0,0.0,0.0,0.0,0.0,0.0,0.0,0.0,0.0,0.0,0.0,0.0,0.0,0.0,0.0,0.0,0.0,0.0,0.0,0.0,0.0,0.0,0.0,0.0,0.0,0.0,0.0,0.0,0.0,0.0,0.0,0.0,0.0,0.0,0.0,0.0,0.0,0.0,0.0,0.0,0.0,0.0,0.0,0.0,0.0,0.0,0.0,0.0,0.0,0.0,0.0,0.0,0.0,0.0,0.0,0.0,0.0,0.0,0.0,0.0,0.0,0.0,0.0,0.0,0.0,0.0,0.0,0.0,0.0,0.0,0.0,0.0,0.0,0.0,0.0,0.0,0.0,0.0,0.0,0.0,0.0,0.0,0.0,0.0,0.0,0.0,0.0,0.0,0.0,0.0,0.0,0.0,0.0,0.0,0.0,0.0,0.0,0.0,0.0,0.0,0.0,0.0,0.0,0.0,0.0,0.0,0.0,0.0,0.0,0.0,0.0,0.0,0.0,0.0,0.0,0.0,0.0,0.0,0.0,0.0,0.0,0.0,0.0,0.0,0.0,0.0,0.0,0.0,0.0,0.0,0.0,0.0,0.0,0.0,0.0,0.0,0.0,0.0,0.0,0.0,0.0,0.0,0.0,0.0,0.0,0.0,0.0,0.0,0.0,0.0,0.0,0.0,0.0,0.0,0.0,0.0,0.0,0.0,0.0,0.0,0.0,0.0,0.0,0.0,0.0,0.0,0.0,0.0,0.0,0.0,0.0,0.0,0.0,0.0,0.0,0.0,0.0,0.0,0.0,0.0,0.0,0.0,0.0,0.0,0.0,0.0,0.0,0.0,0.0,0.0,0.0,0.0,0.0,0.0,0.0,0.0,0.0,0.0,0.0,0.0,0.0,0.0,0.0,0.0,0.0,0.0,0.0,0.0,0.0,0.0,0.0,0.0,0.0,0.0,0.0,0.0,0.0,0.0,0.0,0.0,0.0,0.0,0.0,0.0,0.0,0.0,0.0,0.0,0.0,0.0,0.0,0.0,0.0,0.0,0.0,0.0,0.0,0.0,0.0,0.0,0.0,0.0,0.0,0.0,0.0,0.0,0.0,0.0,0.0,0.0,0.0,0.0,0.0,0.0,0.0,0.0,0.0,0.0,0.0,0.0,0.0,0.0,0.0,0.0,0.0,0.0,0.0,0.0,0.0,0.0,0.0,0.0,0.0,0.0,0.0,0.0,0.0,0.0,0.0,0.0,0.0,0.0,0.0,0.0,0.0,0.0,0.0,0.0,0.0,0.0,0.0,0.0,0.0,0.0,0.0,0.0,0.0,0.0,0.0,0.0,0.0,0.0,0.0,0.0,0.0,0.0,0.0,0.0,0.0,0.0,0.0,0.0,0.0,0.0,0.0,0.0,0.0,0.0,0.0,0.0,0.0,0.0,0.0,0.0,0.0,0.0,0.0,0.0,0.0,0.0,0.0,0.0,0.0,0.0,0.0,0.0,0.0,0.0,0.0,0.0,0.0,0.0,0.0,0.0,0.0,0.0,0.0,0.0,0.0,0.0,0.0,0.0,0.0,0.0,0.0,0.0,0.0,0.0,0.0,0.0,0.0,0.0,0.0,0.0,0.0,0.0,0.0,0.0,0.0,0.0,0.0,0.0,0.0,0.0,0.0,0.0,0.0,0.0,0.0,0.0,0.0,0.0,0.0,0.0,0.0,0.0,0.0,0.0,0.0,0.0,0.0,0.0,0.0,0.0,0.0,0.0,0.0,0.0,0.0,0.0,0.0,0.0,0.0,0.0,0.0,0.0,0.0,0.0,0.0,0.0,0.0,0.0,0.0,0.0,0.0,2.499,0.0,0.0,0.0,0.0,0.0,0.0,0.0,0.0,0.0,0.0,0.0,0.0,0.0,0.0,0.0,0.0,0.0,0.0,0.0,0.0,0.0,0.0,0.0,0.0,0.0,0.0,0.0,0.0,0.0,0.0,0.0,0.0,0.0,0.0,0.0,0.0,0.0,0.0,0.0,0.0,0.0,0.0,0.0,0.0,0.0,0.0,0.0,0.0,0.0,0.0,0.0,0.0,0.0,0.0,0.0,0.0,0.0,0.0,0.0,0.0,0.0,0.0,0.0,0.0,0.0,0.0,0.0,0.0,0.0,0.0,0.0,0.0,0.0,0.0,0.0,0.0,0.0,0.0,0.0,0.0,0.0,0.0,0.0,0.0,0.0,0.0,0.0,0.0,0.0,0.0,0.0,0.0,0.0,0.0,0.0,0.0,0.0,0.0,0.0,0.0,0.0,0.0,0.0,0.0,0.0,0.0,0.0,0.0,0.0,0.0,2.4787,2.4746,2.4495,2.4574,2.5027,0.0,0.0,0.0,0.0,0.0,0.0,0.0,0.0,0.0,0.0,0.0,0.0,0.0,0.0,0.0,0.0,0.0,0.0,0.0,0.0,0.0,0.0,0.0,0.0,0.0,0.0,0.0,0.0,0.0,0.0,0.0,0.0,0.0,0.0,0.0,0.0,0.0,0.0,0.0,0.0,0.0,0.0,0.0,0.0,0.0,0.0,0.0,0.0,0.0,0.0,0.0,0.0,0.0,0.0,0.0,0.0,0.0,0.0,0.0,0.0,0.0,0.0,0.0,0.0,0.0,0.0,0.0,0.0,0.0,0.0,0.0,0.0,0.0,0.0,0.0,0.0,0.0,0.0,0.0,0.0,0.0,0.0,0.0,0.0,0.0,0.0,0.0,0.0,0.0,0.0,0.0,0.0,0.0,0.0,0.0,0.0,0.0,0.0,0.0,0.0,0.0,0.0,0.0,0.0,0.0,0.0,0.0,0.0,0.0,0.0,0.0,0.0,2.4613,2.4718,2.542,0.0,0.0,0.0,0.0,0.0,0.0,0.0,0.0,0.0,0.0,0.0,0.0,0.0,0.0,0.0,0.0,0.0,0.0,0.0,0.0,0.0,0.0,0.0,0.0,0.0,0.0,0.0,0.0,0.0,0.0,0.0,0.0,0.0,0.0,0.0,0.0,0.0,0.0,0.0,0.0,0.0,0.0,0.0,0.0,0.0,0.0,0.0,0.0,0.0,0.0,0.0,0.0,0.0,0.0,0.0,0.0,0.0,0.0,0.0,0.0,0.0,0.0,0.0,0.0,0.0,0.0,0.0,0.0,0.0,0.0,0.0,0.0,0.0,0.0,0.0,0.0,0.0,0.0,0.0,0.0,0.0,0.0,0.0,0.0,0.0,0.0,0.0,0.0,0.0,0.0,0.0,0.0,0.0,0.0,0.0,0.0,0.0,0.0,0.0,0.0,0.0,0.0,0.0,0.0,0.0,0.0,0.0,0.0,0.0,0.0,2.5236,2.594,2.6075,0.0,2.6499,0.0,0.0,0.0,0.0,0.0,0.0,0.0,0.0,0.0,0.0,0.0,0.0,0.0,0.0,0.0,0.0,0.0,0.0,0.0,0.0,0.0,0.0,0.0,0.0,0.0,0.0,0.0,0.0,0.0,0.0,0.0,0.0,0.0,0.0,0.0,0.0,0.0,0.0,0.0,0.0,0.0,0.0,0.0,0.0,0.0,0.0,0.0,0.0,0.0,0.0,0.0,0.0,0.0,0.0,0.0,0.0,0.0,0.0,0.0,0.0,0.0,0.0,0.0,0.0,0.0,0.0,0.0,0.0,0.0,0.0,0.0,0.0,0.0,0.0,0.0,0.0,0.0,0.0,0.0,0.0,0.0,0.0,0.0,0.0,0.0,0.0,0.0,0.0,0.0,0.0,0.0,0.0,0.0,0.0,0.0,0.0,0.0,0.0,0.0,0.0,0.0,0.0,0.0,0.0,0.0,0.0,0.0,0.0,0.0,0.0,2.5112,2.5385,2.5617,2.5778,0.0,0.0,0.0,0.0,0.0,0.0,0.0,0.0,0.0,0.0,0.0,0.0,0.0,0.0,0.0,0.0,0.0,0.0,0.0,0.0,0.0,0.0,0.0,0.0,0.0,0.0,0.0,0.0,0.0,0.0,0.0,0.0,0.0,0.0,0.0,0.0,0.0,0.0,0.0,0.0,0.0,0.0,0.0,0.0,0.0,0.0,0.0,0.0,0.0,0.0,0.0,0.0,0.0,0.0,0.0,0.0,0.0,0.0,0.0,0.0,0.0,0.0,0.0,0.0,0.0,0.0,0.0,0.0,0.0,0.0,0.0,0.0,0.0,0.0,0.0,0.0,0.0,0.0,0.0,0.0,0.0,0.0,0.0,0.0,0.0,0.0,0.0,0.0,0.0,0.0,0.0,0.0,0.0,0.0,0.0,0.0,0.0,0.0,0.0,0.0,0.0,0.0,0.0,0.0,0.0,0.0,0.0,0.0,0.0,0.0,2.4931,2.506,2.5307,2.5288,2.5393,2.5666,0.0,0.0,0.0,0.0,0.0,0.0,0.0,0.0,0.0,0.0,0.0,0.0,0.0,0.0,0.0,0.0,0.0,0.0,0.0,0.0,0.0,0.0,0.0,0.0,0.0,0.0,0.0,0.0,0.0,0.0,0.0,0.0,0.0,0.0,0.0,0.0,0.0,0.0,0.0,0.0,0.0,0.0,0.0,0.0,0.0,0.0,0.0,0.0,0.0,0.0,0.0,0.0,0.0,0.0,0.0,0.0,0.0,0.0,0.0,0.0,0.0,0.0,0.0,0.0,0.0,0.0,0.0,0.0,0.0,0.0,0.0,0.0,0.0,0.0,0.0,0.0,0.0,0.0,0.0,0.0,0.0,0.0,0.0,0.0,0.0,0.0,0.0,0.0,0.0,0.0,0.0,0.0,0.0,0.0,0.0,0.0,0.0,0.0,0.0,0.0,0.0,0.0,0.0,0.0,0.0,0.0,0.0,0.0,2.4894,2.4831,2.5294,2.6228,2.5578,2.5657,0.0,0.0,0.0,0.0,0.0,0.0,0.0,0.0,0.0,0.0,0.0,0.0,0.0,0.0,0.0,0.0,0.0,0.0,0.0,0.0,0.0,0.0,0.0,0.0,0.0,0.0,0.0,0.0,0.0,0.0,0.0,0.0,0.0,0.0,0.0,0.0,0.0,0.0,0.0,0.0,0.0,0.0,0.0,0.0,0.0,0.0,0.0,0.0,0.0,0.0,0.0,0.0,0.0,0.0,0.0,0.0,0.0,0.0,0.0,0.0,0.0,0.0,0.0,0.0,0.0,0.0,0.0,0.0,0.0,0.0,0.0,0.0,0.0,0.0,0.0,0.0,0.0,0.0,0.0,0.0,0.0,0.0,0.0,0.0,0.0,0.0,0.0,0.0,0.0,0.0,0.0,0.0,0.0,0.0,0.0,0.0,0.0,0.0,0.0,0.0,0.0,0.0,0.0,0.0,0.0,0.0,0.0,0.0,0.0,2.4071,2.408,2.4559,2.5506,2.5373,2.5452,0.0,0.0,0.0,0.0,0.0,0.0,0.0,0.0,0.0,0.0,0.0,0.0,0.0,0.0,0.0,0.0,0.0,0.0,0.0,0.0,0.0,0.0,0.0,0.0,0.0,0.0,0.0,0.0,0.0,0.0,0.0,0.0,0.0,0.0,0.0,0.0,0.0,0.0,0.0,0.0,0.0,0.0,0.0,0.0,0.0,0.0,0.0,0.0,0.0,0.0,0.0,0.0,0.0,0.0,0.0,0.0,0.0,0.0,0.0,0.0,0.0,0.0,0.0,0.0,0.0,0.0,0.0,0.0,0.0,0.0,0.0,0.0,0.0,0.0,0.0,0.0,0.0,0.0,0.0,0.0,0.0,0.0,0.0,0.0,0.0,0.0,0.0,0.0,0.0,0.0,0.0,0.0,0.0,0.0,0.0,0.0,0.0,0.0,0.0,0.0,0.0,0.0,0.0,0.0,0.0,0.0,0.0,0.0,0.0,2.4812,0.0,2.5386,2.6289,2.6438,2.6146,0.0,0.0,0.0,0.0,0.0,0.0,0.0,0.0,0.0,0.0,0.0,0.0,0.0,0.0,0.0,0.0,0.0,0.0,0.0,0.0,0.0,0.0,0.0,0.0,0.0,0.0,0.0,0.0,0.0,0.0,0.0,0.0,0.0,0.0,0.0,0.0,0.0,0.0,0.0,0.0,0.0,0.0,0.0,0.0,0.0,0.0,0.0,0.0,0.0,0.0,0.0,0.0,0.0,0.0,0.0,0.0,0.0,0.0,0.0,0.0,0.0,0.0,0.0,0.0,0.0,0.0,0.0,0.0,0.0,0.0,0.0,0.0,0.0,0.0,0.0,0.0,0.0,0.0,0.0,0.0,0.0,0.0,0.0,0.0,0.0,0.0,0.0,0.0,0.0,0.0,0.0,0.0,0.0,0.0,0.0,0.0,0.0,0.0,0.0,0.0,0.0,0.0,0.0,0.0,0.0,0.0,0.0,0.0,2.4865,2.7338,2.7406,2.78,2.8896,2.8922,2.7822,0.0,0.0,0.0,0.0,0.0,0.0,0.0,0.0,0.0,0.0,0.0,0.0,0.0,0.0,0.0,0.0,0.0,0.0,0.0,0.0,0.0,0.0,0.0,0.0,0.0,0.0,0.0,0.0,0.0,0.0,0.0,0.0,0.0,0.0,0.0,0.0,0.0,0.0,0.0,0.0,0.0,0.0,0.0,0.0,0.0,0.0,0.0,0.0,0.0,0.0,0.0,0.0,0.0,0.0,0.0,0.0,0.0,0.0,0.0,0.0,0.0,0.0,0.0,0.0,0.0,0.0,0.0,0.0,0.0,0.0,0.0,0.0,0.0,0.0,0.0,0.0,0.0,0.0,0.0,0.0,0.0,0.0,0.0,0.0,0.0,0.0,0.0,0.0,0.0,0.0,0.0,0.0,0.0,0.0,0.0,0.0,0.0,0.0,0.0,0.0,0.0,0.0,0.0,0.0,0.0,0.0,0.0,0.0,0.0,2.8285,2.7312,2.8316,3.1421,3.0016,2.9092,0.0,0.0,0.0,0.0,0.0,0.0,0.0,0.0,0.0,0.0,0.0,0.0,0.0,0.0,0.0,0.0,0.0,0.0,0.0,0.0,0.0,0.0,0.0,0.0,0.0,0.0,0.0,0.0,0.0,0.0,0.0,0.0,0.0,0.0,0.0,0.0,0.0,0.0,0.0,0.0,0.0,0.0,0.0,0.0,0.0,0.0,0.0,0.0,0.0,0.0,0.0,0.0,0.0,0.0,0.0,0.0,0.0,0.0,0.0,0.0,0.0,0.0,0.0,0.0,0.0,0.0,0.0,0.0,0.0,0.0,0.0,0.0,0.0,0.0,0.0,0.0,0.0,0.0,0.0,0.0,0.0,0.0,0.0,0.0,0.0,0.0,0.0,0.0,0.0,0.0,0.0,0.0,0.0,0.0,0.0,0.0,0.0,0.0,0.0,0.0,0.0,0.0,0.0,0.0,0.0,0.0,0.0,0.0,0.0,3.0137,2.9915,3.12,3.4292,3.2255,3.0953,3.0539,0.0,0.0,0.0,0.0,0.0,0.0,0.0,0.0,0.0,0.0,0.0,0.0,0.0,0.0,0.0,0.0,0.0,0.0,0.0,0.0,0.0,0.0,0.0,0.0,0.0,0.0,0.0,0.0,0.0,0.0,0.0,0.0,0.0,0.0,0.0,0.0,0.0,0.0,0.0,0.0,0.0,0.0,0.0,0.0,0.0,0.0,0.0,0.0,0.0,0.0,0.0,0.0,0.0,0.0,0.0,0.0,0.0,0.0,0.0,0.0,0.0,0.0,0.0,0.0,0.0,0.0,0.0,0.0,0.0,0.0,0.0,0.0,0.0,0.0,0.0,0.0,0.0,0.0,0.0,0.0,0.0,0.0,0.0,0.0,0.0,0.0,0.0,0.0,0.0,0.0,0.0,0.0,0.0,0.0,0.0,0.0,0.0,0.0,0.0,0.0,0.0,0.0,0.0,0.0,0.0,0.0,0.0,0.0,3.2962,3.4708,3.6016,3.6968,3.5277,3.3279,0.0,0.0,0.0,0.0,0.0,0.0,0.0,0.0,0.0,0.0,0.0,0.0,0.0,0.0,0.0,0.0,0.0,0.0,0.0,0.0,0.0,0.0,0.0,0.0,0.0,0.0,0.0,0.0,0.0,0.0,0.0,0.0,0.0,0.0,0.0,0.0,0.0,0.0,0.0,0.0,0.0,0.0,0.0,0.0,0.0,0.0,0.0,0.0,0.0,0.0,0.0,0.0,0.0,0.0,0.0,0.0,0.0,0.0,0.0,0.0,0.0,0.0,0.0,0.0,0.0,0.0,0.0,0.0,0.0,0.0,0.0,0.0,0.0,0.0,0.0,0.0,0.0,0.0,0.0,0.0,0.0,0.0,0.0,0.0,0.0,0.0,0.0,0.0,0.0,0.0,0.0,0.0,0.0,0.0,0.0,0.0,0.0,0.0,0.0,0.0,0.0,0.0,0.0,0.0,0.0,0.0,0.0,0.0,0.0,3.5569,3.804,3.9466,3.9721,3.6323,3.4413,0.0,0.0,0.0,0.0,0.0,0.0,0.0,0.0,0.0,0.0,0.0,0.0,0.0,0.0,0.0,0.0,0.0,0.0,0.0,0.0,0.0,0.0,0.0,0.0,0.0,0.0,0.0,0.0,0.0,0.0,0.0,0.0,0.0,0.0,0.0,0.0,0.0,0.0,0.0,0.0,0.0,0.0,0.0,0.0,0.0,0.0,0.0,0.0,0.0,0.0,0.0,0.0,0.0,0.0,0.0,0.0,0.0,0.0,0.0,0.0,0.0,0.0,0.0,0.0,0.0,0.0,0.0,0.0,0.0,0.0,0.0,0.0,0.0,0.0,0.0,0.0,0.0,0.0,0.0,0.0,0.0,0.0,0.0,0.0,0.0,0.0,0.0,0.0,0.0,0.0,0.0,0.0,0.0,0.0,0.0,0.0,0.0,0.0,0.0,0.0,0.0,0.0,0.0,0.0,0.0,0.0,0.0,0.0,3.3371,3.6563,3.9256,4.0758,4.0928,3.7466,3.5455,0.0,0.0,0.0,0.0,0.0,0.0,0.0,0.0,0.0,0.0,0.0,0.0,0.0,0.0,0.0,0.0,0.0,0.0,0.0,0.0,0.0,0.0,0.0,0.0,0.0,0.0,0.0,0.0,0.0,0.0,0.0,0.0,0.0,0.0,0.0,0.0,0.0,0.0,0.0,0.0,0.0,0.0,0.0,0.0,0.0,0.0,0.0,0.0,0.0,0.0,0.0,0.0,0.0,0.0,0.0,0.0,0.0,0.0,0.0,0.0,0.0,0.0,0.0,0.0,0.0,0.0,0.0,0.0,0.0,0.0,0.0,0.0,0.0,0.0,0.0,0.0,0.0,0.0,0.0,0.0,0.0,0.0,0.0,0.0,0.0,0.0,0.0,0.0,0.0,0.0,0.0,0.0,0.0,0.0,0.0,0.0,0.0,0.0,0.0,0.0,0.0,0.0,0.0,0.0,0.0,0.0,0.0,0.0,3.3948,3.6874,3.9332,4.0729,4.0914,3.8444,3.6293,0.0,0.0,0.0,0.0,0.0,0.0,0.0,0.0,0.0,0.0,0.0,0.0,0.0,0.0,0.0,0.0,0.0,0.0,0.0,0.0,0.0,0.0,0.0,0.0,0.0,0.0,0.0,0.0,0.0,0.0,0.0,0.0,0.0,0.0,0.0,0.0,0.0,0.0,0.0,0.0,0.0,0.0,0.0,0.0,0.0,0.0,0.0,0.0,0.0,0.0,0.0,0.0,0.0,0.0,0.0,0.0,0.0,0.0,0.0,0.0,0.0,0.0,0.0,0.0,0.0,0.0,0.0,0.0,0.0,0.0,0.0,0.0,0.0,0.0,0.0,0.0,0.0,0.0,0.0,0.0,0.0,0.0,0.0,0.0,0.0,0.0,0.0,0.0,0.0,0.0,0.0,0.0,0.0,0.0,0.0,0.0,0.0,0.0,0.0,0.0,0.0,0.0,0.0,0.0,0.0,0.0,0.0,0.0,3.484,3.9415,4.0302,4.076,4.0899,3.7793,3.5937,0.0,0.0,0.0,0.0,0.0,0.0,0.0,0.0,0.0,0.0,0.0,0.0,0.0,0.0,0.0,0.0,0.0,0.0,0.0,0.0,0.0,0.0,0.0,0.0,0.0,0.0,0.0,0.0,0.0,0.0,0.0,0.0,0.0,0.0,0.0,0.0,0.0,0.0,0.0,0.0,0.0,0.0,0.0,0.0,0.0,0.0,0.0,0.0,2.9732,0.0,0.0,0.0,0.0,0.0,0.0,0.0,0.0,0.0,0.0,0.0,0.0,0.0,0.0,0.0,0.0,0.0,0.0,0.0,0.0,0.0,0.0,0.0,0.0,0.0,0.0,0.0,0.0,0.0,0.0,0.0,0.0,0.0,0.0,0.0,0.0,0.0,0.0,0.0,0.0,0.0,0.0,0.0,0.0,0.0,0.0,0.0,0.0,0.0,0.0,0.0,0.0,0.0,0.0,0.0,0.0,0.0,0.0,0.0,3.5074,4.0053,4.055,4.0745,4.0736,3.7983,3.6093,0.0,0.0,0.0,0.0,0.0,0.0,0.0,0.0,0.0,0.0,0.0,0.0,0.0,0.0,0.0,0.0,0.0,0.0,0.0,0.0,0.0,0.0,0.0,0.0,0.0,0.0,0.0,0.0,0.0,0.0,0.0,0.0,0.0,0.0,0.0,0.0,0.0,0.0,0.0,0.0,0.0,0.0,0.0,0.0,0.0,0.0,0.0,0.0,0.0,0.0,0.0,0.0,0.0,0.0,0.0,0.0,0.0,0.0,0.0,0.0,0.0,0.0,0.0,0.0,0.0,0.0,0.0,0.0,0.0,0.0,0.0,0.0,0.0,0.0,0.0,0.0,0.0,0.0,0.0,0.0,0.0,0.0,0.0,0.0,0.0,0.0,0.0,0.0,0.0,0.0,0.0,0.0,0.0,0.0,0.0,0.0,0.0,0.0,0.0,0.0,0.0,0.0,0.0,0.0,0.0,0.0,0.0,3.2874,3.5406,3.9877,4.0471,4.0695,4.0746,3.8425,3.6414,3.4837,0.0,0.0,0.0,0.0,0.0,0.0,0.0,0.0,0.0,0.0,0.0,0.0,0.0,0.0,0.0,0.0,0.0,0.0,0.0,0.0,0.0,0.0,0.0,0.0,0.0,0.0,0.0,0.0,0.0,0.0,0.0,0.0,0.0,0.0,0.0,0.0,0.0,0.0,2.8529,2.8569,0.0,0.0,0.0,0.0,0.0,0.0,0.0,0.0,3.0788,0.0,0.0,0.0,0.0,0.0,0.0,0.0,0.0,0.0,0.0,0.0,0.0,0.0,0.0,0.0,0.0,0.0,0.0,0.0,0.0,0.0,0.0,0.0,0.0,0.0,0.0,0.0,0.0,0.0,0.0,0.0,0.0,0.0,0.0,0.0,0.0,0.0,0.0,0.0,0.0,0.0,0.0,0.0,0.0,0.0,0.0,0.0,0.0,0.0,0.0,0.0,0.0,0.0,0.0,0.0,0.0,3.3332,3.4789,3.7043,4.0081,4.0345,4.0542,4.0629,3.8276,3.6558,3.5576,0.0,0.0,0.0,0.0,0.0,0.0,0.0,0.0,0.0,0.0,0.0,0.0,0.0,0.0,0.0,0.0,0.0,0.0,0.0,0.0,0.0,0.0,0.0,0.0,0.0,0.0,0.0,0.0,0.0,0.0,0.0,0.0,0.0,0.0,0.0,0.0,0.0,0.0,0.0,3.0655,3.0517,0.0,0.0,0.0,0.0,0.0,0.0,0.0,0.0,3.1472,0.0,0.0,0.0,0.0,0.0,0.0,0.0,0.0,0.0,0.0,0.0,0.0,0.0,0.0,0.0,0.0,0.0,0.0,0.0,0.0,0.0,0.0,0.0,0.0,0.0,0.0,0.0,0.0,0.0,0.0,0.0,0.0,0.0,0.0,0.0,0.0,0.0,0.0,0.0,0.0,0.0,0.0,0.0,0.0,0.0,0.0,0.0,0.0,0.0,0.0,0.0,0.0,0.0,0.0,0.0,3.2845,3.5059,3.749,4.0047,4.0419,4.0604,4.0635,3.7887,3.6236,0.0,0.0,0.0,0.0,0.0,0.0,0.0,0.0,0.0,0.0,0.0,0.0,0.0,0.0,0.0,0.0,0.0,0.0,0.0,0.0,0.0,0.0,0.0,0.0,0.0,0.0,0.0,0.0,0.0,0.0,0.0,0.0,0.0,0.0,0.0,0.0,0.0,0.0,0.0,0.0,3.1978,3.2165,3.261,0.0,0.0,0.0,0.0,0.0,0.0,3.2216,3.2088,0.0,0.0,0.0,0.0,0.0,0.0,0.0,0.0,0.0,0.0,0.0,0.0,0.0,0.0,0.0,0.0,0.0,0.0,0.0,0.0,0.0,0.0,0.0,0.0,0.0,0.0,0.0,0.0,0.0,0.0,0.0,0.0,0.0,0.0,0.0,0.0,0.0,0.0,0.0,0.0,0.0,0.0,0.0,0.0,0.0,0.0,0.0,0.0,0.0,0.0,0.0,0.0,0.0,0.0,0.0,3.225,3.5401,3.8004,4.0017,4.048,4.0677,4.0638,3.7539,3.5859,0.0,0.0,0.0,0.0,0.0,0.0,0.0,0.0,0.0,0.0,0.0,0.0,0.0,0.0,0.0,0.0,0.0,0.0,0.0,0.0,0.0,0.0,0.0,0.0,0.0,0.0,0.0,0.0,0.0,0.0,0.0,0.0,0.0,0.0,0.0,0.0,0.0,0.0,0.0,0.0,0.0,3.4169,3.3864,3.3739,0.0,0.0,0.0,0.0,3.1979,3.3072,0.0,0.0,0.0,0.0,0.0,0.0,0.0,0.0,0.0,0.0,0.0,0.0,0.0,0.0,0.0,0.0,0.0,0.0,0.0,0.0,0.0,0.0,0.0,0.0,0.0,0.0,0.0,0.0,0.0,0.0,0.0,0.0,0.0,0.0,0.0,0.0,0.0,0.0,0.0,0.0,0.0,0.0,0.0,0.0,0.0,0.0,0.0,0.0,0.0,0.0,0.0,0.0,0.0,0.0,0.0,0.0,3.2419,3.7007,3.9696,4.0084,4.0378,4.0562,4.0652,3.7419,3.5714,0.0,0.0,0.0,0.0,0.0,0.0,0.0,0.0,0.0,0.0,0.0,0.0,0.0,0.0,0.0,0.0,0.0,0.0,0.0,0.0,0.0,0.0,0.0,0.0,0.0,0.0,0.0,0.0,0.0,0.0,0.0,0.0,0.0,0.0,0.0,0.0,0.0,0.0,0.0,0.0,0.0,3.7074,3.5783,3.5433,3.4973,0.0,0.0,3.5572,3.6079,3.7025,0.0,0.0,0.0,0.0,0.0,0.0,0.0,0.0,0.0,0.0,0.0,0.0,0.0,0.0,0.0,0.0,0.0,0.0,0.0,0.0,0.0,0.0,0.0,0.0,0.0,0.0,0.0,0.0,0.0,0.0,0.0,0.0,0.0,0.0,0.0,0.0,0.0,0.0,0.0,0.0,0.0,0.0,0.0,0.0,0.0,0.0,0.0,0.0,0.0,0.0,0.0,0.0,0.0,0.0,0.0,3.3686,3.3127,3.7599,4.0077,4.0163,4.0427,4.0616,4.0735,3.6528,3.4755,0.0,0.0,0.0,0.0,0.0,0.0,0.0,0.0,0.0,0.0,0.0,0.0,0.0,0.0,0.0,0.0,0.0,0.0,0.0,0.0,0.0,0.0,0.0,0.0,0.0,0.0,0.0,0.0,0.0,0.0,0.0,0.0,0.0,0.0,0.0,0.0,0.0,0.0,0.0,0.0,0.0,0.0,3.7127,3.6739,0.0,0.0,0.0,3.6265,3.5694,0.0,0.0,0.0,0.0,0.0,0.0,0.0,0.0,0.0,0.0,0.0,0.0,0.0,0.0,0.0,0.0,0.0,0.0,0.0,0.0,0.0,0.0,0.0,0.0,0.0,0.0,0.0,0.0,0.0,0.0,0.0,0.0,0.0,0.0,0.0,0.0,0.0,0.0,0.0,0.0,0.0,0.0,0.0,0.0,0.0,0.0,0.0,0.0,0.0,0.0,0.0,0.0,0.0,0.0,0.0,0.0,0.0,3.3619,3.7863,4.0147,4.0233,4.0465,4.0647,4.0698,3.6689,0.0,0.0,0.0,0.0,0.0,0.0,0.0,0.0,0.0,0.0,0.0,0.0,0.0,0.0,0.0,0.0,0.0,0.0,0.0,0.0,0.0,0.0,0.0,0.0,0.0,0.0,0.0,2.9929,0.0,0.0,0.0,0.0,0.0,0.0,0.0,0.0,0.0,0.0,0.0,0.0,0.0,0.0,3.674,3.7773,3.7561,3.7221,0.0,0.0,3.7334,3.6395,3.7822,3.8085,0.0,0.0,0.0,0.0,0.0,0.0,0.0,0.0,0.0,0.0,0.0,0.0,0.0,0.0,0.0,0.0,0.0,0.0,0.0,0.0,0.0,0.0,0.0,0.0,0.0,0.0,0.0,0.0,0.0,0.0,0.0,0.0,0.0,0.0,0.0,0.0,0.0,0.0,0.0,0.0,0.0,0.0,0.0,0.0,0.0,0.0,0.0,0.0,0.0,0.0,0.0,0.0,0.0,0.0,0.0,3.3675,3.7863,4.0167,4.0283,4.05,4.0652,4.0679,3.899,3.7311,0.0,0.0,0.0,0.0,0.0,0.0,0.0,0.0,0.0,0.0,0.0,0.0,0.0,0.0,0.0,0.0,0.0,0.0,0.0,0.0,0.0,0.0,0.0,0.0,0.0,0.0,0.0,0.0,0.0,0.0,0.0,0.0,0.0,0.0,0.0,0.0,0.0,0.0,0.0,0.0,0.0,3.8346,3.7252,3.7735,3.8529,0.0,0.0,3.9783,4.0534,4.2687,4.321,3.9797,0.0,0.0,0.0,0.0,0.0,0.0,0.0,0.0,0.0,0.0,0.0,0.0,0.0,0.0,0.0,0.0,0.0,0.0,0.0,0.0,0.0,0.0,0.0,0.0,0.0,0.0,0.0,0.0,0.0,0.0,0.0,0.0,0.0,0.0,0.0,0.0,0.0,0.0,0.0,0.0,0.0,0.0,0.0,0.0,0.0,0.0,0.0,0.0,0.0,0.0,0.0,0.0,0.0,3.4516,3.44,3.8135,4.0182,4.0366,4.0521,4.0615,4.0707,3.8641,3.6732,0.0,0.0,0.0,0.0,0.0,0.0,0.0,0.0,0.0,0.0,0.0,0.0,0.0,0.0,0.0,0.0,0.0,0.0,0.0,0.0,0.0,0.0,0.0,0.0,0.0,0.0,0.0,0.0,3.1908,3.21,3.2625,0.0,0.0,0.0,0.0,0.0,0.0,0.0,0.0,0.0,0.0,3.8692,3.9738,4.0277,0.0,0.0,4.1254,4.1145,4.0948,4.1336,4.0862,3.8383,3.754,0.0,0.0,0.0,0.0,0.0,0.0,0.0,0.0,0.0,0.0,0.0,0.0,0.0,0.0,0.0,0.0,0.0,0.0,0.0,0.0,0.0,0.0,0.0,0.0,0.0,0.0,0.0,0.0,0.0,0.0,0.0,0.0,0.0,0.0,0.0,0.0,0.0,0.0,0.0,0.0,0.0,0.0,0.0,0.0,0.0,0.0,0.0,0.0,0.0,0.0,0.0,0.0,3.5073,3.5238,3.843,4.0191,4.0407,4.0531,4.0619,4.063,3.9043,3.7366,0.0,0.0,0.0,0.0,0.0,0.0,0.0,0.0,0.0,0.0,0.0,0.0,0.0,0.0,0.0,0.0,0.0,0.0,0.0,0.0,0.0,0.0,0.0,0.0,0.0,0.0,0.0,0.0,3.2838,3.3156,3.4016,0.0,0.0,0.0,0.0,0.0,0.0,0.0,0.0,0.0,0.0,3.9475,4.1115,4.1515,4.1658,4.1801,4.1798,4.1646,4.1288,4.0987,4.0181,3.8346,0.0,0.0,0.0,0.0,0.0,0.0,0.0,0.0,0.0,0.0,0.0,0.0,0.0,0.0,0.0,0.0,0.0,0.0,0.0,0.0,0.0,0.0,0.0,0.0,0.0,0.0,0.0,0.0,0.0,0.0,3.3026,0.0,0.0,0.0,0.0,0.0,0.0,0.0,0.0,0.0,0.0,0.0,0.0,0.0,0.0,0.0,0.0,0.0,0.0,0.0,0.0,0.0,0.0,3.59,3.6007,3.87,4.0191,4.0402,4.0522,4.0629,4.0685,4.0755,3.997,3.8199,0.0,0.0,0.0,0.0,0.0,0.0,0.0,0.0,0.0,0.0,0.0,0.0,0.0,0.0,0.0,0.0,0.0,0.0,0.0,0.0,0.0,0.0,0.0,0.0,0.0,0.0,3.3028,3.2863,3.3165,0.0,0.0,0.0,0.0,0.0,0.0,0.0,0.0,0.0,0.0,3.922,4.0982,4.0703,4.0707,4.0889,4.1005,4.0946,4.1157,4.204,4.2755,4.2712,0.0,0.0,0.0,0.0,0.0,0.0,0.0,0.0,0.0,0.0,0.0,0.0,0.0,0.0,0.0,0.0,0.0,0.0,0.0,0.0,0.0,0.0,0.0,0.0,0.0,0.0,0.0,3.5404,3.5392,0.0,0.0,0.0,0.0,0.0,0.0,0.0,0.0,0.0,0.0,0.0,3.8385,3.7845,0.0,0.0,0.0,0.0,0.0,0.0,0.0,0.0,0.0,0.0,0.0,0.0,3.5932,3.6115,3.8714,4.0177,4.0344,4.0469,4.0545,4.0556,4.0735,4.0007,3.8266,0.0,0.0,0.0,0.0,0.0,0.0,0.0,0.0,0.0,0.0,0.0,0.0,0.0,0.0,0.0,0.0,0.0,0.0,0.0,0.0,0.0,0.0,0.0,0.0,0.0,3.4771,0.0,0.0,0.0,0.0,0.0,0.0,0.0,0.0,0.0,0.0,0.0,3.7509,3.8588,3.9815,4.0771,4.1183,4.1848,4.2511,0.0,0.0,0.0,0.0,0.0,0.0,0.0,0.0,0.0,0.0,0.0,0.0,0.0,0.0,4.0478,3.8006,3.7324,3.7191,3.7516,0.0,0.0,0.0,0.0,0.0,0.0,0.0,0.0,0.0,0.0,0.0,0.0,0.0,0.0,3.7114,0.0,3.7173,0.0,0.0,0.0,0.0,0.0,0.0,0.0,0.0,3.9703,4.0204,4.0095,3.9558,3.9119,0.0,3.8204,3.673,0.0,0.0,0.0,0.0,0.0,0.0,0.0,0.0,3.6491,3.6955,3.8993,4.0182,4.036,4.0491,4.0578,4.06,4.0715,3.9968,3.8277,3.5705,3.4047,0.0,0.0,0.0,0.0,0.0,0.0,0.0,0.0,0.0,0.0,0.0,0.0,0.0,0.0,0.0,0.0,0.0,0.0,0.0,0.0,0.0,0.0,0.0,3.5396,0.0,0.0,0.0,0.0,0.0,0.0,0.0,0.0,0.0,3.7279,3.8199,3.9095,3.9502,4.0425,4.1194,4.1578,0.0,0.0,0.0,0.0,0.0,0.0,0.0,4.1216,4.0641,4.0994,4.1336,4.1329,4.2221,4.2771,4.2229,0.0,0.0,4.0092,3.9425,3.9288,3.9637,3.9367,3.9128,3.9388,3.9138,3.8809,0.0,0.0,0.0,0.0,0.0,0.0,0.0,0.0,3.8123,3.8112,0.0,3.8189,0.0,0.0,0.0,0.0,0.0,4.0156,0.0,0.0,4.2695,4.3431,4.1978,4.1813,4.1357,4.0647,4.0451,3.9485,3.7859,3.6352,0.0,0.0,0.0,0.0,0.0,0.0,3.7629,3.8525,3.9644,4.031,4.0554,4.0674,4.0765,4.0769,4.0729,3.9965,3.8442,3.7394,3.6129,3.4507,3.3574,0.0,0.0,0.0,0.0,0.0,0.0,0.0,0.0,0.0,0.0,0.0,0.0,0.0,0.0,0.0,0.0,0.0,0.0,0.0,0.0,3.5389,0.0,0.0,0.0,0.0,0.0,0.0,0.0,0.0,0.0,0.0,3.7089,3.9357,4.0723,3.935,0.0,0.0,0.0,0.0,4.1713,4.1825,4.1765,4.2063,4.2927,4.295,4.2865,4.286,0.0,0.0,4.2932,4.2952,4.3028,4.2928,4.3,4.2966,4.2942,4.2114,4.1831,4.2549,4.2033,4.1918,4.2589,4.2072,4.177,4.0916,0.0,0.0,0.0,0.0,3.93,3.9927,4.0818,4.0785,4.0762,4.0777,4.0727,0.0,0.0,0.0,0.0,0.0,0.0,4.1709,4.1914,4.3496,4.4277,4.4348,4.376,4.3362,4.3118,4.2472,4.188,4.1341,4.0816,3.9371,3.7022,0.0,0.0,0.0,0.0,3.9089,3.9578,4.1179,4.1819,4.1366,4.1441,4.1195,4.0589,4.0612,4.0413,3.9937,3.9054,3.8106,3.7054,3.6117,0.0,0.0,0.0,0.0,0.0,0.0,0.0,0.0,0.0,0.0,0.0,0.0,0.0,0.0,0.0,0.0,0.0,0.0,0.0,3.8004,3.7436,3.7171,0.0,0.0,0.0,0.0,0.0,0.0,0.0,0.0,0.0,4.0105,4.0096,4.0187,0.0,0.0,4.0764,4.1274,4.1519,4.2048,4.323,0.0,0.0,0.0,4.331,4.2918,4.2918,4.3416,4.3809,4.3752,4.4269,4.447,4.3813,4.4155,4.4525,4.4412,4.3314,4.2565,4.2728,4.2541,4.2418,4.2662,4.2249,4.1829,4.4861,4.3372,4.2023,4.1662,4.195,4.197,4.2494,4.3297,4.2953,4.2814,4.2776,4.242,4.1743,4.0901,4.0865,0.0,0.0,0.0,4.2829,4.3374,4.4226,4.4911,4.5352,4.4848,4.4436,4.4106,4.3546,4.3071,4.2717,4.2681,4.1584,3.948,0.0,0.0,3.9069,3.9782,4.0386,4.0891,4.214,4.2608,4.2264,4.2331,4.2135,4.1652,4.1555,4.1593,4.165,4.0447,3.9572,3.9089,3.7894,3.7197,0.0,0.0,0.0,0.0,0.0,0.0,0.0,0.0,0.0,0.0,0.0,3.6837,0.0,0.0,0.0,0.0,3.7655,3.8546,3.8576,3.8089,0.0,0.0,0.0,0.0,0.0,0.0,0.0,4.0373,4.1653,4.2392,4.1765,4.1158,4.0941,4.133,4.1135,4.12,4.1758,0.0,4.257,4.3885,4.3642,4.3647,4.4494,4.4183,4.3833,4.3857,4.4283,4.4594,4.4558,4.4993,4.5086,4.4666,4.4838,4.5148,4.5114,4.4266,4.3623,4.3689,4.3645,4.3605,4.3643,4.3189,4.2812,4.8255,4.7924,4.4806,4.3891,4.4499,4.4499,4.4964,4.563,4.4839,4.4499,4.4442,4.3656,4.2785,4.1891,4.1886,0.0,4.1963,4.35,4.4182,4.4225,4.5019,4.537,4.5378,4.5259,4.4813,4.4092,4.3953,4.3523,4.2852,4.2803,4.2762,4.2668,4.1838,4.1635,4.1982,4.1468,4.1596,4.2405,4.2798,4.3056,4.3179,4.3243,4.3279,4.3232,4.3088,4.3022,4.3111,4.1511,4.0566,4.0465,3.8953,3.8066,3.8013,0.0,0.0,0.0,0.0,0.0,0.0,0.0,0.0,0.0,0.0,0.0,0.0,0.0,0.0,0.0,3.7808,0.0,3.8261,3.8165,0.0,0.0,0.0,4.0647,4.1319,4.2151,4.2664,4.2602,0.0,0.0,4.243,0.0,4.2538,4.2837,4.281,4.2783,4.284,4.2859,4.3161,4.4029,4.4092,4.4378,4.5057,4.5171,4.5114,4.5114,4.5291,4.5213,4.5145,4.5173,4.5164,4.5057,4.5078,4.5129,4.5167,4.5115,4.5136,4.5251,4.5124,4.5034,4.4935,4.4619,4.4296,5.0401,4.9667,4.8878,4.7971,4.7091,4.7091,4.7211,4.7375,4.7173,4.7091,4.7072,4.6835,4.6193,4.5309,4.526,4.5224,4.5262,4.5643,4.5828,4.5847,4.6043,4.5807,4.517,4.5142,4.5022,4.4856,4.479,4.4684,4.4513,4.4462,4.4414,4.4402,4.4123,4.3432,4.2375,4.2699,4.3075,4.3432,4.422,4.4393,4.3938,4.337,4.303,4.2924,4.2925,4.2673,4.2093,4.1649,4.0857,3.9677,3.9211,3.8954,3.8884,3.8849,0.0,0.0,0.0,0.0,0.0,0.0,0.0,0.0,0.0,3.8428,3.7755,0.0,3.914,0.0,3.8856,4.0377,4.2256,4.1854,0.0,0.0,4.1892,4.208,4.2202,4.2995,4.3225,4.2528,4.3035,4.3421,4.338,4.3402,4.3701,4.4323,4.3284,4.2663,4.3294,4.3509,4.3871,4.4633,4.4805,4.4919,4.5109,4.5148,4.5205,4.5148,4.5172,4.5123,4.5131,4.5106,4.5108,4.5045,4.5033,4.5263,4.5828,4.5918,4.6158,4.6607,4.5854,4.4943,4.4931,4.47,4.4462,5.1031,5.0213,5.0213,4.9714,4.8932,4.8966,4.8977,4.8958,4.8567,4.8403,4.8384,4.7949,4.7478,4.6995,4.6966,4.6949,4.693,4.6935,4.693,4.693,4.693,4.6663,4.6206,4.6177,4.5975,4.5633,4.559,4.5402,4.5041,4.4986,4.4949,4.4949,4.4913,4.444,4.3563,4.3919,4.4183,4.4304,4.4918,4.5089,4.4726,4.4331,4.3865,4.3398,4.3412,4.3043,4.2249,4.1884,4.1306,4.0429,3.9991,3.9764,3.9739,3.9678,3.9816,0.0,0.0,0.0,0.0,0.0,0.0,0.0,0.0,0.0,0.0,0.0,4.0501,3.9943,4.0733,4.1817,4.3194,4.2881,4.2588,4.2566,4.2908,4.3095,4.3039,4.3792,4.4078,4.3568,4.3947,4.4226,4.4232,4.4281,4.4608,4.5405,4.4668,4.4094,4.4217,4.4342,4.4575,4.5013,4.5103,4.5261,4.5603,4.5978,4.6206,4.6206,4.6206,4.6195,4.6171,4.6165,4.6147,4.6087,4.605,4.6196,4.6645,4.674,4.691,4.7112,4.6625,4.6019,4.6001,4.5879,4.5736,5.1148,5.0273,5.0273,5.0215,5.0108,5.0164,5.0169,5.0137,4.9371,4.9061,4.9017,4.823,4.785,4.7755,4.7743,4.7743,4.7737,4.7737,4.7743,4.7737,4.7743,4.768,4.7565,4.751,4.7049,4.6289,4.6234,4.5735,4.4914,4.5028,4.5066,4.5066,4.516,4.516,4.5066,4.5066,4.5015,4.4926,4.5156,4.5314,4.5361,4.5451,4.5088,4.4302,4.4158,4.3728,4.2899,4.2117,4.1695,4.1662,4.0967,4.0618,4.0713,4.0655,4.0613,0.0,4.0616,0.0,0.0,0.0,0.0,0.0,0.0,0.0,0.0,4.1502,4.1819,4.267,4.2759,4.2797,4.2906,4.29,4.2878,4.2839,4.3485,4.3918,4.3878,4.4554,4.5066,4.5066,4.5141,4.5217,4.5255,4.5217,4.5539,4.6209,4.6285,4.5987,4.5539,4.5435,4.5468,4.5384,4.5403,4.581,4.6418,4.7071,4.747,4.7508,4.7445,4.7547,4.7403,4.7391,4.7378,4.7327,4.7212,4.7319,4.7458,4.7483,4.7527,4.7716,4.7602,4.7416,4.728,4.7193,4.7377,5.253,5.1167,5.1148,5.0742,5.0101,5.0063,5.0076,5.0101,4.9955,4.9873,4.9848,4.9651,4.9169,4.858,4.851,4.8485,4.8485,4.8485,4.8485,4.8485,4.8504,4.8105,4.746,4.7422,4.7005,4.6247,4.6215,4.5748,4.4914,4.5615,4.5963,4.5981,4.6626,4.6601,4.5981,0.0,0.0,0.0,4.5076,4.5164,4.5223,4.5295,4.5253,4.5069,4.4376,0.0,4.2848,4.2058,4.1655,4.1681,4.1527,0.0,0.0,0.0,0.0,0.0,0.0,0.0,0.0,0.0,0.0,0.0,4.2273,4.2153,4.2362,4.2357,4.2694,4.3479,4.3555,4.385,4.4471,4.45,4.447,4.4458,4.4591,4.468,4.4706,4.5426,4.5963,4.5956,4.6506,4.6904,4.6847,4.6923,4.6961,4.7138,4.7169,4.7125,4.6999,4.6935,4.6948,4.6961,4.686,4.7005,4.7188,4.7391,4.7618,4.7435,4.7435,4.7473,4.7511,4.7413,4.7294,4.7305,4.7095,4.7287,4.79,4.8043,4.8254,4.8905,4.8969,4.8634,4.7497,4.7248,4.7236,5.3055,0.0,5.1897,5.1422,0.0,5.061,5.037,4.9986,5.0005,4.9986,5.0005,4.9972,4.9712,4.9351,4.9318,4.9298,4.9305,4.9279,4.9286,4.9279,4.9279,4.9059,4.8616,4.8635,4.8199,4.7441,4.7422,4.6967,4.6184,4.6563,4.6796,4.679,4.7213,4.7188,4.6815,4.6796,4.6184,4.4962,4.5038,4.5101,4.5153,4.5259,4.5111,4.4666,0.0,0.0,0.0,0.0,0.0,0.0,0.0,0.0,0.0,0.0,0.0,4.2691,4.2673,4.2837,4.3199,4.3208,4.3378,4.3753,4.3707,4.3526,4.3175,4.3498,4.3922,4.4326,4.4734,4.5158,4.5551,4.5905,4.6127,4.6127,4.6127,4.6127,4.6165,4.6525,4.6796,4.6815,4.7131,4.7397,4.7397,4.7397,4.7593,4.7972,4.8047,4.8174,4.8464,4.7915,4.7397,4.7416,4.7801,4.8035,4.8085,4.8426,4.8616,4.8635,4.8635,4.8602,4.8553,4.8477,4.8419,4.8302,4.8194,4.8311,4.8649,4.8799,4.8919,4.9287,4.9345,4.9115,4.8329,4.8228,4.828,5.3416,5.2639,5.262,5.2146,5.1407,5.1407,5.0997,5.0322,0.0,0.0,0.0,4.9893,4.9893,4.9893,4.9893,4.9893,4.9893,4.9893,4.9893,4.9893,4.9893,4.9893,4.9893,4.9893,4.9488,4.8717,4.8698,4.8256,4.7434,4.7536,4.7611,4.7649,4.7763,4.7757,4.763,4.7479,4.6721,4.5432,4.5465,4.5529,4.5546,4.566,4.5303,4.4433,4.4262,4.3809,4.3012,4.284,4.2897,4.3179,4.3203,4.333,4.355,4.3563,4.3528,4.3493,4.333,4.361,4.4401,4.4311,4.4561,4.5372,4.5362,4.499,4.4213,4.4743,4.5198,4.5312,4.6,4.6411,4.6411,4.698,4.7397,4.7397,4.7377,4.7339,4.7358,4.7483,4.7513,4.7545,4.7709,4.7767,4.7856,4.7836,4.8019,4.8683,4.882,4.9028,4.9477,4.8709,4.7991,4.8047,4.8559,4.89,4.8995,4.9355,4.986,4.9706,4.9762,4.9816,4.9681,4.9626,4.954,4.926,4.9345,4.9249,4.9286,4.9233,4.9302,4.9313,4.9236,4.9146,4.9154,4.9206,4.9246,5.4238,5.3518,5.3518,5.3018,5.2215,5.2241,5.2165,5.1919,5.053,4.9912,4.9893,4.9893,4.9893,4.9893,4.9893,4.9893,4.9893,4.9893,4.9893,0.0,4.9893,4.9893,4.9893,4.9893,4.9469,4.8755,4.8717,4.8237,4.7574,4.8161,4.8521,4.8597,4.9204,4.9185,4.8502,4.7782,4.7289,4.7062,4.7112,4.7199,4.7253,4.7271,4.6896,4.6096,4.5329,4.4548,4.3697,4.305,4.3306,4.469,4.4766,4.5418,4.6789,4.6846,4.6916,4.6867,4.6191,4.613,4.6883,4.6278,4.6221,4.6954,4.7043,4.6714,4.5937,4.5937,4.6323,4.6942,4.7131,4.7232,4.7232,4.7371,4.7491,4.7434,4.7316,4.7241,4.7336,4.7777,4.8092,4.81,4.8724,4.913,4.9183,4.9141,4.9107,4.9414,4.9321,4.9348,4.9439,4.9537,4.955,4.9545,4.964,4.9715,4.965,4.9791,4.9836,4.9731,4.9728,4.9659,4.9476,4.9379,4.9284,4.9246,4.9113,4.9002,4.8985,4.8978,4.903,4.9057,4.9079,4.9053,4.9136,4.9162,4.9166,5.4685,5.4371,5.4352,5.3878,5.3063,5.2601,5.2393,5.2336,5.1604,5.0997,5.0618,5.0618,5.036,4.9912,4.9893,4.9893,4.9893,4.9893,4.9893,4.9893,4.9893,4.9893,4.9893,4.9893,4.9715,4.9355,4.9336,4.9153,4.8825,4.9147,4.9336,4.9374,4.9734,4.9722,4.9355,4.8957,4.8749,4.873,4.7916,4.751,4.7541,4.7571,4.7424,4.7063,4.6638,4.6277,4.5883,4.5516,4.5662,4.6423,4.6461,4.6792,4.749,4.7541,4.7529,4.7473,4.7125,4.7049,4.7429,4.6997,4.69,4.7259,4.7185,4.7235,4.7404,4.7055,4.6999,4.7378,4.771,4.7921,4.7959,4.828,4.8475,4.8475,4.8422,4.8385,4.8408,4.8626,4.8836,4.8874,4.9163,4.9438,4.9533,4.9472,4.9422,4.9525,4.9464,4.9426,4.9418,4.9521,4.9633,4.9633,4.9633,4.9633,4.9659,4.9633,4.9603,4.9548,4.954,4.9453,4.9313,4.9246,4.9173,4.9054,4.896,4.8899,4.8927,4.889,4.9057,4.9494,4.955,4.968,5.007,5.0265,5.0168,5.4901,5.4901,5.4901,5.4534,5.3916,5.3252,5.2961,5.2961,5.298,5.2506,5.1786,5.1388,5.082,5.0208,5.0,4.9893,4.9893,4.9893,4.9893,4.9893,4.9893,4.9893,4.9893,4.9893,4.9893,4.9893,4.9893,4.9893,4.9893,4.9893,4.9893,4.9893,4.9893,4.9893,4.9893,4.9893,4.9981,5.0094,4.8946,4.8232,4.8049,4.8093,4.8048,4.7858,4.7858,4.7762,4.7572,4.7547,4.7648,4.7838,4.7858,4.7909,4.803,4.8049,4.8004,4.7959,4.7782,4.7687,4.77,4.7749,4.7754,4.7754,4.7562,4.7788,4.8451,4.8156,4.7886,4.7975,4.8388,4.8628,4.8677,4.904,4.9407,4.9407,4.9376,4.9259,4.9334,4.9302,4.9297,4.9297,4.9447,4.9616,4.9637,4.9763,4.9806,4.9648,4.957,4.957,4.9578,4.9701,4.9851,4.983,4.9765,4.9884,4.9887,5.0053,5.0056,4.9904,4.9945,4.9985,4.9861,4.9745,4.9676,4.964,4.9568,4.9615,4.9494,4.9522,4.98,5.0283,5.0395,5.058,5.1119,5.1249,5.1192,5.4901,5.4901,5.4901,5.4863,5.4769,5.4655,5.4591,5.4617,5.4655,5.4212,5.3321,5.1881,5.1199,5.0971,5.0284,4.9981,4.9987,4.9912,4.995,4.9924,4.9893,4.9893,4.9912,4.9893,4.9893,4.9893,4.9893,4.9931,4.9981,4.9981,4.9931,4.9893,4.9893,4.9962,4.995,4.995,5.0296,5.1066,5.094,5.0492,4.9729,4.9698,4.9356,4.8617,4.8623,4.8219,4.7656,4.7422,4.782,4.8503,4.8642,4.8958,4.9577,4.9691,4.9684,4.9658,4.9021,4.8578,4.8641,4.9143,4.9421,4.9459,4.922,4.9136,4.9291,4.9269,4.9288,4.9415,4.9371,4.925,4.9299,4.9343,4.9368,4.9352,4.9321,4.9211,4.927,4.9044,4.8933,4.8942,4.9766,5.0174,5.0338,5.0728,5.0809,5.0184,5.0119,5.0137,5.0193,5.065,5.1078,5.1067,5.0829,5.0853,5.1292,5.1635,5.1347,5.1294,5.1325,5.1144,5.0975,5.0987,5.1137,5.07,5.0952,5.0915,5.0971,5.1156,5.1082,5.1193,5.1305,5.1361,5.1416,5.1546,5.1509,5.4901,5.4901,5.4901,5.4901,5.4901,5.4901,5.4901,5.4901,5.4901,5.4712,5.4287,5.3169,5.2393,5.19,5.1528,5.1376,5.1376,5.1376,5.1104,5.0694,5.0656,5.0391,4.9931,4.9893,4.9893,4.9893,4.9893,5.0151,5.0656,5.113,5.1376,5.1376,5.1376,5.1376,5.1357,5.1395,5.1566,5.19,5.1919,5.1729,5.1433,5.1376,5.1244,5.094,5.0884,5.0751,5.0403,5.0346,5.0523,5.0865,5.0903,5.1035,5.135,5.1272,5.1265,5.1343,5.1073,5.0823,5.073,5.0478,5.0247,5.0115,4.9975,4.9909,5.0008,5.0337,5.0652,5.067,4.9886,4.9292,4.9295,4.9176,4.9092,4.9177,4.9491,4.9792,4.9783,5.0151,5.0376,5.0413,5.0673,5.0923,5.0986,5.121,5.1231,5.0924,5.0869,5.0878,5.0933,5.1212,5.1584,5.1964,5.1896,5.1688,5.1723,5.1602,5.1604,5.1542,5.1478,5.1443,5.149,5.1398,5.1379,5.1435,5.1509,5.1509,5.1305,5.1435,5.1491,5.1881,5.2605,5.2819,5.2828,5.2828,5.28,5.4901,5.4901,5.4901,5.4901,5.4901,5.4901,5.4901,5.4901,5.4901,5.4879,5.4758,5.419,5.36,5.2957,5.2595,5.2393,5.2404,5.2349,5.2006,5.145,5.1187,5.074,5.0196,4.9938,4.9997,5.0239,5.0284,5.0713,5.1502,5.2089,5.2393,5.2393,5.2393,5.2393,5.2393,5.2393,5.2525,5.2734,5.2753,5.2866,5.3056,5.3094,5.2866,5.2468,5.2393,5.2393,5.2393,5.2393,5.2393,5.2393,5.2349,5.2309,5.232,5.2179,5.2152,5.2294,5.2309,5.2261,5.2038,5.1354,5.0889,5.0737,5.0613,5.0568,5.0731,5.1126,5.1405,5.1409,5.0466,4.9859,4.9786,4.9675,4.9577,4.9633,5.019,5.0525,5.0562,5.1082,5.1342,5.1398,5.1528,5.1825,5.1974,5.1918,5.1769,5.1751,5.1732,5.1732,5.1806,5.1955,5.2327,5.2837,5.2921,5.2707,5.2178,5.2206,5.2039,5.2048,5.2187,5.2215,5.2048,5.2067,5.2067,5.2512,5.2159,5.2104,5.2364,5.2289,5.2122,5.2791,5.3339,5.371,5.359,5.3738,5.3757,5.4901,5.4894,5.4901,5.4901,5.4901,5.4901,5.4901,5.4901,5.4894,5.4799,5.4637,5.4557,5.4441,5.4157,5.3033,5.2423,5.2421,5.2337,5.2201,5.1979,5.1124,5.0729,5.0779,5.0096,5.0194,5.0941,5.1055,5.1523,5.2295,5.2416,5.2393,5.2454,5.253,5.2461,5.2511,5.2575,5.2847,5.3567,5.3643,5.3965,5.4609,5.4712,5.3954,5.2696,5.2449,5.2525,5.2487,5.243,5.2442,5.2423,5.2322,5.2183,5.2183,5.2175,5.2239,5.2194,5.2183,5.2124,5.2016,5.1755,5.1559,5.1516,5.1423,5.137,5.1388,5.1546,5.1639,5.1472,5.1453,5.1323,5.1285,5.1082,5.1063,5.1101,5.1268,5.1342,5.1342,5.1509,5.1416,5.1602,5.2159,5.2735,5.345,5.3004,5.2642,5.2549,5.2549,5.2549,5.2642,5.3134,5.3506,5.358,5.3664,5.3701,5.3664,5.3311,5.3413,5.3357,5.3181,5.3487,5.3636,5.3701,5.3608,5.3553,5.3367,5.3367,5.359,5.3627,5.3478,5.3645,5.3608,5.3794,5.3813,5.3813,5.3813,5.4627,5.4719,5.4856,5.4901,5.4901,5.4901,5.4901,5.4867,5.4776,5.4661,5.4589,5.4522,5.443,5.4361,5.3914,5.3688,5.368,5.3596,5.3271,5.2699,5.1834,5.1177,5.0679,5.0386,5.0417,5.0839,5.1374,5.2052,5.2851,5.3386,5.3688,5.3693,5.3761,5.3796,5.3838,5.394,5.4174,5.4427,5.4477,5.4546,5.4704,5.4915,5.4643,5.401,5.3965,5.4013,5.4007,5.3879,5.3769,5.3696,5.3604,5.361,5.3676,5.3692,5.3588,5.3428,5.3495,5.3487,5.3271,5.2771,5.2376,5.2251,5.2196,5.2178,5.2252,5.2624,5.294,5.2893,5.2912,5.294,5.2707,5.2048,5.1398,5.1454,5.1862,5.2178,5.2289,5.2596,5.2921,5.2977,5.3227,5.3487,5.3627,5.3543,5.3376,5.3385,5.3385,5.3348,5.3404,5.3645,5.3813,5.3813,5.3813,5.3813,5.3794,5.3775,5.3775,5.3775,5.3738,5.3701,5.3775,5.3794,5.3683,5.3664,5.3794,5.3794,5.3738,5.3757,5.3813,5.3813,5.3813,5.3813,5.3813,5.3813,5.3813,5.4563,5.4695,5.4765,5.4799,5.4818,5.4745,5.4741,5.4725,5.4592,5.4492,5.4437,5.4337,5.4251,5.4217,5.4208,5.4208,5.4217,5.4251,5.3854,5.2994,5.2146,5.1464,5.0962,5.0651,5.0863,5.1474,5.2281,5.3003,5.351,5.4108,5.439,5.4407,5.4505,5.4517,5.456,5.4675,5.4722,5.4741,5.4741,5.4667,5.4584,5.4738,5.4825,5.4754,5.475,5.478,5.4866,5.4642,5.4519,5.4464,5.4443,5.4449,5.4519,5.4536,5.4412,5.4163,5.4216,5.4225,5.398,5.3487,5.3125,5.3005,5.2995,5.2995,5.3023,5.3497,5.3757,5.3813,5.3813,5.3813,5.3608,5.2819,5.2197,5.2234,5.2661,5.2977,5.3032,5.3441,5.372,5.372,5.372,5.3794,5.3813,5.3794,5.3775,5.3813,5.3813,5.3813,5.3813,5.3813,5.3813,5.3813,5.3813,5.3813,5.3813,5.3813,5.3813,5.3813,5.3813,5.3813,5.3813,5.3813,5.3813,5.3813,5.3813,5.3813,5.3813,5.3813,5.3813,5.3813,5.3813,5.3813,5.3813,5.3813,5.3813,5.4695,5.4818,5.4687,5.4597,5.46,5.4489,5.4434,5.443,5.4407,5.4303,5.4197,5.4118,5.4009,5.387,5.3879,5.3841,5.3879,5.4027,5.3726,5.297,5.2008,5.158,5.1571,5.0963,5.1488,5.2917,5.3868,5.4271,5.4245,5.4293,5.4339,5.4383,5.4373,5.439,5.4409,5.4424,5.4424,5.446,5.4441,5.4434,5.4417,5.4449,5.4525,5.4585,5.4492,5.4536,5.4761,5.4527,5.4422,5.45,5.4422,5.4382,5.4346,5.4382,5.4285,5.4118,5.41,5.4,5.3841,5.3776,5.3711,5.3664,5.3729,5.3664,5.3654,5.3738,5.3813,5.3813,5.3813,5.3813,5.3813,5.3636,5.3543,5.3729,5.3645,5.3645,5.372,5.3775,5.3813,5.3813,5.3813,5.3813,5.3813,5.3813,5.3813,5.3813,5.3813,5.3813,5.3813,5.3813,5.3813,5.3813,5.3813,5.3813,5.3813,5.3813,5.3813,5.3813,5.3813,5.3813,5.3813,5.3813,5.3813,5.3813,5.3813,5.3813,5.3813,5.3813,5.3813,5.3813,5.3813,5.3813,5.3813,5.3813,5.3813,5.4422,5.4371,5.443,5.4474,5.4474,5.4415,5.4458,5.4503,5.4303,5.4224,5.4252,5.4009,5.387,5.3822,5.3813,5.3813,5.3794,5.386,5.3758,5.3405,5.2596,5.2224,5.2223,5.2019,5.2502,5.346,5.3842,5.4,5.4009,5.4009,5.4,5.4019,5.4127,5.418,5.4217,5.4321,5.4409,5.4409,5.4409,5.4339,5.4233,5.442,5.4482,5.4413,5.4349,5.4366,5.4457,5.4293,5.4154,5.4081,5.399,5.3972,5.4,5.4109,5.4091,5.3926,5.3907,5.387,5.3832,5.3813,5.3813,5.3813,5.3813,5.3813,5.3813,5.3813,5.3813,5.3813,5.3813,5.3813,5.3813,5.3813,5.3813,5.3813,5.3813,5.3813,5.3813,5.3813,5.3813,5.3813,5.3813,5.3813,5.3813,5.3813,5.3813,5.3813,5.3813,5.3813,5.3813,5.3813,5.3813,5.3813,5.3813,5.3813,5.3813,5.3813,5.3813,5.3813,5.3813,5.3813,5.3813,5.3813,5.3813,5.3813,5.3813,5.3813,5.3813,5.3813,5.3813,5.3813,5.3813,5.3813,5.3813,5.3813,5.3813,5.4261,5.4207,5.4269,5.4277,5.4278,5.4217,5.4233,5.4265,5.4081,5.4055,5.4101,5.3926,5.3813,5.3813,5.3813,5.3813,5.3813,5.3813,5.3813,5.3683,5.2977,5.2624,5.2661,5.293,5.3274,5.371,5.3813,5.3813,5.3813,5.3813,5.3813,5.3823,5.3926,5.4009,5.3991,5.4119,5.4163,5.4181,5.4154,5.4109,5.4055,5.4187,5.4229,5.4143,5.4116,5.4106,5.4116,5.4027,5.3972,5.3935,5.3991,5.3981,5.3935,5.4036,5.4009,5.386,5.3813,5.3813,5.3813,5.3813,5.3813,5.3813,5.3813,5.3813,5.3813,5.3813,5.3813,5.3813,5.3813,5.3813,5.3813,5.3813,5.3813,5.3813,5.3813,5.3813,5.3813,5.3813,5.3813,5.3813,5.3813,5.3813,5.3813,5.3813,5.3813,5.3813,5.3813,5.3813,5.3813,5.3813,5.3813,5.3813,5.3813,5.3813,5.3813,5.3813,5.3813,5.3813,5.3813,5.3813,5.3813,5.3813,5.3813,5.3813,5.3813,5.3813,5.3813,5.3813,5.3813,5.3813,5.3813,5.3813,5.3813,5.3813,5.3813,5.4189,5.4349,5.4163,5.4082,5.4064,5.3926,5.3879,5.3851,5.3804,5.3832,5.3841,5.3813,5.3813,5.3813,5.3813,5.3813,5.3813,5.3813,5.3813,5.3627,5.3107,5.2791,5.2874,5.3404,5.3701,5.3794,5.3813,5.3813,5.3813,5.3813,5.3813,5.3813,5.3813,5.3794,5.3851,5.3804,5.386,5.387,5.3832,5.3823,5.3832,5.3823,5.3832,5.3823,5.3851,5.3841,5.3851,5.3841,5.3898,5.4045,5.4171,5.4163,5.41,5.4082,5.3972,5.3804,5.3813,5.3813,5.3813,5.3813,5.3813,5.3813,5.3813,5.3813,5.3813,5.3813,5.3813,5.3813,5.3813,5.3813,5.3813,5.3813,5.3813,5.3813,5.3813,5.3813,5.3813,5.3813,5.3813,5.3813,5.3813,5.3813,5.3813,5.3813,5.3813,5.3813,5.3813,5.3813,5.3813,5.3813,5.3813,5.3813,5.3813,5.3813,5.3813,5.3813,5.3813,5.3813,5.3813,5.3813,5.3813,5.3813,5.3813,5.3813,5.3813,5.3813,5.3813,5.3813,5.3813,5.3813,5.3813,5.3813,5.3813,5.3813,5.3813,5.3907,5.3935,5.3889,5.3888,5.387,5.3822,5.3879,5.3991,5.3851,5.387,5.3954,5.387,5.3813,5.3813,5.3813,5.3813,5.3813,5.3813,5.3813,5.3775,5.3627,5.3497,5.3487,5.3683,5.3813,5.3813,5.3813,5.3813,5.3813,5.3813,5.3813,5.3813,5.3813,5.3822,5.3813,5.3813,5.3813,5.3813,5.3794,5.3794,5.3813,5.3813,5.3813,5.3813,5.3813,5.3813,5.3813,5.3813,5.3822,5.386,5.3917,5.3954,5.3907,5.3889,5.386,5.3813,5.3813,5.3813,5.3813,5.3813,5.3813,5.3813,5.3813,5.3813,5.3813,5.3813,5.3813,5.3813,5.3813,5.3813,5.3813,5.3813,5.3813,5.3813,5.3813,5.3813,5.3813,5.3813,5.3813,5.3813,5.3813,5.3813,5.3813,5.3813,5.3813,5.3813,5.3813,5.3813,5.3813,5.3813,5.3813,5.3813,5.3813,5.3813,5.3813,5.3813,5.3813,5.3813,5.3813,5.3813,5.3813,5.3813,5.3813,5.3813,5.3813,5.3813,5.3813,5.3813,5.3813,5.3813,5.3813,5.3813,5.3813,5.3813,5.3813,5.4128,5.3813,5.3813,5.3813,5.3813,5.3813,5.386,5.3935,5.387,5.3851,5.3926,5.387,5.3813,5.3813,5.3813,5.3813,5.3813,5.3813,5.3813,5.3813,5.3775,5.3775,5.3794,5.3813,5.3813,5.3813,5.3813,5.3813,5.3813,5.3813,5.3813,5.3813,5.3813,5.3851,5.4036,5.4018,5.3999,5.4008,5.4018,5.3954,5.3832,5.3813,5.3813,5.3813,5.3813,5.3813,5.3813,5.3813,5.3813,5.3813,5.3813,5.3813,5.3813,5.3813,5.3813,5.3813,5.3813,5.3813,5.3813,5.3813,5.3813,5.3813,5.3813,5.3813,5.3813,5.3813,5.3813,5.3813,5.3813,5.3813,5.3813,5.3813,5.3813,5.3813,5.3813,5.3813,5.3813,5.3813,5.3813,5.3813,5.3813,5.3813,5.3813,5.3813,5.3813,5.3813,5.3813,5.3813,5.3813,5.3813,5.3813,5.3813,5.3813,5.3813,5.3813,5.3813,5.3813,5.3813,5.3813,5.3813,5.3813,5.3813,5.3813,5.3813,5.3813,5.3813,5.3813,5.3813,5.3813,5.3813,5.3813,5.3813,5.3813,5.3813,5.3813,5.4527,5.3813,5.3813,5.3813,5.3813,5.3813,5.3822,5.3794,5.3813,5.3794,5.3804,5.3813,5.3813,5.3813,5.3813,5.3813,5.3813,5.3813,5.3813,5.3813,5.3851,5.3879,5.3813,5.3813,5.3813,5.3813,5.3813,5.3813,5.3813,5.3813,5.3813,5.3813,5.3813,5.3944,5.408,5.4187,5.4238,5.4168,5.4143,5.4027,5.3841,5.3813,5.3813,5.3813,5.3813,5.3813,5.3813,5.3813,5.3813,5.3813,5.3813,5.3813,5.3813,5.3813,5.3813,5.3813,5.3813,5.3813,5.3813,5.3813,5.3813,5.3813,5.3813,5.3813,5.3813,5.3813,5.3813,5.3813,5.3813,5.3813,5.3813,5.3813,5.3813,5.3813,5.3813,5.3813,5.3813,5.3813,5.3813,5.3813,5.3813,5.3813,5.3813,5.3813,5.3813,5.3813,5.3813,5.3813,5.3813,5.3813,5.3813,5.3813,5.3813,5.3813,5.3813,5.3813,5.3813,5.3813,5.3813,5.3813,5.3813,5.3813,5.3813,5.3813,5.3813,5.3813,5.3813,5.3813,5.3813,5.3813,5.3813,5.3813,5.3813,5.3813,5.3813,5.4527,5.3813,5.3813,5.3813,5.3813,5.3813,5.3804,5.3813,5.3813,5.3851,5.3804,5.3804,5.3813,5.3813,5.3851,5.3813,5.3823,5.3813,5.3813,5.3832,5.4098,5.3999,5.387,5.3823,5.3794,5.3813,5.3813,5.3822,5.3832,5.3841,5.3822,5.3832,5.3832,5.3823,5.3944,5.4008,5.3907,5.3907,5.3926,5.3935,5.3841,5.3813,5.3813,5.3813,5.3813,5.3813,5.3813,5.3813,5.3813,5.3813,5.3813,5.3813,5.3813,5.3813,5.3813,5.3813,5.3813,5.3813,5.3813,5.3813,5.3813,5.3813,5.3813,5.3813,5.3813,5.3813,5.3813,5.3813,5.3813,5.3813,5.3813,5.3813,5.3813,5.3813,5.3813,5.3813,5.3813,5.3813,5.3813,5.3813,5.3813,5.3813,5.3813,5.3813,5.3813,5.3813,5.3813,5.3813,5.3813,5.3813,5.3813,5.3813,5.3813,5.3813,5.3813,5.3813,5.3813,5.3813,5.3813,5.3813,5.3813,5.3813,5.3813,5.3813,5.3813,5.3813,5.3813,5.3813,5.3813,5.3813,5.3813,5.3813,5.3813,5.3813,5.3813,5.5219,5.4568,5.4194,5.4134,5.4245,5.4272,5.4272,5.4253,5.4272,5.4168,5.4098,5.4177,5.4177,5.4063,5.4196,5.4203,5.3999,5.386,5.3813,5.3832,5.4,5.4044,5.408,5.4018,5.3981,5.3888,5.3981,5.4036,5.4045,5.4044,5.4124,5.4222,5.3953,5.4054,5.4177,5.4107,5.4063,5.4063,5.4026,5.3972,5.3823,5.3813,5.3813,5.3813,5.3813,5.3813,5.3813,5.3813,5.3813,5.3813,5.3813,5.3813,5.3813,5.3813,5.3813,5.3813,5.3813,5.3813,5.3813,5.3813,5.3813,5.3813,5.3813,5.3813,5.3813,5.3813,5.3813,5.3813,5.3813,5.3813,5.3813,5.3813,5.3813,5.3813,5.3813,5.3813,5.3813,5.3813,5.3813,5.3813,5.3813,5.3813,5.3813,5.3813,5.3813,5.3813,5.3813,5.3813,5.3813,5.3813,5.3813,5.3813,5.3813,5.3813,5.3813,5.3813,5.3813,5.3813,5.3813,5.3813,5.3813,5.3813,5.3813,5.3813,5.3813,5.3813,5.3813,5.3813,5.3813,5.3813,5.3813,5.3813,5.3813,5.3813,5.3813,5.6108,5.5529,5.4842,5.4665,5.4795,5.4795,5.4754,5.4776,5.4818,5.4583,5.4463,5.4693,5.4568,5.4479,5.4639,5.4607,5.4389,5.4246,5.4194,5.408,5.4203,5.4288,5.4364,5.4347,5.4272,5.4018,5.4246,5.4382,5.4372,5.4372,5.4422,5.4568,5.4186,5.4142,5.4511,5.4463,5.4296,5.4347,5.4364,5.422,5.3981,5.3907,5.3907,5.3813,5.3813,5.3813,5.3813,5.3813,5.3813,5.3813,5.3813,5.3813,5.3813,5.3813,5.3813,5.3813,5.3813,5.3813,5.3813,5.3813,5.3813,5.3813,5.3813,5.3813,5.3813,5.3813,5.3813,5.3813,5.3813,5.3813,5.3813,5.3813,5.3813,5.3813,5.3813,5.3813,5.3813,5.3813,5.3813,5.3813,5.3813,5.3813,5.3813,5.3813,5.3813,5.3813,5.3813,5.3813,5.3813,5.3813,5.3813,5.3813,5.3813,5.3813,5.3813,5.3813,5.3813,5.3813,5.3813,5.3813,5.3813,5.3813,5.3813,5.3813,5.3813,5.3813,5.3813,5.3813,5.3813,5.3813,5.3813,5.3813,5.3813,5.3813,5.3813,5.6663,5.5912,5.578,5.5367,5.4875,5.4825,5.4893,5.4818,5.4927,5.4776,5.4723,5.4795,5.4791,5.4739,5.4754,5.4761,5.4754,5.4818,5.4826,5.4684,5.4867,5.5063,5.4856,5.4875,5.4791,5.4651,5.4788,5.4856,5.4723,5.4723,5.475,5.4473,5.4306,5.4355,5.4497,5.433,5.4471,5.4607,5.4623,5.4438,5.4246,5.4125,5.3999,5.3832,5.3813,5.3813,5.3813,5.3813,5.3813,5.3813,5.3813,5.3813,5.3813,5.3813,5.3813,5.3813,5.3813,5.3813,5.3813,5.3813,5.3813,5.3813,5.3813,5.3813,5.3813,5.3813,5.3813,5.3813,5.3813,5.3813,5.3813,5.3813,5.3813,5.3813,5.3813,5.3813,5.3813,5.3813,5.3813,5.3813,5.3813,5.3813,5.3813,5.3813,5.3813,5.3813,5.3813,5.3813,5.3813,5.3813,5.3813,5.3813,5.3813,5.3813,5.3813,5.3813,5.3813,5.3813,5.3813,5.3813,5.3813,5.3813,5.3813,5.3813,5.3813,5.3813,5.3813,5.3813,5.3813,5.3813,5.3813,5.3813,5.3813,5.3813,5.3813,5.7142,5.6806,5.6002,5.5775,5.5925,5.5938,5.5944,5.5944,5.5912,5.5498,5.5026,5.4978,5.4945,5.488,5.5014,5.5063,5.5173,5.547,5.5313,5.5093,5.5757,5.6075,5.5734,5.5691,5.6131,5.63,5.6206,5.5585,5.5114,5.5063,5.5289,5.5479,5.5023,5.4835,5.5155,5.4885,5.4745,5.4814,5.4673,5.4487,5.4298,5.4151,5.3935,5.386,5.3813,5.3813,5.3813,5.3813,5.3813,5.3813,5.3813,5.3813,5.3813,5.3813,5.3813,5.3813,5.3813,5.3813,5.3813,5.3813,5.3813,5.3813,5.3813,5.3813,5.3813,5.3813,5.3813,5.3813,5.3813,5.3813,5.3813,5.3813,5.3813,5.3813,5.3813,5.3813,5.3813,5.3813,5.3813,5.3813,5.3813,5.3813,5.3813,5.3813,5.3813,5.3813,5.3813,5.3813,5.3813,5.3813,5.3813,5.3813,5.3813,5.3813,5.3813,5.3813,5.3813,5.3813,5.3813,5.3813,5.3813,5.3813,5.3813,5.3813,5.3813,5.3813,5.3813,5.3813,5.3813,5.3813,5.3813,5.3813,5.3813,5.3813,5.3813,5.752,5.7436,5.6174,5.6174,5.6909,5.6786,5.6794,5.6978,5.6942,5.6196,5.5166,5.5434,5.5434,5.5143,5.5256,5.5472,5.5645,5.6071,5.5966,5.608,5.6825,5.7201,5.6964,5.6964,5.7256,5.7672,5.7488,5.6806,5.6281,5.6123,5.647,5.6575,5.585,5.5781,5.6364,5.6022,5.5448,5.5087,5.4915,5.4676,5.4293,5.4,5.3813,5.3813,5.3813,5.3813,5.3813,5.3813,5.3813,5.3813,5.3813,5.3813,5.3813,5.3813,5.3813,5.3813,5.3813,5.3813,5.3813,5.3813,5.3813,5.3813,5.3813,5.3813,5.3813,5.3813,5.3813,5.3813,5.3813,5.3813,5.3813,5.3813,5.3813,5.3813,5.3813,5.3813,5.3813,5.3813,5.3813,5.3813,5.3813,5.3813,5.3813,5.3813,5.3813,5.3813,5.3813,5.3813,5.3813,5.3813,5.3813,5.3813,5.3813,5.3813,5.3813,5.3813,5.3813,5.3813,5.3813,5.3813,5.3813,5.3813,5.3813,5.3813,5.3813,5.3813,5.3813,5.3813,5.3813,5.3813,5.3813,5.3813,5.3813,5.3813,5.3813,5.7751,5.7088,5.6901,5.6879,5.694,5.6343,5.6401,5.7055,5.7113,5.6481,5.5644,5.6274,5.6186,5.5748,5.5585,5.6058,5.6617,5.686,5.7127,5.746,5.804,5.825,5.8058,5.8101,5.8212,5.855,5.8319,5.8115,5.7822,5.7797,5.7745,5.766,5.7519,5.7536,5.7589,5.7202,5.7051,5.6413,5.6193,5.5576,5.4538,5.4065,5.3915,5.3887,5.3831,5.3813,5.3813,5.3813,5.3813,5.3813,5.3813,5.3813,5.3813,5.3813,5.3813,5.3813,5.3813,5.3813,5.3813,5.3813,5.3813,5.3813,5.3813,5.3813,5.3813,5.3813,5.3813,5.3813,5.3813,5.3813,5.3813,5.3813,5.3813,5.3813,5.3813,5.3813,5.3813,5.3813,5.3813,5.3813,5.3813,5.3813,5.3813,5.3813,5.3813,5.3813,5.3813,5.3813,5.3813,5.3813,5.3813,5.3813,5.3813,5.3813,5.3813,5.3813,5.3813,5.3813,5.3813,5.3813,5.3813,5.3813,5.3813,5.3813,5.3813,5.3813,5.3813,5.3813,5.3813,5.3813,5.3813,5.3813,5.3813,5.3813,5.3813,5.8761,5.8382,5.794,5.8017,5.8338,5.7998,5.8074,5.8248,5.7915,5.7125,5.6246,5.6004,5.6042,5.6064,5.5863,5.6467,5.7473,5.7723,5.7896,5.8602,5.9127,5.9396,5.9058,5.9025,5.9146,5.9435,5.9319,5.9358,5.9281,5.8788,5.836,5.8704,5.8366,5.8302,5.8591,5.8067,5.7587,5.7141,5.6781,5.6231,5.5472,5.4838,5.4472,5.4444,5.4026,5.385,5.3813,5.3813,5.3813,5.3813,5.3813,5.3813,5.3813,5.3813,5.3813,5.3813,5.3813,5.3813,5.3813,5.3813,5.3813,5.3813,5.3813,5.3813,5.3813,5.3813,5.3813,5.3813,5.3813,5.3813,5.3813,5.3813,5.3813,5.3813,5.3813,5.3813,5.3813,5.3813,5.3813,5.3813,5.3813,5.3813,5.3813,5.3813,5.3813,5.3813,5.3813,5.3813,5.3813,5.3813,5.3813,5.3813,5.3813,5.3813,5.3813,5.3813,5.3813,5.3813,5.3813,5.3813,5.3813,5.3813,5.3813,5.3813,5.3813,5.3813,5.3813,5.3813,5.3813,5.3813,5.3813,5.3813,5.3813,5.3813,5.3813,5.9819,5.9723,5.8717,5.8781,5.9415,5.9069,5.9088,5.9358,5.8319,5.7434,5.6682,5.6089,5.616,5.6542,5.6587,5.73,5.855,5.8583,5.8756,5.9338,5.9973,6.0281,5.9992,5.9896,6.0146,6.0781,6.0108,6.0108,6.0108,5.9781,5.939,5.9781,5.9381,5.9335,5.9416,5.9013,5.8365,5.7666,5.6931,5.6435,5.6074,5.5374,5.5047,5.4732,5.4296,5.3813,5.3813,5.3813,5.3813,5.3813,5.3813,5.3813,5.3813,5.3813,5.3813,5.3813,5.3813,5.3813,5.3813,5.3813,5.3813,5.3813,5.3813,5.3813,5.3813,5.3813,5.3813,5.3813,5.3813,5.3813,5.3813,5.3813,5.3813,5.3813,5.3813,5.3813,5.3813,5.3813,5.3813,5.3813,5.3813,5.3813,5.3813,5.3813,5.3813,5.3813,5.3813,5.3813,5.3813,5.3813,5.3813,5.3813,5.3813,5.3813,5.3813,5.3813,5.3813,5.3813,5.3813,5.3813,5.3813,5.3813,5.3813,5.3813,5.3813,5.3813,5.3813,5.3813,5.3813,5.3813,5.3813,5.3813,5.3813,5.3813,5.3813,6.0704,6.0569,5.8992,5.8813,5.9454,5.7805,5.8151,5.9319,5.7844,5.7159,5.6923,5.6868,5.6832,5.7156,5.7708,5.8396,5.9435,5.9429,5.9742,6.0248,6.0748,6.0704,6.0531,6.055,6.0646,6.0762,6.0531,6.0608,6.0748,6.0531,6.0454,6.0652,6.0262,6.0531,6.0435,5.9873,5.8991,5.8148,5.7182,5.6691,5.633,5.5772,5.5252,5.501,5.436,5.3803,5.3831,5.3943,5.3961,5.3961,5.385,5.3813,5.3813,5.3813,5.3813,5.3813,5.3813,5.3813,5.3813,5.3813,5.3813,5.3813,5.3813,5.3813,5.3813,5.3813,5.3813,5.3813,5.3813,5.3813,5.3813,5.3813,5.3813,5.3813,5.3813,5.3813,5.3813,5.3813,5.3813,5.3813,5.3813,5.3813,5.3813,5.3813,5.3813,5.3813,5.3813,5.3813,5.3813,5.3813,5.3813,5.3813,5.3813,5.3813,5.3813,5.3813,5.3813,5.3813,5.3813,5.3813,5.3813,5.3813,5.3813,5.3813,5.3813,5.3813,5.3813,5.3813,5.3813,5.3813,5.3813,5.3813,5.3813,5.3813,5.3813,6.08,6.0723,6.0094,6.0012,6.0262,5.9613,5.9396,5.9281,5.83,5.7459,5.7016,5.7036,5.7594,5.8286,5.828,5.9069,6.0069,5.9685,6.0146,6.0537,6.0781,6.08,6.08,6.08,6.0781,6.08,6.08,6.08,6.0781,6.08,6.08,6.0781,6.08,6.0781,6.0634,6.0272,5.9404,5.8681,5.8011,5.7769,5.7621,5.6997,5.6533,5.6459,5.5763,5.5382,5.5289,5.4787,5.462,5.4397,5.4063,5.3905,5.3813,5.3813,5.3813,5.3813,5.3813,5.3813,5.3813,5.3813,5.3813,5.3813,5.3813,5.3813,5.3813,5.3813,5.3813,5.3813,5.3813,5.3813,5.3813,5.3813,5.3813,5.3813,5.3813,5.3813,5.3813,5.3813,5.3813,5.3813,5.3813,5.3813,5.3813,5.3813,5.3813,5.3813,5.3813,5.3813,5.3813,5.3813,5.3813,5.3813,5.3813,5.3813,5.3813,5.3813,5.3813,5.3813,5.3813,5.3813,5.3813,5.3813,5.3813,5.3813,5.3813,5.3813,5.3813,5.3813,5.3813,5.3813,5.3813,5.3813,5.3813,5.3813,5.3813,6.08,6.08,6.08,6.08,6.0762,6.0517,6.0223,5.9704,5.8415,5.7607,5.7055,5.7478,5.8325,5.9127,5.9358,5.9569,6.0396,6.0281,6.0377,6.0608,6.08,6.08,6.08,6.08,6.08,6.08,6.08,6.08,6.08,6.08,6.08,6.08,6.08,6.08,6.0647,6.0131,5.9452,5.8884,5.8687,5.8687,5.8539,5.787,5.7406,5.7249,5.6562,5.6172,5.5995,5.5614,5.5215,5.4909,5.4518,5.41,5.3924,5.3813,5.3813,5.3813,5.3813,5.3831,5.3813,5.3813,5.3813,5.3813,5.3813,5.3813,5.3813,5.3813,5.3813,5.3813,5.3813,5.3813,5.3813,5.3813,5.3813,5.3813,5.3813,5.3813,5.3813,5.3813,5.3813,5.3813,5.3813,5.3813,5.3813,5.3813,5.3813,5.3813,5.3813,5.3813,5.3813,5.3813,5.3813,5.3813,5.3813,5.3813,5.3813,5.3813,5.3813,5.3813,5.3813,5.3813,5.3813,5.3813,5.3813,5.3813,5.3813,5.3813,5.3813,5.3813,5.3813,5.3813,5.3813,5.3813,5.3813,5.3813,5.3813,6.08,6.08,6.08,6.08,6.071,5.9915,5.9973,6.0171,5.8248,5.7247,5.744,5.8594,5.9319,5.9723,6.0146,6.0512,6.0646,6.0685,6.0723,6.0762,6.08,6.08,6.08,6.08,6.08,6.08,6.08,6.08,6.08,6.08,6.08,6.08,6.08,6.0734,6.0722,6.0143,5.9452,5.8813,5.8708,5.8687,5.8539,5.8019,5.7759,5.7517,5.7119,5.6785,5.671,5.645,5.6023,5.554,5.5029,5.4527,5.4073,5.3989,5.3914,5.3803,5.3952,5.3961,5.3868,5.3831,5.3813,5.3813,5.3813,5.3813,5.3813,5.3813,5.3813,5.3813,5.3813,5.3813,5.3813,5.3813,5.3813,5.3813,5.3813,5.3813,5.3813,5.3813,5.3813,5.3813,5.3813,5.3813,5.3813,5.3813,5.3813,5.3813,5.3813,5.3813,5.3813,5.3813,5.3813,5.3813,5.3813,5.3813,5.3813,5.3813,5.3813,5.3813,5.3813,5.3813,5.3813,5.3813,5.3813,5.3813,5.3813,5.3813,5.3813,5.3813,5.3813,5.3813,5.3813,5.3813,5.3813,5.3813,5.3813,6.08,6.08,6.08,6.08,6.0748,6.0492,6.0242,5.9742,5.8569,5.8146,5.8646,5.9358,5.9877,6.0319,6.0575,6.0806,6.08,6.08,6.08,6.08,6.08,6.08,6.08,6.08,6.08,6.08,6.08,6.08,6.08,6.08,6.08,6.08,6.0757,6.054,6.0223,5.9799,5.9433,5.8833,5.8687,5.8687,5.865,5.8409,5.826,5.8223,5.7889,5.7751,5.7676,5.7323,5.6859,5.6347,5.5846,5.4992,5.4639,5.4564,5.4304,5.4304,5.45,5.515,5.4639,5.423,5.3813,5.3831,5.3868,5.3887,5.3822,5.3813,5.3813,5.3813,5.3831,5.3831,5.3813,5.3813,5.3813,5.3813,5.3813,5.3813,5.3813,5.3813,5.3813,5.3813,5.3813,5.3813,5.3813,5.3813,5.3813,5.3813,5.3813,5.3813,5.3813,5.3813,5.3813,5.3813,5.3813,5.3813,5.3813,5.3813,5.3813,5.3813,5.3813,5.3813,5.3813,5.3813,5.3813,5.3813,5.3813,5.3813,5.3813,5.3813,5.3813,5.3813,5.3813,5.3813,5.3813,5.3813,5.3813,6.08,6.08,6.08,6.08,6.08,6.08,6.03,5.9569,5.9242,5.935,5.9559,5.9809,6.0258,6.07,6.0835,6.0831,6.0806,6.08,6.08,6.08,6.08,6.08,6.08,6.08,6.08,6.08,6.08,6.08,6.08,6.08,6.08,6.08,6.0794,6.0738,6.0386,6.0121,5.9521,5.9015,5.8825,5.8687,5.8687,5.8632,5.865,5.8632,5.8595,5.8613,5.852,5.8223,5.7759,5.7257,5.6552,5.5689,5.553,5.5103,5.4816,5.4797,5.4667,5.5094,5.4453,5.4564,5.4286,5.4304,5.4212,5.4212,5.423,5.4304,5.4296,5.424,5.3998,5.385,5.3813,5.3813,5.3868,5.3887,5.3887,5.3887,5.3868,5.3868,5.3813,5.3813,5.3813,5.3813,5.3813,5.3813,5.3813,5.3813,5.3813,5.3813,5.3813,5.3813,5.3813,5.3813,5.3813,5.3813,5.3813,5.3813,5.3813,5.3813,5.3813,5.3813,5.3813,5.3813,5.3813,5.3813,5.3813,5.3813,5.3813,5.3813,5.3813,5.3813,5.3813,5.3813,5.3813,5.3813,5.3813,6.0787,6.08,6.0787,6.0793,6.0787,6.08,6.0319,5.9652,6.0383,6.0321,5.9755,6.0525,6.0834,6.0872,6.0891,6.0858,6.0818,6.0806,6.08,6.08,6.08,6.08,6.08,6.08,6.08,6.08,6.0819,6.0896,6.0839,6.105,6.1031,6.08,6.08,6.0815,6.0678,6.0393,5.9789,5.945,5.8901,5.8766,5.8687,5.8687,5.8687,5.8687,5.8687,5.8687,5.8632,5.852,5.8167,5.7796,5.7398,5.6933,5.6357,5.5549,5.5233,5.4964,5.4583,5.4426,5.4416,5.4843,5.4973,5.501,5.5066,5.5047,5.5047,5.5047,5.4955,5.4686,5.4388,5.4044,5.3822,5.3914,5.4017,5.4017,5.4017,5.3998,5.398,5.3924,5.3831,5.3813,5.3813,5.3813,5.3813,5.3813,5.3813,5.3813,5.3813,5.3813,5.3813,5.3813,5.3813,5.3813,5.3813,5.3813,5.3813,5.3813,5.3813,5.3813,5.3813,5.3813,5.3813,5.3813,5.3813,5.3813,5.3813,5.3813,5.3813,5.3813,5.3813,5.3813,5.3813,5.3813,5.3813,5.3813,5.3813,6.086,6.0812,6.0891,6.09,6.0806,6.08,6.065,6.0555,6.0806,6.0724,6.0624,6.085,6.0965,6.0965,6.0908,6.0886,6.0858,6.081,6.0806,6.0806,6.0823,6.0806,6.0806,6.0812,6.0806,6.0787,6.0864,6.105,6.1556,6.1652,6.1229,6.0902,6.0771,6.0796,6.0745,6.0634,6.0298,5.99,5.9202,5.8917,5.8743,5.8743,5.8706,5.8687,5.8687,5.8687,5.8687,5.8687,5.8446,5.8353,5.7769,5.7305,5.7193,5.6886,5.6775,5.6682,5.6153,5.5633,5.5522,5.5196,5.5233,5.5735,5.5949,5.593,5.593,5.5865,5.566,5.5224,5.4657,5.4249,5.4174,5.4249,5.4472,5.4657,5.4583,5.4434,5.4342,5.4017,5.3924,5.3813,5.3813,5.3813,5.3813,5.3813,5.3813,5.3813,5.3813,5.3813,5.3813,5.3813,5.3813,5.3813,5.3813,5.3813,5.3813,5.3813,5.3813,5.3813,5.3813,5.3813,5.3813,5.3813,5.3813,5.3813,5.3813,5.3813,5.3813,5.3813,5.3813,5.3813,5.3813,5.3813,5.3813,5.3822,5.3841,6.0922,6.088,6.0965,6.0955,6.09,6.0875,6.0908,6.0927,6.0891,6.0897,6.1006,6.1006,6.1008,6.1004,6.0959,6.0932,6.0938,6.0922,6.0905,6.09,6.0863,6.0875,6.0869,6.0846,6.0841,6.0835,6.085,6.0993,6.1556,6.1575,6.1191,6.0871,6.0716,6.0725,6.0669,6.0457,6.0335,6.0088,5.9739,5.9299,5.904,5.8836,5.8706,5.8687,5.8687,5.8687,5.8687,5.8687,5.8687,5.8687,5.8093,5.7982,5.7751,5.7462,5.6663,5.631,5.5512,5.5076,5.4983,5.5493,5.58,5.6302,5.684,5.7249,5.6933,5.6682,5.619,5.5633,5.4955,5.4453,5.4546,5.4694,5.5085,5.5456,5.5233,5.4992,5.4602,5.4174,5.3989,5.385,5.3813,5.3813,5.3813,5.3813,5.3813,5.3813,5.3813,5.3813,5.3813,5.3813,5.3813,5.3813,5.3813,5.3813,5.3813,5.3813,5.3813,5.3813,5.3813,5.3813,5.3813,5.3813,5.3813,5.3813,5.3813,5.3813,5.3813,5.3813,5.3813,5.3804,5.3841,5.3888,5.3879,5.3851,5.3888,6.1011,6.0987,6.1011,6.1011,6.0997,6.0992,6.0994,6.1001,6.0897,6.0905,6.0997,6.1008,6.1025,6.1021,6.0987,6.0995,6.0983,6.0976,6.0985,6.1006,6.0985,6.0965,6.0955,6.0938,6.0911,6.0869,6.0866,6.0914,6.0883,6.1095,6.1262,6.0821,6.0501,6.0504,6.0726,6.0172,6.006,6.0159,5.9956,5.9616,5.9393,5.9077,5.8687,5.8687,5.8687,5.8687,5.8687,5.8687,5.8687,5.8687,5.8669,5.8613,5.8167,5.7592,5.6515,5.592,5.5549,5.5307,5.5456,5.5902,5.6432,5.7026,5.7685,5.8019,5.7685,5.7443,5.697,5.6413,5.579,5.5345,5.5326,5.5623,5.5995,5.618,5.6087,5.5735,5.5307,5.4657,5.3905,5.3813,5.3813,5.3813,5.3813,5.3813,5.3813,5.3813,5.3813,5.3813,5.3813,5.3813,5.3831,5.3831,5.3813,5.3813,5.3813,5.3813,5.3813,5.3813,5.3813,5.3813,5.3813,5.3813,5.3813,5.3813,5.3813,5.3813,5.3813,5.3794,5.3823,5.3879,5.3917,5.3954,5.3972,5.3963,5.4019,6.0995,6.1011,6.1011,6.0999,6.1016,6.1008,6.1003,6.1013,6.0976,6.0994,6.1065,6.1075,6.108,6.107,6.1022,6.1016,6.1001,6.1009,6.1017,6.1003,6.1003,6.1018,6.1017,6.0987,6.0955,6.0897,6.0869,6.0871,6.0925,6.1241,6.1358,6.0822,6.0442,6.0404,6.0301,5.9794,5.9982,5.996,5.9845,5.9486,5.9059,5.8929,5.8687,5.8687,5.8687,5.8687,5.8687,5.8687,5.8687,5.8687,5.8687,5.8669,5.8613,5.8242,5.7703,5.7109,5.6849,5.6515,5.6403,5.6663,5.7165,5.7323,5.7722,5.7926,5.8037,5.8103,5.7843,5.7249,5.6729,5.6302,5.618,5.6533,5.6849,5.6923,5.6896,5.645,5.5967,5.4927,5.3924,5.3868,5.3868,5.3831,5.3831,5.3813,5.3813,5.3813,5.3813,5.3813,5.385,5.385,5.3877,5.3859,5.3813,5.3813,5.3813,5.3813,5.3813,5.3813,5.3813,5.3813,5.3813,5.3813,5.3813,5.3813,5.3813,5.3851,5.3841,5.3804,5.3841,5.3963,5.4046,5.4109,5.4216,5.4242,5.4287,6.1036,6.105,6.1045,6.1046,6.1046,6.1041,6.1045,6.1045,6.1045,6.106,6.1084,6.108,6.1075,6.1094,6.1046,6.1036,6.1027,6.1026,6.106,6.1055,6.104,6.105,6.104,6.102,6.0985,6.0934,6.0935,6.0947,6.099,6.1158,6.116,6.0667,6.0288,5.9938,5.9638,5.9694,5.9653,5.9369,5.9393,5.9133,5.8687,5.8687,5.8687,5.8687,5.8687,5.8687,5.8687,5.8687,5.8687,5.8687,5.8687,5.8687,5.8557,5.8186,5.787,5.7517,5.736,5.7435,5.7257,5.7425,5.7759,5.7722,5.761,5.7759,5.8242,5.8242,5.7806,5.723,5.6692,5.6236,5.6737,5.7127,5.7555,5.7788,5.7305,5.6756,5.5753,5.4593,5.4267,5.4472,5.4342,5.4082,5.4044,5.3933,5.3943,5.3961,5.3924,5.4017,5.3998,5.4007,5.4007,5.3896,5.3831,5.3813,5.3813,5.3813,5.3813,5.3813,5.3813,5.3822,5.3822,5.3813,5.3813,5.3879,5.3926,5.3954,5.3954,5.3944,5.4036,5.4199,5.4252,5.4295,5.4388,5.4497,5.4522,6.0978,6.1075,6.1094,6.1094,6.1094,6.1094,6.1094,6.1094,6.1094,6.1094,6.1094,6.1056,6.1065,6.1084,6.1094,6.1094,6.1089,6.107,6.1104,6.1104,6.1084,6.109,6.1056,6.1022,6.1006,6.0995,6.0978,6.0987,6.1009,6.1098,6.0921,6.0449,6.0022,5.9633,5.9261,5.8945,5.8799,5.8855,5.8855,5.878,5.8687,5.8687,5.8687,5.8687,5.8687,5.8687,5.8687,5.8687,5.8687,5.8687,5.8687,5.8687,5.8595,5.8279,5.8037,5.7759,5.7509,5.7268,5.7063,5.7555,5.7722,5.7722,5.7592,5.7759,5.8242,5.8,5.7565,5.7443,5.6905,5.6905,5.7387,5.7722,5.8178,5.8308,5.7666,5.7109,5.5865,5.4713,5.488,5.5122,5.4825,5.4509,5.436,5.423,5.4156,5.4184,5.4277,5.4277,5.4323,5.436,5.4379,5.4082,5.3831,5.3813,5.3813,5.3813,5.3813,5.3813,5.3813,5.3822,5.3851,5.3889,5.3963,5.4073,5.4109,5.4128,5.4163,5.419,5.4295,5.439,5.4414,5.4464,5.4587,5.4683,5.4737,6.0499,6.1094,6.1094,6.1094,6.1075,6.1094,6.1094,6.1094,6.1094,6.1094,6.1094,6.1089,6.1089,6.1094,6.1094,6.1094,6.1094,6.1094,6.1094,6.1094,6.1094,6.1094,6.108,6.1027,6.1016,6.1009,6.1013,6.0997,6.0992,6.0955,6.0875,6.0714,6.0045,5.9712,5.9588,5.9159,5.8687,5.8687,5.8687,5.8687,5.8687,5.8687,5.8687,5.8687,5.8687,5.8687,5.8687,5.8687,5.8687,5.8687,5.8687,5.8687,5.8613,5.8483,5.8353,5.8242,5.7955,5.7945,5.8,5.8112,5.8242,5.8223,5.8075,5.7777,5.787,5.7416,5.7435,5.8167,5.7889,5.7982,5.8316,5.8316,5.8576,5.8372,5.7907,5.7536,5.6756,5.6097,5.5837,5.5697,5.5419,5.5215,5.5085,5.4936,5.4769,5.4917,5.5382,5.5326,5.475,5.4732,5.4769,5.4277,5.385,5.3813,5.3813,5.3813,5.3813,5.3813,5.3823,5.3889,5.3954,5.4036,5.4127,5.4241,5.4303,5.4321,5.4356,5.4424,5.4455,5.4538,5.4552,5.4597,5.4753,5.4833,5.4849]}]]